<?xml version="1.0" encoding="UTF-8" standalone="no" ?>
<gpx xmlns="http://www.topografix.com/GPX/1/1" xmlns:xsi="http://www.w3.org/2001/XMLSchema-instance" xsi:schemaLocation="http://www.topografix.com/GPX/1/1 http://www.topografix.com/GPX/1/1/gpx.xsd" version="1.1" creator="VisuGPX - https://www.visugpx.com">
  <metadata>
    <name>lundi 2016 01</name>
    <desc><![CDATA[cumul janvier 2016]]></desc>
  </metadata>
  <trk>
    <name><![CDATA[lundi 2016 01 04]]></name>
    <extensions>
      <line xmlns="http://www.topografix.com/GPX/gpx_style/0/2">
        <color>000000</color>
      </line>
    </extensions>
    <trkseg>
      <trkpt lat="48.85731" lon="2.34679">
        <ele>39.599998474121</ele>
        <time>2016-01-04T19:21:11Z</time>
      </trkpt>
      <trkpt lat="48.85734" lon="2.34685">
        <ele>39.599998474121</ele>
        <time>2016-01-04T19:21:12Z</time>
      </trkpt>
      <trkpt lat="48.85743" lon="2.34668">
        <ele>38.599998474121</ele>
        <time>2016-01-04T19:21:21Z</time>
      </trkpt>
      <trkpt lat="48.85747" lon="2.34657">
        <ele>39</ele>
        <time>2016-01-04T19:21:25Z</time>
      </trkpt>
      <trkpt lat="48.85751" lon="2.34646">
        <ele>40</ele>
        <time>2016-01-04T19:21:29Z</time>
      </trkpt>
      <trkpt lat="48.85752" lon="2.34632">
        <ele>41.400001525879</ele>
        <time>2016-01-04T19:21:32Z</time>
      </trkpt>
      <trkpt lat="48.85756" lon="2.34617">
        <ele>42.400001525879</ele>
        <time>2016-01-04T19:21:36Z</time>
      </trkpt>
      <trkpt lat="48.85764" lon="2.3459">
        <ele>44.599998474121</ele>
        <time>2016-01-04T19:21:43Z</time>
      </trkpt>
      <trkpt lat="48.85774" lon="2.34566">
        <ele>44.20000076294</ele>
        <time>2016-01-04T19:21:49Z</time>
      </trkpt>
      <trkpt lat="48.85784" lon="2.34542">
        <ele>43.400001525879</ele>
        <time>2016-01-04T19:21:55Z</time>
      </trkpt>
      <trkpt lat="48.85791" lon="2.34514">
        <ele>42.400001525879</ele>
        <time>2016-01-04T19:22:03Z</time>
      </trkpt>
      <trkpt lat="48.85798" lon="2.34488">
        <ele>42.599998474121</ele>
        <time>2016-01-04T19:22:09Z</time>
      </trkpt>
      <trkpt lat="48.85805" lon="2.34458">
        <ele>43.599998474121</ele>
        <time>2016-01-04T19:22:15Z</time>
      </trkpt>
      <trkpt lat="48.85813" lon="2.34428">
        <ele>44</ele>
        <time>2016-01-04T19:22:21Z</time>
      </trkpt>
      <trkpt lat="48.85819" lon="2.34402">
        <ele>44.599998474121</ele>
        <time>2016-01-04T19:22:26Z</time>
      </trkpt>
      <trkpt lat="48.85825" lon="2.3437">
        <ele>46.599998474121</ele>
        <time>2016-01-04T19:22:32Z</time>
      </trkpt>
      <trkpt lat="48.85832" lon="2.34341">
        <ele>50</ele>
        <time>2016-01-04T19:22:38Z</time>
      </trkpt>
      <trkpt lat="48.8584" lon="2.34313">
        <ele>52.599998474121</ele>
        <time>2016-01-04T19:22:44Z</time>
      </trkpt>
      <trkpt lat="48.85847" lon="2.34294">
        <ele>55.79999923706</ele>
        <time>2016-01-04T19:22:50Z</time>
      </trkpt>
      <trkpt lat="48.85851" lon="2.34268">
        <ele>59.20000076294</ele>
        <time>2016-01-04T19:23:01Z</time>
      </trkpt>
      <trkpt lat="48.85851" lon="2.34265">
        <ele>59.400001525879</ele>
        <time>2016-01-04T19:23:02Z</time>
      </trkpt>
      <trkpt lat="48.85854" lon="2.34238">
        <ele>61.20000076294</ele>
        <time>2016-01-04T19:23:13Z</time>
      </trkpt>
      <trkpt lat="48.85862" lon="2.34212">
        <ele>59.20000076294</ele>
        <time>2016-01-04T19:23:20Z</time>
      </trkpt>
      <trkpt lat="48.85868" lon="2.3418">
        <ele>56.79999923706</ele>
        <time>2016-01-04T19:23:26Z</time>
      </trkpt>
      <trkpt lat="48.85872" lon="2.34159">
        <ele>54.599998474121</ele>
        <time>2016-01-04T19:23:31Z</time>
      </trkpt>
      <trkpt lat="48.8588" lon="2.34154">
        <ele>53.20000076294</ele>
        <time>2016-01-04T19:23:37Z</time>
      </trkpt>
      <trkpt lat="48.85896" lon="2.34144">
        <ele>50</ele>
        <time>2016-01-04T19:23:47Z</time>
      </trkpt>
      <trkpt lat="48.85911" lon="2.34147">
        <ele>49.20000076294</ele>
        <time>2016-01-04T19:23:52Z</time>
      </trkpt>
      <trkpt lat="48.85929" lon="2.34139">
        <ele>48.79999923706</ele>
        <time>2016-01-04T19:23:58Z</time>
      </trkpt>
      <trkpt lat="48.85948" lon="2.34154">
        <ele>49.599998474121</ele>
        <time>2016-01-04T19:24:02Z</time>
      </trkpt>
      <trkpt lat="48.85954" lon="2.34159">
        <ele>49.599998474121</ele>
        <time>2016-01-04T19:24:04Z</time>
      </trkpt>
      <trkpt lat="48.85973" lon="2.34174">
        <ele>49.20000076294</ele>
        <time>2016-01-04T19:24:10Z</time>
      </trkpt>
      <trkpt lat="48.8599" lon="2.342">
        <ele>48.79999923706</ele>
        <time>2016-01-04T19:24:13Z</time>
      </trkpt>
      <trkpt lat="48.86007" lon="2.34221">
        <ele>48.400001525879</ele>
        <time>2016-01-04T19:24:19Z</time>
      </trkpt>
      <trkpt lat="48.86022" lon="2.34223">
        <ele>48</ele>
        <time>2016-01-04T19:24:29Z</time>
      </trkpt>
      <trkpt lat="48.86038" lon="2.34211">
        <ele>48.20000076294</ele>
        <time>2016-01-04T19:24:39Z</time>
      </trkpt>
      <trkpt lat="48.8605" lon="2.34183">
        <ele>48.20000076294</ele>
        <time>2016-01-04T19:24:45Z</time>
      </trkpt>
      <trkpt lat="48.86063" lon="2.34161">
        <ele>48</ele>
        <time>2016-01-04T19:24:50Z</time>
      </trkpt>
      <trkpt lat="48.86076" lon="2.34138">
        <ele>48</ele>
        <time>2016-01-04T19:24:55Z</time>
      </trkpt>
      <trkpt lat="48.86086" lon="2.34106">
        <ele>47</ele>
        <time>2016-01-04T19:25:00Z</time>
      </trkpt>
      <trkpt lat="48.86097" lon="2.34079">
        <ele>46</ele>
        <time>2016-01-04T19:25:04Z</time>
      </trkpt>
      <trkpt lat="48.86106" lon="2.3405">
        <ele>46.400001525879</ele>
        <time>2016-01-04T19:25:08Z</time>
      </trkpt>
      <trkpt lat="48.86111" lon="2.34019">
        <ele>47</ele>
        <time>2016-01-04T19:25:11Z</time>
      </trkpt>
      <trkpt lat="48.86119" lon="2.33991">
        <ele>47.599998474121</ele>
        <time>2016-01-04T19:25:15Z</time>
      </trkpt>
      <trkpt lat="48.86129" lon="2.33962">
        <ele>49.20000076294</ele>
        <time>2016-01-04T19:25:19Z</time>
      </trkpt>
      <trkpt lat="48.86138" lon="2.33935">
        <ele>49.79999923706</ele>
        <time>2016-01-04T19:25:23Z</time>
      </trkpt>
      <trkpt lat="48.86147" lon="2.33908">
        <ele>48.20000076294</ele>
        <time>2016-01-04T19:25:27Z</time>
      </trkpt>
      <trkpt lat="48.86158" lon="2.33881">
        <ele>48</ele>
        <time>2016-01-04T19:25:31Z</time>
      </trkpt>
      <trkpt lat="48.86167" lon="2.33851">
        <ele>46.20000076294</ele>
        <time>2016-01-04T19:25:35Z</time>
      </trkpt>
      <trkpt lat="48.86176" lon="2.33821">
        <ele>44.20000076294</ele>
        <time>2016-01-04T19:25:39Z</time>
      </trkpt>
      <trkpt lat="48.86185" lon="2.33792">
        <ele>45</ele>
        <time>2016-01-04T19:25:43Z</time>
      </trkpt>
      <trkpt lat="48.86195" lon="2.33764">
        <ele>46.400001525879</ele>
        <time>2016-01-04T19:25:47Z</time>
      </trkpt>
      <trkpt lat="48.86207" lon="2.33736">
        <ele>47.400001525879</ele>
        <time>2016-01-04T19:25:51Z</time>
      </trkpt>
      <trkpt lat="48.86219" lon="2.33709">
        <ele>48.400001525879</ele>
        <time>2016-01-04T19:25:55Z</time>
      </trkpt>
      <trkpt lat="48.86227" lon="2.33682">
        <ele>49</ele>
        <time>2016-01-04T19:25:59Z</time>
      </trkpt>
      <trkpt lat="48.86239" lon="2.33655">
        <ele>48.599998474121</ele>
        <time>2016-01-04T19:26:04Z</time>
      </trkpt>
      <trkpt lat="48.86247" lon="2.33629">
        <ele>48</ele>
        <time>2016-01-04T19:26:08Z</time>
      </trkpt>
      <trkpt lat="48.86249" lon="2.33622">
        <ele>48</ele>
        <time>2016-01-04T19:26:09Z</time>
      </trkpt>
      <trkpt lat="48.86258" lon="2.33596">
        <ele>48.20000076294</ele>
        <time>2016-01-04T19:26:13Z</time>
      </trkpt>
      <trkpt lat="48.86268" lon="2.33567">
        <ele>47.20000076294</ele>
        <time>2016-01-04T19:26:18Z</time>
      </trkpt>
      <trkpt lat="48.86276" lon="2.33543">
        <ele>46.20000076294</ele>
        <time>2016-01-04T19:26:24Z</time>
      </trkpt>
      <trkpt lat="48.86283" lon="2.33512">
        <ele>44.599998474121</ele>
        <time>2016-01-04T19:26:46Z</time>
      </trkpt>
      <trkpt lat="48.86293" lon="2.33488">
        <ele>44.79999923706</ele>
        <time>2016-01-04T19:26:51Z</time>
      </trkpt>
      <trkpt lat="48.86302" lon="2.33461">
        <ele>45</ele>
        <time>2016-01-04T19:26:56Z</time>
      </trkpt>
      <trkpt lat="48.86314" lon="2.33431">
        <ele>46.400001525879</ele>
        <time>2016-01-04T19:27:01Z</time>
      </trkpt>
      <trkpt lat="48.86322" lon="2.33403">
        <ele>48</ele>
        <time>2016-01-04T19:27:05Z</time>
      </trkpt>
      <trkpt lat="48.86331" lon="2.33379">
        <ele>48.79999923706</ele>
        <time>2016-01-04T19:27:09Z</time>
      </trkpt>
      <trkpt lat="48.8634" lon="2.33347">
        <ele>48</ele>
        <time>2016-01-04T19:27:14Z</time>
      </trkpt>
      <trkpt lat="48.86348" lon="2.33321">
        <ele>47.599998474121</ele>
        <time>2016-01-04T19:27:18Z</time>
      </trkpt>
      <trkpt lat="48.86356" lon="2.33292">
        <ele>46.20000076294</ele>
        <time>2016-01-04T19:27:22Z</time>
      </trkpt>
      <trkpt lat="48.86365" lon="2.33262">
        <ele>44.79999923706</ele>
        <time>2016-01-04T19:27:26Z</time>
      </trkpt>
      <trkpt lat="48.86374" lon="2.33234">
        <ele>43.79999923706</ele>
        <time>2016-01-04T19:27:30Z</time>
      </trkpt>
      <trkpt lat="48.86377" lon="2.33221">
        <ele>43.20000076294</ele>
        <time>2016-01-04T19:27:32Z</time>
      </trkpt>
      <trkpt lat="48.86385" lon="2.33195">
        <ele>41.79999923706</ele>
        <time>2016-01-04T19:27:36Z</time>
      </trkpt>
      <trkpt lat="48.86392" lon="2.33167">
        <ele>41.400001525879</ele>
        <time>2016-01-04T19:27:40Z</time>
      </trkpt>
      <trkpt lat="48.86401" lon="2.33135">
        <ele>42.400001525879</ele>
        <time>2016-01-04T19:27:44Z</time>
      </trkpt>
      <trkpt lat="48.86409" lon="2.33103">
        <ele>43.20000076294</ele>
        <time>2016-01-04T19:27:48Z</time>
      </trkpt>
      <trkpt lat="48.86418" lon="2.33072">
        <ele>44.20000076294</ele>
        <time>2016-01-04T19:27:52Z</time>
      </trkpt>
      <trkpt lat="48.86427" lon="2.33043">
        <ele>44</ele>
        <time>2016-01-04T19:27:56Z</time>
      </trkpt>
      <trkpt lat="48.86435" lon="2.33018">
        <ele>43.599998474121</ele>
        <time>2016-01-04T19:28:00Z</time>
      </trkpt>
      <trkpt lat="48.86442" lon="2.32992">
        <ele>43.20000076294</ele>
        <time>2016-01-04T19:28:04Z</time>
      </trkpt>
      <trkpt lat="48.8645" lon="2.32965">
        <ele>43.400001525879</ele>
        <time>2016-01-04T19:28:08Z</time>
      </trkpt>
      <trkpt lat="48.86454" lon="2.32951">
        <ele>43.599998474121</ele>
        <time>2016-01-04T19:28:10Z</time>
      </trkpt>
      <trkpt lat="48.86463" lon="2.32922">
        <ele>44</ele>
        <time>2016-01-04T19:28:14Z</time>
      </trkpt>
      <trkpt lat="48.86474" lon="2.32894">
        <ele>44.400001525879</ele>
        <time>2016-01-04T19:28:18Z</time>
      </trkpt>
      <trkpt lat="48.86484" lon="2.32862">
        <ele>45</ele>
        <time>2016-01-04T19:28:22Z</time>
      </trkpt>
      <trkpt lat="48.86491" lon="2.32839">
        <ele>45.20000076294</ele>
        <time>2016-01-04T19:28:25Z</time>
      </trkpt>
      <trkpt lat="48.86501" lon="2.32811">
        <ele>44.79999923706</ele>
        <time>2016-01-04T19:28:29Z</time>
      </trkpt>
      <trkpt lat="48.86511" lon="2.32782">
        <ele>44.79999923706</ele>
        <time>2016-01-04T19:28:33Z</time>
      </trkpt>
      <trkpt lat="48.8652" lon="2.32754">
        <ele>45</ele>
        <time>2016-01-04T19:28:37Z</time>
      </trkpt>
      <trkpt lat="48.8653" lon="2.32727">
        <ele>44.20000076294</ele>
        <time>2016-01-04T19:28:41Z</time>
      </trkpt>
      <trkpt lat="48.8654" lon="2.32697">
        <ele>43.20000076294</ele>
        <time>2016-01-04T19:28:45Z</time>
      </trkpt>
      <trkpt lat="48.86549" lon="2.32668">
        <ele>42.599998474121</ele>
        <time>2016-01-04T19:28:49Z</time>
      </trkpt>
      <trkpt lat="48.86558" lon="2.32638">
        <ele>42.20000076294</ele>
        <time>2016-01-04T19:28:53Z</time>
      </trkpt>
      <trkpt lat="48.8656" lon="2.32631">
        <ele>42</ele>
        <time>2016-01-04T19:28:54Z</time>
      </trkpt>
      <trkpt lat="48.86569" lon="2.32603">
        <ele>41.79999923706</ele>
        <time>2016-01-04T19:28:58Z</time>
      </trkpt>
      <trkpt lat="48.86578" lon="2.32573">
        <ele>42</ele>
        <time>2016-01-04T19:29:02Z</time>
      </trkpt>
      <trkpt lat="48.86588" lon="2.32544">
        <ele>42.20000076294</ele>
        <time>2016-01-04T19:29:06Z</time>
      </trkpt>
      <trkpt lat="48.86597" lon="2.32516">
        <ele>42</ele>
        <time>2016-01-04T19:29:10Z</time>
      </trkpt>
      <trkpt lat="48.86607" lon="2.32486">
        <ele>41.599998474121</ele>
        <time>2016-01-04T19:29:14Z</time>
      </trkpt>
      <trkpt lat="48.86616" lon="2.32459">
        <ele>40.599998474121</ele>
        <time>2016-01-04T19:29:18Z</time>
      </trkpt>
      <trkpt lat="48.86625" lon="2.32433">
        <ele>39.599998474121</ele>
        <time>2016-01-04T19:29:22Z</time>
      </trkpt>
      <trkpt lat="48.86632" lon="2.32409">
        <ele>39.79999923706</ele>
        <time>2016-01-04T19:29:26Z</time>
      </trkpt>
      <trkpt lat="48.86636" lon="2.32392">
        <ele>39.79999923706</ele>
        <time>2016-01-04T19:29:29Z</time>
      </trkpt>
      <trkpt lat="48.86639" lon="2.32372">
        <ele>39.79999923706</ele>
        <time>2016-01-04T19:29:33Z</time>
      </trkpt>
      <trkpt lat="48.8664" lon="2.32354">
        <ele>39.599998474121</ele>
        <time>2016-01-04T19:29:37Z</time>
      </trkpt>
      <trkpt lat="48.86642" lon="2.32343">
        <ele>39.400001525879</ele>
        <time>2016-01-04T19:29:42Z</time>
      </trkpt>
      <trkpt lat="48.86642" lon="2.32339">
        <ele>39.400001525879</ele>
        <time>2016-01-04T19:29:44Z</time>
      </trkpt>
      <trkpt lat="48.86647" lon="2.32329">
        <ele>39.400001525879</ele>
        <time>2016-01-04T19:29:53Z</time>
      </trkpt>
      <trkpt lat="48.86656" lon="2.32304">
        <ele>39.400001525879</ele>
        <time>2016-01-04T19:30:17Z</time>
      </trkpt>
      <trkpt lat="48.86664" lon="2.32279">
        <ele>39.79999923706</ele>
        <time>2016-01-04T19:30:23Z</time>
      </trkpt>
      <trkpt lat="48.86674" lon="2.32256">
        <ele>40.599998474121</ele>
        <time>2016-01-04T19:30:30Z</time>
      </trkpt>
      <trkpt lat="48.86678" lon="2.32227">
        <ele>41</ele>
        <time>2016-01-04T19:30:40Z</time>
      </trkpt>
      <trkpt lat="48.86686" lon="2.32201">
        <ele>41.20000076294</ele>
        <time>2016-01-04T19:30:48Z</time>
      </trkpt>
      <trkpt lat="48.86692" lon="2.32197">
        <ele>41.400001525879</ele>
        <time>2016-01-04T19:30:51Z</time>
      </trkpt>
      <trkpt lat="48.86695" lon="2.32185">
        <ele>41.400001525879</ele>
        <time>2016-01-04T19:30:55Z</time>
      </trkpt>
      <trkpt lat="48.86696" lon="2.32174">
        <ele>41.400001525879</ele>
        <time>2016-01-04T19:30:59Z</time>
      </trkpt>
      <trkpt lat="48.86693" lon="2.3216">
        <ele>41.20000076294</ele>
        <time>2016-01-04T19:31:03Z</time>
      </trkpt>
      <trkpt lat="48.86694" lon="2.32131">
        <ele>40.400001525879</ele>
        <time>2016-01-04T19:31:09Z</time>
      </trkpt>
      <trkpt lat="48.86699" lon="2.32105">
        <ele>39.79999923706</ele>
        <time>2016-01-04T19:31:17Z</time>
      </trkpt>
      <trkpt lat="48.86708" lon="2.32079">
        <ele>40.20000076294</ele>
        <time>2016-01-04T19:31:26Z</time>
      </trkpt>
      <trkpt lat="48.86712" lon="2.3205">
        <ele>41.400001525879</ele>
        <time>2016-01-04T19:31:35Z</time>
      </trkpt>
      <trkpt lat="48.86717" lon="2.32022">
        <ele>42.400001525879</ele>
        <time>2016-01-04T19:31:41Z</time>
      </trkpt>
      <trkpt lat="48.86728" lon="2.31996">
        <ele>41</ele>
        <time>2016-01-04T19:31:48Z</time>
      </trkpt>
      <trkpt lat="48.86739" lon="2.31971">
        <ele>40.79999923706</ele>
        <time>2016-01-04T19:31:54Z</time>
      </trkpt>
      <trkpt lat="48.86751" lon="2.31945">
        <ele>39.400001525879</ele>
        <time>2016-01-04T19:32:00Z</time>
      </trkpt>
      <trkpt lat="48.86762" lon="2.31921">
        <ele>37.599998474121</ele>
        <time>2016-01-04T19:32:05Z</time>
      </trkpt>
      <trkpt lat="48.8677" lon="2.31889">
        <ele>37</ele>
        <time>2016-01-04T19:32:10Z</time>
      </trkpt>
      <trkpt lat="48.8678" lon="2.31861">
        <ele>37</ele>
        <time>2016-01-04T19:32:14Z</time>
      </trkpt>
      <trkpt lat="48.86788" lon="2.31833">
        <ele>36.79999923706</ele>
        <time>2016-01-04T19:32:18Z</time>
      </trkpt>
      <trkpt lat="48.86795" lon="2.31803">
        <ele>36</ele>
        <time>2016-01-04T19:32:22Z</time>
      </trkpt>
      <trkpt lat="48.86803" lon="2.31776">
        <ele>35.400001525879</ele>
        <time>2016-01-04T19:32:26Z</time>
      </trkpt>
      <trkpt lat="48.86811" lon="2.31751">
        <ele>36.599998474121</ele>
        <time>2016-01-04T19:32:30Z</time>
      </trkpt>
      <trkpt lat="48.86818" lon="2.31722">
        <ele>37.20000076294</ele>
        <time>2016-01-04T19:32:34Z</time>
      </trkpt>
      <trkpt lat="48.86827" lon="2.31696">
        <ele>38.20000076294</ele>
        <time>2016-01-04T19:32:38Z</time>
      </trkpt>
      <trkpt lat="48.86834" lon="2.31669">
        <ele>39.20000076294</ele>
        <time>2016-01-04T19:32:42Z</time>
      </trkpt>
      <trkpt lat="48.86834" lon="2.31662">
        <ele>39.400001525879</ele>
        <time>2016-01-04T19:32:43Z</time>
      </trkpt>
      <trkpt lat="48.86834" lon="2.31628">
        <ele>39.599998474121</ele>
        <time>2016-01-04T19:32:47Z</time>
      </trkpt>
      <trkpt lat="48.86833" lon="2.31592">
        <ele>39</ele>
        <time>2016-01-04T19:32:51Z</time>
      </trkpt>
      <trkpt lat="48.86834" lon="2.31565">
        <ele>39</ele>
        <time>2016-01-04T19:32:54Z</time>
      </trkpt>
      <trkpt lat="48.8684" lon="2.31532">
        <ele>38.400001525879</ele>
        <time>2016-01-04T19:32:58Z</time>
      </trkpt>
      <trkpt lat="48.86842" lon="2.31525">
        <ele>38.400001525879</ele>
        <time>2016-01-04T19:32:59Z</time>
      </trkpt>
      <trkpt lat="48.86845" lon="2.31518">
        <ele>38.20000076294</ele>
        <time>2016-01-04T19:33:00Z</time>
      </trkpt>
      <trkpt lat="48.86859" lon="2.31497">
        <ele>38</ele>
        <time>2016-01-04T19:33:05Z</time>
      </trkpt>
      <trkpt lat="48.86869" lon="2.31483">
        <ele>38</ele>
        <time>2016-01-04T19:33:10Z</time>
      </trkpt>
      <trkpt lat="48.86875" lon="2.31477">
        <ele>38</ele>
        <time>2016-01-04T19:33:14Z</time>
      </trkpt>
      <trkpt lat="48.86894" lon="2.31469">
        <ele>38</ele>
        <time>2016-01-04T19:33:35Z</time>
      </trkpt>
      <trkpt lat="48.8691" lon="2.31452">
        <ele>38.599998474121</ele>
        <time>2016-01-04T19:33:41Z</time>
      </trkpt>
      <trkpt lat="48.86921" lon="2.31426">
        <ele>39.79999923706</ele>
        <time>2016-01-04T19:33:47Z</time>
      </trkpt>
      <trkpt lat="48.8693" lon="2.31401">
        <ele>40.20000076294</ele>
        <time>2016-01-04T19:33:52Z</time>
      </trkpt>
      <trkpt lat="48.86939" lon="2.31376">
        <ele>39.599998474121</ele>
        <time>2016-01-04T19:33:57Z</time>
      </trkpt>
      <trkpt lat="48.86947" lon="2.3135">
        <ele>39.20000076294</ele>
        <time>2016-01-04T19:34:02Z</time>
      </trkpt>
      <trkpt lat="48.86958" lon="2.3132">
        <ele>38.79999923706</ele>
        <time>2016-01-04T19:34:07Z</time>
      </trkpt>
      <trkpt lat="48.86968" lon="2.31292">
        <ele>38.20000076294</ele>
        <time>2016-01-04T19:34:12Z</time>
      </trkpt>
      <trkpt lat="48.86978" lon="2.31265">
        <ele>38.599998474121</ele>
        <time>2016-01-04T19:34:17Z</time>
      </trkpt>
      <trkpt lat="48.86987" lon="2.31237">
        <ele>40.400001525879</ele>
        <time>2016-01-04T19:34:22Z</time>
      </trkpt>
      <trkpt lat="48.86989" lon="2.31215">
        <ele>41.79999923706</ele>
        <time>2016-01-04T19:34:31Z</time>
      </trkpt>
      <trkpt lat="48.86996" lon="2.31187">
        <ele>43.20000076294</ele>
        <time>2016-01-04T19:34:43Z</time>
      </trkpt>
      <trkpt lat="48.87005" lon="2.31159">
        <ele>44.79999923706</ele>
        <time>2016-01-04T19:34:48Z</time>
      </trkpt>
      <trkpt lat="48.87015" lon="2.31133">
        <ele>46.400001525879</ele>
        <time>2016-01-04T19:34:54Z</time>
      </trkpt>
      <trkpt lat="48.8702" lon="2.31117">
        <ele>47</ele>
        <time>2016-01-04T19:34:58Z</time>
      </trkpt>
      <trkpt lat="48.87001" lon="2.31105">
        <ele>46.400001525879</ele>
        <time>2016-01-04T19:35:04Z</time>
      </trkpt>
      <trkpt lat="48.86982" lon="2.31093">
        <ele>45.79999923706</ele>
        <time>2016-01-04T19:35:10Z</time>
      </trkpt>
      <trkpt lat="48.86976" lon="2.31074">
        <ele>45.79999923706</ele>
        <time>2016-01-04T19:35:14Z</time>
      </trkpt>
      <trkpt lat="48.86972" lon="2.31054">
        <ele>45.599998474121</ele>
        <time>2016-01-04T19:35:19Z</time>
      </trkpt>
      <trkpt lat="48.86972" lon="2.31027">
        <ele>45.599998474121</ele>
        <time>2016-01-04T19:35:27Z</time>
      </trkpt>
      <trkpt lat="48.86966" lon="2.31012">
        <ele>45.20000076294</ele>
        <time>2016-01-04T19:35:34Z</time>
      </trkpt>
      <trkpt lat="48.86966" lon="2.30993">
        <ele>45</ele>
        <time>2016-01-04T19:35:40Z</time>
      </trkpt>
      <trkpt lat="48.86958" lon="2.30966">
        <ele>44.20000076294</ele>
        <time>2016-01-04T19:35:47Z</time>
      </trkpt>
      <trkpt lat="48.86949" lon="2.30941">
        <ele>43.599998474121</ele>
        <time>2016-01-04T19:35:54Z</time>
      </trkpt>
      <trkpt lat="48.86949" lon="2.30919">
        <ele>43.20000076294</ele>
        <time>2016-01-04T19:36:02Z</time>
      </trkpt>
      <trkpt lat="48.86958" lon="2.30893">
        <ele>43</ele>
        <time>2016-01-04T19:36:15Z</time>
      </trkpt>
      <trkpt lat="48.8696" lon="2.30887">
        <ele>43</ele>
        <time>2016-01-04T19:36:17Z</time>
      </trkpt>
      <trkpt lat="48.8697" lon="2.30861">
        <ele>43</ele>
        <time>2016-01-04T19:36:24Z</time>
      </trkpt>
      <trkpt lat="48.86978" lon="2.30835">
        <ele>43.400001525879</ele>
        <time>2016-01-04T19:36:31Z</time>
      </trkpt>
      <trkpt lat="48.86987" lon="2.30807">
        <ele>43.599998474121</ele>
        <time>2016-01-04T19:36:37Z</time>
      </trkpt>
      <trkpt lat="48.86997" lon="2.30782">
        <ele>45.20000076294</ele>
        <time>2016-01-04T19:36:42Z</time>
      </trkpt>
      <trkpt lat="48.87009" lon="2.30757">
        <ele>48</ele>
        <time>2016-01-04T19:36:48Z</time>
      </trkpt>
      <trkpt lat="48.87018" lon="2.30731">
        <ele>50.20000076294</ele>
        <time>2016-01-04T19:36:53Z</time>
      </trkpt>
      <trkpt lat="48.87025" lon="2.30703">
        <ele>50.400001525879</ele>
        <time>2016-01-04T19:36:58Z</time>
      </trkpt>
      <trkpt lat="48.87035" lon="2.30677">
        <ele>50.400001525879</ele>
        <time>2016-01-04T19:37:04Z</time>
      </trkpt>
      <trkpt lat="48.87044" lon="2.30653">
        <ele>50.20000076294</ele>
        <time>2016-01-04T19:37:09Z</time>
      </trkpt>
      <trkpt lat="48.87049" lon="2.30627">
        <ele>49</ele>
        <time>2016-01-04T19:37:13Z</time>
      </trkpt>
      <trkpt lat="48.87055" lon="2.30595">
        <ele>48.400001525879</ele>
        <time>2016-01-04T19:37:18Z</time>
      </trkpt>
      <trkpt lat="48.8706" lon="2.30566">
        <ele>49.400001525879</ele>
        <time>2016-01-04T19:37:28Z</time>
      </trkpt>
      <trkpt lat="48.8706" lon="2.30566">
        <ele>49.400001525879</ele>
        <time>2016-01-04T19:37:29Z</time>
      </trkpt>
      <trkpt lat="48.87071" lon="2.30544">
        <ele>51</ele>
        <time>2016-01-04T19:37:44Z</time>
      </trkpt>
      <trkpt lat="48.87081" lon="2.30519">
        <ele>51.400001525879</ele>
        <time>2016-01-04T19:37:50Z</time>
      </trkpt>
      <trkpt lat="48.87088" lon="2.30496">
        <ele>51.79999923706</ele>
        <time>2016-01-04T19:37:54Z</time>
      </trkpt>
      <trkpt lat="48.87095" lon="2.30466">
        <ele>53.20000076294</ele>
        <time>2016-01-04T19:37:59Z</time>
      </trkpt>
      <trkpt lat="48.87104" lon="2.30441">
        <ele>54</ele>
        <time>2016-01-04T19:38:04Z</time>
      </trkpt>
      <trkpt lat="48.87104" lon="2.3041">
        <ele>55</ele>
        <time>2016-01-04T19:38:09Z</time>
      </trkpt>
      <trkpt lat="48.87109" lon="2.30384">
        <ele>55.20000076294</ele>
        <time>2016-01-04T19:38:13Z</time>
      </trkpt>
      <trkpt lat="48.87117" lon="2.30358">
        <ele>55.400001525879</ele>
        <time>2016-01-04T19:38:17Z</time>
      </trkpt>
      <trkpt lat="48.87126" lon="2.30329">
        <ele>55.400001525879</ele>
        <time>2016-01-04T19:38:22Z</time>
      </trkpt>
      <trkpt lat="48.87139" lon="2.30304">
        <ele>55.20000076294</ele>
        <time>2016-01-04T19:38:27Z</time>
      </trkpt>
      <trkpt lat="48.87143" lon="2.30292">
        <ele>55</ele>
        <time>2016-01-04T19:38:29Z</time>
      </trkpt>
      <trkpt lat="48.87148" lon="2.30264">
        <ele>54.400001525879</ele>
        <time>2016-01-04T19:38:34Z</time>
      </trkpt>
      <trkpt lat="48.87151" lon="2.30253">
        <ele>54.20000076294</ele>
        <time>2016-01-04T19:38:36Z</time>
      </trkpt>
      <trkpt lat="48.87155" lon="2.30231">
        <ele>54</ele>
        <time>2016-01-04T19:38:40Z</time>
      </trkpt>
      <trkpt lat="48.87159" lon="2.30221">
        <ele>54</ele>
        <time>2016-01-04T19:38:42Z</time>
      </trkpt>
      <trkpt lat="48.87165" lon="2.30191">
        <ele>54.20000076294</ele>
        <time>2016-01-04T19:38:47Z</time>
      </trkpt>
      <trkpt lat="48.87174" lon="2.30166">
        <ele>54.400001525879</ele>
        <time>2016-01-04T19:38:51Z</time>
      </trkpt>
      <trkpt lat="48.87183" lon="2.30136">
        <ele>55.79999923706</ele>
        <time>2016-01-04T19:38:56Z</time>
      </trkpt>
      <trkpt lat="48.87184" lon="2.3013">
        <ele>56</ele>
        <time>2016-01-04T19:38:57Z</time>
      </trkpt>
      <trkpt lat="48.87196" lon="2.30106">
        <ele>57</ele>
        <time>2016-01-04T19:39:02Z</time>
      </trkpt>
      <trkpt lat="48.87203" lon="2.30094">
        <ele>57.79999923706</ele>
        <time>2016-01-04T19:39:05Z</time>
      </trkpt>
      <trkpt lat="48.87209" lon="2.30079">
        <ele>59</ele>
        <time>2016-01-04T19:39:08Z</time>
      </trkpt>
      <trkpt lat="48.87216" lon="2.30064">
        <ele>60.20000076294</ele>
        <time>2016-01-04T19:39:11Z</time>
      </trkpt>
      <trkpt lat="48.87224" lon="2.30042">
        <ele>62.20000076294</ele>
        <time>2016-01-04T19:39:16Z</time>
      </trkpt>
      <trkpt lat="48.87226" lon="2.30014">
        <ele>62</ele>
        <time>2016-01-04T19:39:22Z</time>
      </trkpt>
      <trkpt lat="48.87236" lon="2.29986">
        <ele>62</ele>
        <time>2016-01-04T19:39:28Z</time>
      </trkpt>
      <trkpt lat="48.87238" lon="2.29981">
        <ele>62.400001525879</ele>
        <time>2016-01-04T19:39:29Z</time>
      </trkpt>
      <trkpt lat="48.87248" lon="2.29956">
        <ele>63</ele>
        <time>2016-01-04T19:39:34Z</time>
      </trkpt>
      <trkpt lat="48.87259" lon="2.2993">
        <ele>63.20000076294</ele>
        <time>2016-01-04T19:39:39Z</time>
      </trkpt>
      <trkpt lat="48.87266" lon="2.29902">
        <ele>63.79999923706</ele>
        <time>2016-01-04T19:39:44Z</time>
      </trkpt>
      <trkpt lat="48.87275" lon="2.29874">
        <ele>65</ele>
        <time>2016-01-04T19:39:49Z</time>
      </trkpt>
      <trkpt lat="48.87284" lon="2.29849">
        <ele>66.800003051758</ele>
        <time>2016-01-04T19:39:54Z</time>
      </trkpt>
      <trkpt lat="48.87288" lon="2.29836">
        <ele>67</ele>
        <time>2016-01-04T19:39:58Z</time>
      </trkpt>
      <trkpt lat="48.87294" lon="2.29805">
        <ele>68</ele>
        <time>2016-01-04T19:40:06Z</time>
      </trkpt>
      <trkpt lat="48.87303" lon="2.29779">
        <ele>68.800003051758</ele>
        <time>2016-01-04T19:40:11Z</time>
      </trkpt>
      <trkpt lat="48.87304" lon="2.29774">
        <ele>68.599998474121</ele>
        <time>2016-01-04T19:40:12Z</time>
      </trkpt>
      <trkpt lat="48.87309" lon="2.29747">
        <ele>67</ele>
        <time>2016-01-04T19:40:17Z</time>
      </trkpt>
      <trkpt lat="48.8732" lon="2.29721">
        <ele>64.599998474121</ele>
        <time>2016-01-04T19:40:26Z</time>
      </trkpt>
      <trkpt lat="48.87329" lon="2.29694">
        <ele>63.599998474121</ele>
        <time>2016-01-04T19:40:33Z</time>
      </trkpt>
      <trkpt lat="48.87335" lon="2.29683">
        <ele>63.599998474121</ele>
        <time>2016-01-04T19:41:49Z</time>
      </trkpt>
      <trkpt lat="48.87345" lon="2.29681">
        <ele>63.20000076294</ele>
        <time>2016-01-04T19:42:59Z</time>
      </trkpt>
      <trkpt lat="48.8735" lon="2.29653">
        <ele>62.79999923706</ele>
        <time>2016-01-04T19:43:06Z</time>
      </trkpt>
      <trkpt lat="48.87353" lon="2.29638">
        <ele>62.400001525879</ele>
        <time>2016-01-04T19:43:12Z</time>
      </trkpt>
      <trkpt lat="48.87427" lon="2.29397">
        <ele>59.20000076294</ele>
        <time>2016-01-04T19:44:38Z</time>
      </trkpt>
      <trkpt lat="48.87436" lon="2.29373">
        <ele>59.599998474121</ele>
        <time>2016-01-04T19:45:19Z</time>
      </trkpt>
      <trkpt lat="48.87437" lon="2.29371">
        <ele>59.599998474121</ele>
        <time>2016-01-04T19:45:20Z</time>
      </trkpt>
      <trkpt lat="48.87435" lon="2.29368">
        <ele>59.79999923706</ele>
        <time>2016-01-04T19:45:25Z</time>
      </trkpt>
      <trkpt lat="48.8742" lon="2.29355">
        <ele>61</ele>
        <time>2016-01-04T19:45:40Z</time>
      </trkpt>
      <trkpt lat="48.87403" lon="2.29344">
        <ele>62.20000076294</ele>
        <time>2016-01-04T19:45:49Z</time>
      </trkpt>
      <trkpt lat="48.87403" lon="2.29342">
        <ele>62.400001525879</ele>
        <time>2016-01-04T19:45:50Z</time>
      </trkpt>
      <trkpt lat="48.87417" lon="2.29319">
        <ele>62.400001525879</ele>
        <time>2016-01-04T19:46:00Z</time>
      </trkpt>
      <trkpt lat="48.8742" lon="2.29303">
        <ele>62.599998474121</ele>
        <time>2016-01-04T19:46:05Z</time>
      </trkpt>
      <trkpt lat="48.87419" lon="2.29293">
        <ele>62.79999923706</ele>
        <time>2016-01-04T19:46:09Z</time>
      </trkpt>
      <trkpt lat="48.87429" lon="2.29267">
        <ele>63</ele>
        <time>2016-01-04T19:46:17Z</time>
      </trkpt>
      <trkpt lat="48.87437" lon="2.29237">
        <ele>63.400001525879</ele>
        <time>2016-01-04T19:46:23Z</time>
      </trkpt>
      <trkpt lat="48.87443" lon="2.29207">
        <ele>65.199996948242</ele>
        <time>2016-01-04T19:46:28Z</time>
      </trkpt>
      <trkpt lat="48.87451" lon="2.29178">
        <ele>67.199996948242</ele>
        <time>2016-01-04T19:46:33Z</time>
      </trkpt>
      <trkpt lat="48.87462" lon="2.29155">
        <ele>67</ele>
        <time>2016-01-04T19:46:39Z</time>
      </trkpt>
      <trkpt lat="48.8747" lon="2.29124">
        <ele>68</ele>
        <time>2016-01-04T19:46:44Z</time>
      </trkpt>
      <trkpt lat="48.87478" lon="2.29092">
        <ele>68.400001525879</ele>
        <time>2016-01-04T19:46:49Z</time>
      </trkpt>
      <trkpt lat="48.87488" lon="2.29065">
        <ele>68.199996948242</ele>
        <time>2016-01-04T19:46:53Z</time>
      </trkpt>
      <trkpt lat="48.87495" lon="2.29039">
        <ele>68.199996948242</ele>
        <time>2016-01-04T19:46:58Z</time>
      </trkpt>
      <trkpt lat="48.87502" lon="2.29019">
        <ele>68.199996948242</ele>
        <time>2016-01-04T19:47:02Z</time>
      </trkpt>
      <trkpt lat="48.87505" lon="2.29006">
        <ele>68.400001525879</ele>
        <time>2016-01-04T19:47:04Z</time>
      </trkpt>
      <trkpt lat="48.8751" lon="2.28985">
        <ele>68</ele>
        <time>2016-01-04T19:47:07Z</time>
      </trkpt>
      <trkpt lat="48.87519" lon="2.28956">
        <ele>65.800003051758</ele>
        <time>2016-01-04T19:47:11Z</time>
      </trkpt>
      <trkpt lat="48.87523" lon="2.28942">
        <ele>64.800003051758</ele>
        <time>2016-01-04T19:47:13Z</time>
      </trkpt>
      <trkpt lat="48.87531" lon="2.28916">
        <ele>62.79999923706</ele>
        <time>2016-01-04T19:47:17Z</time>
      </trkpt>
      <trkpt lat="48.87533" lon="2.28908">
        <ele>62.400001525879</ele>
        <time>2016-01-04T19:47:18Z</time>
      </trkpt>
      <trkpt lat="48.87539" lon="2.28881">
        <ele>60.79999923706</ele>
        <time>2016-01-04T19:47:22Z</time>
      </trkpt>
      <trkpt lat="48.87548" lon="2.28861">
        <ele>59.599998474121</ele>
        <time>2016-01-04T19:47:25Z</time>
      </trkpt>
      <trkpt lat="48.87557" lon="2.28834">
        <ele>58.599998474121</ele>
        <time>2016-01-04T19:47:29Z</time>
      </trkpt>
      <trkpt lat="48.87565" lon="2.28817">
        <ele>59</ele>
        <time>2016-01-04T19:47:32Z</time>
      </trkpt>
      <trkpt lat="48.87569" lon="2.28806">
        <ele>59.400001525879</ele>
        <time>2016-01-04T19:47:34Z</time>
      </trkpt>
      <trkpt lat="48.87578" lon="2.28779">
        <ele>58.599998474121</ele>
        <time>2016-01-04T19:47:39Z</time>
      </trkpt>
      <trkpt lat="48.87588" lon="2.28754">
        <ele>56.79999923706</ele>
        <time>2016-01-04T19:47:44Z</time>
      </trkpt>
      <trkpt lat="48.87589" lon="2.28749">
        <ele>56.599998474121</ele>
        <time>2016-01-04T19:47:45Z</time>
      </trkpt>
      <trkpt lat="48.87592" lon="2.28738">
        <ele>56</ele>
        <time>2016-01-04T19:47:47Z</time>
      </trkpt>
      <trkpt lat="48.87598" lon="2.28725">
        <ele>55.599998474121</ele>
        <time>2016-01-04T19:47:50Z</time>
      </trkpt>
      <trkpt lat="48.87603" lon="2.28714">
        <ele>55.20000076294</ele>
        <time>2016-01-04T19:47:54Z</time>
      </trkpt>
      <trkpt lat="48.87606" lon="2.2871">
        <ele>55</ele>
        <time>2016-01-04T19:47:56Z</time>
      </trkpt>
      <trkpt lat="48.87609" lon="2.28705">
        <ele>55</ele>
        <time>2016-01-04T19:47:58Z</time>
      </trkpt>
      <trkpt lat="48.87607" lon="2.2869">
        <ele>55</ele>
        <time>2016-01-04T19:48:35Z</time>
      </trkpt>
      <trkpt lat="48.87617" lon="2.28664">
        <ele>54.79999923706</ele>
        <time>2016-01-04T19:48:41Z</time>
      </trkpt>
      <trkpt lat="48.87627" lon="2.28638">
        <ele>55.400001525879</ele>
        <time>2016-01-04T19:48:46Z</time>
      </trkpt>
      <trkpt lat="48.87637" lon="2.2861">
        <ele>56.20000076294</ele>
        <time>2016-01-04T19:48:51Z</time>
      </trkpt>
      <trkpt lat="48.87647" lon="2.28581">
        <ele>55</ele>
        <time>2016-01-04T19:48:56Z</time>
      </trkpt>
      <trkpt lat="48.87656" lon="2.28551">
        <ele>54</ele>
        <time>2016-01-04T19:49:01Z</time>
      </trkpt>
      <trkpt lat="48.87664" lon="2.28519">
        <ele>53.20000076294</ele>
        <time>2016-01-04T19:49:06Z</time>
      </trkpt>
      <trkpt lat="48.87673" lon="2.28493">
        <ele>52.20000076294</ele>
        <time>2016-01-04T19:49:10Z</time>
      </trkpt>
      <trkpt lat="48.87681" lon="2.28467">
        <ele>51</ele>
        <time>2016-01-04T19:49:14Z</time>
      </trkpt>
      <trkpt lat="48.87686" lon="2.28455">
        <ele>50.400001525879</ele>
        <time>2016-01-04T19:49:16Z</time>
      </trkpt>
      <trkpt lat="48.87697" lon="2.28426">
        <ele>49.20000076294</ele>
        <time>2016-01-04T19:49:21Z</time>
      </trkpt>
      <trkpt lat="48.877" lon="2.28414">
        <ele>48.599998474121</ele>
        <time>2016-01-04T19:49:23Z</time>
      </trkpt>
      <trkpt lat="48.87707" lon="2.28394">
        <ele>48</ele>
        <time>2016-01-04T19:49:27Z</time>
      </trkpt>
      <trkpt lat="48.87709" lon="2.2839">
        <ele>47.79999923706</ele>
        <time>2016-01-04T19:49:28Z</time>
      </trkpt>
      <trkpt lat="48.87713" lon="2.28384">
        <ele>47.599998474121</ele>
        <time>2016-01-04T19:49:31Z</time>
      </trkpt>
      <trkpt lat="48.877" lon="2.2836">
        <ele>47.79999923706</ele>
        <time>2016-01-04T19:50:08Z</time>
      </trkpt>
      <trkpt lat="48.87698" lon="2.28355">
        <ele>48</ele>
        <time>2016-01-04T19:50:10Z</time>
      </trkpt>
      <trkpt lat="48.87693" lon="2.2834">
        <ele>48</ele>
        <time>2016-01-04T19:50:15Z</time>
      </trkpt>
      <trkpt lat="48.87695" lon="2.28312">
        <ele>45.599998474121</ele>
        <time>2016-01-04T19:50:22Z</time>
      </trkpt>
      <trkpt lat="48.87693" lon="2.28283">
        <ele>43</ele>
        <time>2016-01-04T19:50:28Z</time>
      </trkpt>
      <trkpt lat="48.8769" lon="2.28268">
        <ele>42</ele>
        <time>2016-01-04T19:50:33Z</time>
      </trkpt>
      <trkpt lat="48.87693" lon="2.28236">
        <ele>40.20000076294</ele>
        <time>2016-01-04T19:50:40Z</time>
      </trkpt>
      <trkpt lat="48.87699" lon="2.28207">
        <ele>40.599998474121</ele>
        <time>2016-01-04T19:50:45Z</time>
      </trkpt>
      <trkpt lat="48.8771" lon="2.28179">
        <ele>40.79999923706</ele>
        <time>2016-01-04T19:50:50Z</time>
      </trkpt>
      <trkpt lat="48.87721" lon="2.28151">
        <ele>39.79999923706</ele>
        <time>2016-01-04T19:50:55Z</time>
      </trkpt>
      <trkpt lat="48.87731" lon="2.28127">
        <ele>38.599998474121</ele>
        <time>2016-01-04T19:51:03Z</time>
      </trkpt>
      <trkpt lat="48.87743" lon="2.28109">
        <ele>38.400001525879</ele>
        <time>2016-01-04T19:51:24Z</time>
      </trkpt>
      <trkpt lat="48.87761" lon="2.28103">
        <ele>38</ele>
        <time>2016-01-04T19:51:31Z</time>
      </trkpt>
      <trkpt lat="48.87779" lon="2.28094">
        <ele>37.599998474121</ele>
        <time>2016-01-04T19:51:37Z</time>
      </trkpt>
      <trkpt lat="48.87798" lon="2.28087">
        <ele>37.599998474121</ele>
        <time>2016-01-04T19:51:43Z</time>
      </trkpt>
      <trkpt lat="48.87815" lon="2.28074">
        <ele>37.400001525879</ele>
        <time>2016-01-04T19:51:49Z</time>
      </trkpt>
      <trkpt lat="48.87826" lon="2.28052">
        <ele>37.400001525879</ele>
        <time>2016-01-04T19:51:54Z</time>
      </trkpt>
      <trkpt lat="48.87835" lon="2.28025">
        <ele>39.599998474121</ele>
        <time>2016-01-04T19:52:00Z</time>
      </trkpt>
      <trkpt lat="48.87842" lon="2.27999">
        <ele>42</ele>
        <time>2016-01-04T19:52:08Z</time>
      </trkpt>
      <trkpt lat="48.87842" lon="2.27995">
        <ele>42.20000076294</ele>
        <time>2016-01-04T19:52:09Z</time>
      </trkpt>
      <trkpt lat="48.87831" lon="2.27972">
        <ele>43.20000076294</ele>
        <time>2016-01-04T19:52:16Z</time>
      </trkpt>
      <trkpt lat="48.87815" lon="2.27956">
        <ele>43.400001525879</ele>
        <time>2016-01-04T19:52:22Z</time>
      </trkpt>
      <trkpt lat="48.87798" lon="2.27943">
        <ele>43.400001525879</ele>
        <time>2016-01-04T19:52:28Z</time>
      </trkpt>
      <trkpt lat="48.87788" lon="2.27936">
        <ele>43.20000076294</ele>
        <time>2016-01-04T19:52:32Z</time>
      </trkpt>
      <trkpt lat="48.87789" lon="2.27908">
        <ele>44.79999923706</ele>
        <time>2016-01-04T19:52:40Z</time>
      </trkpt>
      <trkpt lat="48.87795" lon="2.27879">
        <ele>45.79999923706</ele>
        <time>2016-01-04T19:52:46Z</time>
      </trkpt>
      <trkpt lat="48.87798" lon="2.27848">
        <ele>46.599998474121</ele>
        <time>2016-01-04T19:52:51Z</time>
      </trkpt>
      <trkpt lat="48.87802" lon="2.2782">
        <ele>46.599998474121</ele>
        <time>2016-01-04T19:52:55Z</time>
      </trkpt>
      <trkpt lat="48.87804" lon="2.27791">
        <ele>46.79999923706</ele>
        <time>2016-01-04T19:52:59Z</time>
      </trkpt>
      <trkpt lat="48.87808" lon="2.27761">
        <ele>46.400001525879</ele>
        <time>2016-01-04T19:53:03Z</time>
      </trkpt>
      <trkpt lat="48.87812" lon="2.27734">
        <ele>45.400001525879</ele>
        <time>2016-01-04T19:53:07Z</time>
      </trkpt>
      <trkpt lat="48.87817" lon="2.27702">
        <ele>44</ele>
        <time>2016-01-04T19:53:12Z</time>
      </trkpt>
      <trkpt lat="48.8782" lon="2.27672">
        <ele>43.79999923706</ele>
        <time>2016-01-04T19:53:16Z</time>
      </trkpt>
      <trkpt lat="48.87825" lon="2.27638">
        <ele>42.400001525879</ele>
        <time>2016-01-04T19:53:20Z</time>
      </trkpt>
      <trkpt lat="48.87829" lon="2.27611">
        <ele>43</ele>
        <time>2016-01-04T19:53:23Z</time>
      </trkpt>
      <trkpt lat="48.87832" lon="2.27583">
        <ele>44</ele>
        <time>2016-01-04T19:53:26Z</time>
      </trkpt>
      <trkpt lat="48.87835" lon="2.27555">
        <ele>45</ele>
        <time>2016-01-04T19:53:29Z</time>
      </trkpt>
      <trkpt lat="48.87839" lon="2.27525">
        <ele>46.20000076294</ele>
        <time>2016-01-04T19:53:32Z</time>
      </trkpt>
      <trkpt lat="48.87842" lon="2.27496">
        <ele>47.20000076294</ele>
        <time>2016-01-04T19:53:35Z</time>
      </trkpt>
      <trkpt lat="48.87846" lon="2.27466">
        <ele>47.20000076294</ele>
        <time>2016-01-04T19:53:38Z</time>
      </trkpt>
      <trkpt lat="48.8785" lon="2.27439">
        <ele>46.400001525879</ele>
        <time>2016-01-04T19:53:41Z</time>
      </trkpt>
      <trkpt lat="48.87854" lon="2.27411">
        <ele>46</ele>
        <time>2016-01-04T19:53:44Z</time>
      </trkpt>
      <trkpt lat="48.87857" lon="2.27383">
        <ele>46.400001525879</ele>
        <time>2016-01-04T19:53:47Z</time>
      </trkpt>
      <trkpt lat="48.87861" lon="2.27353">
        <ele>46.599998474121</ele>
        <time>2016-01-04T19:53:50Z</time>
      </trkpt>
      <trkpt lat="48.87865" lon="2.27324">
        <ele>46.20000076294</ele>
        <time>2016-01-04T19:53:53Z</time>
      </trkpt>
      <trkpt lat="48.87867" lon="2.27306">
        <ele>44.79999923706</ele>
        <time>2016-01-04T19:53:55Z</time>
      </trkpt>
      <trkpt lat="48.87871" lon="2.27276">
        <ele>42.599998474121</ele>
        <time>2016-01-04T19:53:58Z</time>
      </trkpt>
      <trkpt lat="48.87874" lon="2.27247">
        <ele>42.20000076294</ele>
        <time>2016-01-04T19:54:01Z</time>
      </trkpt>
      <trkpt lat="48.87878" lon="2.27218">
        <ele>42.79999923706</ele>
        <time>2016-01-04T19:54:04Z</time>
      </trkpt>
      <trkpt lat="48.87881" lon="2.2719">
        <ele>43.400001525879</ele>
        <time>2016-01-04T19:54:07Z</time>
      </trkpt>
      <trkpt lat="48.87885" lon="2.27163">
        <ele>44</ele>
        <time>2016-01-04T19:54:10Z</time>
      </trkpt>
      <trkpt lat="48.87886" lon="2.27153">
        <ele>44.20000076294</ele>
        <time>2016-01-04T19:54:11Z</time>
      </trkpt>
      <trkpt lat="48.87889" lon="2.27125">
        <ele>44.79999923706</ele>
        <time>2016-01-04T19:54:14Z</time>
      </trkpt>
      <trkpt lat="48.87892" lon="2.27095">
        <ele>45.400001525879</ele>
        <time>2016-01-04T19:54:17Z</time>
      </trkpt>
      <trkpt lat="48.87896" lon="2.27061">
        <ele>45</ele>
        <time>2016-01-04T19:54:21Z</time>
      </trkpt>
      <trkpt lat="48.87901" lon="2.27028">
        <ele>44.400001525879</ele>
        <time>2016-01-04T19:54:25Z</time>
      </trkpt>
      <trkpt lat="48.87903" lon="2.27011">
        <ele>44.599998474121</ele>
        <time>2016-01-04T19:54:27Z</time>
      </trkpt>
      <trkpt lat="48.87906" lon="2.26994">
        <ele>45</ele>
        <time>2016-01-04T19:54:29Z</time>
      </trkpt>
      <trkpt lat="48.8791" lon="2.26959">
        <ele>45</ele>
        <time>2016-01-04T19:54:33Z</time>
      </trkpt>
      <trkpt lat="48.87914" lon="2.26924">
        <ele>45</ele>
        <time>2016-01-04T19:54:37Z</time>
      </trkpt>
      <trkpt lat="48.87917" lon="2.26896">
        <ele>45.400001525879</ele>
        <time>2016-01-04T19:54:40Z</time>
      </trkpt>
      <trkpt lat="48.8792" lon="2.26867">
        <ele>45</ele>
        <time>2016-01-04T19:54:43Z</time>
      </trkpt>
      <trkpt lat="48.87923" lon="2.26837">
        <ele>44</ele>
        <time>2016-01-04T19:54:46Z</time>
      </trkpt>
      <trkpt lat="48.87926" lon="2.26805">
        <ele>44.400001525879</ele>
        <time>2016-01-04T19:54:49Z</time>
      </trkpt>
      <trkpt lat="48.87929" lon="2.26774">
        <ele>45</ele>
        <time>2016-01-04T19:54:52Z</time>
      </trkpt>
      <trkpt lat="48.87932" lon="2.26742">
        <ele>45.400001525879</ele>
        <time>2016-01-04T19:54:55Z</time>
      </trkpt>
      <trkpt lat="48.87938" lon="2.26712">
        <ele>45.79999923706</ele>
        <time>2016-01-04T19:54:58Z</time>
      </trkpt>
      <trkpt lat="48.87943" lon="2.2668">
        <ele>46</ele>
        <time>2016-01-04T19:55:01Z</time>
      </trkpt>
      <trkpt lat="48.87949" lon="2.2665">
        <ele>45.599998474121</ele>
        <time>2016-01-04T19:55:04Z</time>
      </trkpt>
      <trkpt lat="48.87955" lon="2.26619">
        <ele>44.20000076294</ele>
        <time>2016-01-04T19:55:07Z</time>
      </trkpt>
      <trkpt lat="48.8796" lon="2.26588">
        <ele>42.599998474121</ele>
        <time>2016-01-04T19:55:10Z</time>
      </trkpt>
      <trkpt lat="48.87962" lon="2.26554">
        <ele>41</ele>
        <time>2016-01-04T19:55:13Z</time>
      </trkpt>
      <trkpt lat="48.87966" lon="2.26521">
        <ele>40</ele>
        <time>2016-01-04T19:55:16Z</time>
      </trkpt>
      <trkpt lat="48.87969" lon="2.26489">
        <ele>41.400001525879</ele>
        <time>2016-01-04T19:55:19Z</time>
      </trkpt>
      <trkpt lat="48.87973" lon="2.26459">
        <ele>41</ele>
        <time>2016-01-04T19:55:22Z</time>
      </trkpt>
      <trkpt lat="48.87976" lon="2.26427">
        <ele>40.599998474121</ele>
        <time>2016-01-04T19:55:25Z</time>
      </trkpt>
      <trkpt lat="48.87979" lon="2.26397">
        <ele>40.400001525879</ele>
        <time>2016-01-04T19:55:28Z</time>
      </trkpt>
      <trkpt lat="48.87983" lon="2.26366">
        <ele>39.599998474121</ele>
        <time>2016-01-04T19:55:31Z</time>
      </trkpt>
      <trkpt lat="48.87986" lon="2.26335">
        <ele>37.20000076294</ele>
        <time>2016-01-04T19:55:34Z</time>
      </trkpt>
      <trkpt lat="48.8799" lon="2.26304">
        <ele>36.79999923706</ele>
        <time>2016-01-04T19:55:37Z</time>
      </trkpt>
      <trkpt lat="48.87994" lon="2.26274">
        <ele>37.20000076294</ele>
        <time>2016-01-04T19:55:40Z</time>
      </trkpt>
      <trkpt lat="48.87998" lon="2.26244">
        <ele>37.79999923706</ele>
        <time>2016-01-04T19:55:43Z</time>
      </trkpt>
      <trkpt lat="48.88002" lon="2.26214">
        <ele>38.79999923706</ele>
        <time>2016-01-04T19:55:46Z</time>
      </trkpt>
      <trkpt lat="48.88005" lon="2.26184">
        <ele>39.599998474121</ele>
        <time>2016-01-04T19:55:49Z</time>
      </trkpt>
      <trkpt lat="48.88009" lon="2.26155">
        <ele>40.400001525879</ele>
        <time>2016-01-04T19:55:52Z</time>
      </trkpt>
      <trkpt lat="48.88014" lon="2.26128">
        <ele>40.20000076294</ele>
        <time>2016-01-04T19:55:55Z</time>
      </trkpt>
      <trkpt lat="48.88017" lon="2.26099">
        <ele>40</ele>
        <time>2016-01-04T19:55:58Z</time>
      </trkpt>
      <trkpt lat="48.88021" lon="2.26064">
        <ele>40.20000076294</ele>
        <time>2016-01-04T19:56:02Z</time>
      </trkpt>
      <trkpt lat="48.88022" lon="2.26055">
        <ele>40.20000076294</ele>
        <time>2016-01-04T19:56:03Z</time>
      </trkpt>
      <trkpt lat="48.88025" lon="2.26028">
        <ele>40.599998474121</ele>
        <time>2016-01-04T19:56:06Z</time>
      </trkpt>
      <trkpt lat="48.88028" lon="2.25994">
        <ele>41.20000076294</ele>
        <time>2016-01-04T19:56:10Z</time>
      </trkpt>
      <trkpt lat="48.88033" lon="2.25961">
        <ele>41.400001525879</ele>
        <time>2016-01-04T19:56:14Z</time>
      </trkpt>
      <trkpt lat="48.88037" lon="2.25931">
        <ele>41.599998474121</ele>
        <time>2016-01-04T19:56:18Z</time>
      </trkpt>
      <trkpt lat="48.88041" lon="2.25903">
        <ele>41.400001525879</ele>
        <time>2016-01-04T19:56:22Z</time>
      </trkpt>
      <trkpt lat="48.88042" lon="2.25879">
        <ele>40.79999923706</ele>
        <time>2016-01-04T19:56:26Z</time>
      </trkpt>
      <trkpt lat="48.88039" lon="2.25861">
        <ele>40</ele>
        <time>2016-01-04T19:56:31Z</time>
      </trkpt>
      <trkpt lat="48.88039" lon="2.25859">
        <ele>39.79999923706</ele>
        <time>2016-01-04T19:56:33Z</time>
      </trkpt>
      <trkpt lat="48.88044" lon="2.25842">
        <ele>39.599998474121</ele>
        <time>2016-01-04T19:57:33Z</time>
      </trkpt>
      <trkpt lat="48.88045" lon="2.25839">
        <ele>39.79999923706</ele>
        <time>2016-01-04T19:57:36Z</time>
      </trkpt>
      <trkpt lat="48.88042" lon="2.2583">
        <ele>39.400001525879</ele>
        <time>2016-01-04T19:57:42Z</time>
      </trkpt>
      <trkpt lat="48.88041" lon="2.25829">
        <ele>39.20000076294</ele>
        <time>2016-01-04T19:57:43Z</time>
      </trkpt>
      <trkpt lat="48.88037" lon="2.25847">
        <ele>39.400001525879</ele>
        <time>2016-01-04T19:58:33Z</time>
      </trkpt>
      <trkpt lat="48.88024" lon="2.25837">
        <ele>38.20000076294</ele>
        <time>2016-01-04T19:58:58Z</time>
      </trkpt>
      <trkpt lat="48.88006" lon="2.25821">
        <ele>38.400001525879</ele>
        <time>2016-01-04T19:59:03Z</time>
      </trkpt>
      <trkpt lat="48.87987" lon="2.25813">
        <ele>38.79999923706</ele>
        <time>2016-01-04T19:59:07Z</time>
      </trkpt>
      <trkpt lat="48.8797" lon="2.25804">
        <ele>39.20000076294</ele>
        <time>2016-01-04T19:59:11Z</time>
      </trkpt>
      <trkpt lat="48.87952" lon="2.25794">
        <ele>39.79999923706</ele>
        <time>2016-01-04T19:59:15Z</time>
      </trkpt>
      <trkpt lat="48.87942" lon="2.25787">
        <ele>40</ele>
        <time>2016-01-04T19:59:17Z</time>
      </trkpt>
      <trkpt lat="48.87922" lon="2.25776">
        <ele>40</ele>
        <time>2016-01-04T19:59:21Z</time>
      </trkpt>
      <trkpt lat="48.87905" lon="2.25768">
        <ele>40</ele>
        <time>2016-01-04T19:59:24Z</time>
      </trkpt>
      <trkpt lat="48.87888" lon="2.25758">
        <ele>40</ele>
        <time>2016-01-04T19:59:27Z</time>
      </trkpt>
      <trkpt lat="48.87866" lon="2.25746">
        <ele>40.20000076294</ele>
        <time>2016-01-04T19:59:31Z</time>
      </trkpt>
      <trkpt lat="48.87845" lon="2.25735">
        <ele>39.599998474121</ele>
        <time>2016-01-04T19:59:35Z</time>
      </trkpt>
      <trkpt lat="48.87825" lon="2.25724">
        <ele>39.599998474121</ele>
        <time>2016-01-04T19:59:39Z</time>
      </trkpt>
      <trkpt lat="48.87806" lon="2.25715">
        <ele>39.599998474121</ele>
        <time>2016-01-04T19:59:43Z</time>
      </trkpt>
      <trkpt lat="48.87785" lon="2.25704">
        <ele>39.599998474121</ele>
        <time>2016-01-04T19:59:48Z</time>
      </trkpt>
      <trkpt lat="48.87766" lon="2.25695">
        <ele>39.400001525879</ele>
        <time>2016-01-04T19:59:52Z</time>
      </trkpt>
      <trkpt lat="48.87757" lon="2.2569">
        <ele>39</ele>
        <time>2016-01-04T19:59:54Z</time>
      </trkpt>
      <trkpt lat="48.87743" lon="2.25683">
        <ele>38.400001525879</ele>
        <time>2016-01-04T19:59:57Z</time>
      </trkpt>
      <trkpt lat="48.87723" lon="2.25672">
        <ele>37.599998474121</ele>
        <time>2016-01-04T20:00:01Z</time>
      </trkpt>
      <trkpt lat="48.87705" lon="2.25663">
        <ele>37</ele>
        <time>2016-01-04T20:00:05Z</time>
      </trkpt>
      <trkpt lat="48.87687" lon="2.25653">
        <ele>37.400001525879</ele>
        <time>2016-01-04T20:00:09Z</time>
      </trkpt>
      <trkpt lat="48.87682" lon="2.25651">
        <ele>37.400001525879</ele>
        <time>2016-01-04T20:00:10Z</time>
      </trkpt>
      <trkpt lat="48.87662" lon="2.25639">
        <ele>37.79999923706</ele>
        <time>2016-01-04T20:00:14Z</time>
      </trkpt>
      <trkpt lat="48.8764" lon="2.25628">
        <ele>38.400001525879</ele>
        <time>2016-01-04T20:00:18Z</time>
      </trkpt>
      <trkpt lat="48.87626" lon="2.25619">
        <ele>38.79999923706</ele>
        <time>2016-01-04T20:00:21Z</time>
      </trkpt>
      <trkpt lat="48.87618" lon="2.25615">
        <ele>39</ele>
        <time>2016-01-04T20:00:23Z</time>
      </trkpt>
      <trkpt lat="48.87599" lon="2.25605">
        <ele>39.400001525879</ele>
        <time>2016-01-04T20:00:27Z</time>
      </trkpt>
      <trkpt lat="48.87578" lon="2.25596">
        <ele>39.599998474121</ele>
        <time>2016-01-04T20:00:31Z</time>
      </trkpt>
      <trkpt lat="48.87559" lon="2.25586">
        <ele>39.79999923706</ele>
        <time>2016-01-04T20:00:35Z</time>
      </trkpt>
      <trkpt lat="48.87554" lon="2.25584">
        <ele>39.79999923706</ele>
        <time>2016-01-04T20:00:36Z</time>
      </trkpt>
      <trkpt lat="48.87536" lon="2.25578">
        <ele>40</ele>
        <time>2016-01-04T20:00:40Z</time>
      </trkpt>
      <trkpt lat="48.87531" lon="2.25576">
        <ele>40</ele>
        <time>2016-01-04T20:00:41Z</time>
      </trkpt>
      <trkpt lat="48.87517" lon="2.25567">
        <ele>39.79999923706</ele>
        <time>2016-01-04T20:00:44Z</time>
      </trkpt>
      <trkpt lat="48.875" lon="2.2556">
        <ele>39.79999923706</ele>
        <time>2016-01-04T20:00:48Z</time>
      </trkpt>
      <trkpt lat="48.87487" lon="2.25552">
        <ele>39.599998474121</ele>
        <time>2016-01-04T20:00:51Z</time>
      </trkpt>
      <trkpt lat="48.87467" lon="2.2554">
        <ele>39.400001525879</ele>
        <time>2016-01-04T20:00:56Z</time>
      </trkpt>
      <trkpt lat="48.87455" lon="2.25532">
        <ele>39.20000076294</ele>
        <time>2016-01-04T20:00:59Z</time>
      </trkpt>
      <trkpt lat="48.87448" lon="2.25529">
        <ele>39.20000076294</ele>
        <time>2016-01-04T20:01:01Z</time>
      </trkpt>
      <trkpt lat="48.8744" lon="2.25523">
        <ele>39</ele>
        <time>2016-01-04T20:01:04Z</time>
      </trkpt>
      <trkpt lat="48.87434" lon="2.25511">
        <ele>38.79999923706</ele>
        <time>2016-01-04T20:01:08Z</time>
      </trkpt>
      <trkpt lat="48.87431" lon="2.25499">
        <ele>38.79999923706</ele>
        <time>2016-01-04T20:02:02Z</time>
      </trkpt>
      <trkpt lat="48.87413" lon="2.25494">
        <ele>38.400001525879</ele>
        <time>2016-01-04T20:02:10Z</time>
      </trkpt>
      <trkpt lat="48.87395" lon="2.25488">
        <ele>38</ele>
        <time>2016-01-04T20:02:18Z</time>
      </trkpt>
      <trkpt lat="48.87376" lon="2.25477">
        <ele>37.400001525879</ele>
        <time>2016-01-04T20:02:25Z</time>
      </trkpt>
      <trkpt lat="48.87358" lon="2.25467">
        <ele>37</ele>
        <time>2016-01-04T20:02:30Z</time>
      </trkpt>
      <trkpt lat="48.87337" lon="2.25455">
        <ele>37</ele>
        <time>2016-01-04T20:02:35Z</time>
      </trkpt>
      <trkpt lat="48.87319" lon="2.25444">
        <ele>37</ele>
        <time>2016-01-04T20:02:39Z</time>
      </trkpt>
      <trkpt lat="48.87298" lon="2.25434">
        <ele>37</ele>
        <time>2016-01-04T20:02:43Z</time>
      </trkpt>
      <trkpt lat="48.87281" lon="2.25425">
        <ele>36.79999923706</ele>
        <time>2016-01-04T20:02:46Z</time>
      </trkpt>
      <trkpt lat="48.87264" lon="2.25414">
        <ele>36.79999923706</ele>
        <time>2016-01-04T20:02:49Z</time>
      </trkpt>
      <trkpt lat="48.87245" lon="2.25402">
        <ele>36.79999923706</ele>
        <time>2016-01-04T20:02:52Z</time>
      </trkpt>
      <trkpt lat="48.87225" lon="2.25386">
        <ele>36.79999923706</ele>
        <time>2016-01-04T20:02:55Z</time>
      </trkpt>
      <trkpt lat="48.87204" lon="2.25372">
        <ele>36.599998474121</ele>
        <time>2016-01-04T20:02:58Z</time>
      </trkpt>
      <trkpt lat="48.87183" lon="2.25358">
        <ele>36.79999923706</ele>
        <time>2016-01-04T20:03:01Z</time>
      </trkpt>
      <trkpt lat="48.87161" lon="2.25345">
        <ele>37.400001525879</ele>
        <time>2016-01-04T20:03:04Z</time>
      </trkpt>
      <trkpt lat="48.87139" lon="2.25333">
        <ele>38.20000076294</ele>
        <time>2016-01-04T20:03:07Z</time>
      </trkpt>
      <trkpt lat="48.87117" lon="2.25321">
        <ele>38.599998474121</ele>
        <time>2016-01-04T20:03:10Z</time>
      </trkpt>
      <trkpt lat="48.87096" lon="2.25306">
        <ele>39.20000076294</ele>
        <time>2016-01-04T20:03:13Z</time>
      </trkpt>
      <trkpt lat="48.87075" lon="2.25293">
        <ele>39.599998474121</ele>
        <time>2016-01-04T20:03:16Z</time>
      </trkpt>
      <trkpt lat="48.87055" lon="2.25278">
        <ele>40.20000076294</ele>
        <time>2016-01-04T20:03:19Z</time>
      </trkpt>
      <trkpt lat="48.87035" lon="2.25264">
        <ele>40.599998474121</ele>
        <time>2016-01-04T20:03:22Z</time>
      </trkpt>
      <trkpt lat="48.87014" lon="2.25253">
        <ele>41</ele>
        <time>2016-01-04T20:03:25Z</time>
      </trkpt>
      <trkpt lat="48.86993" lon="2.25242">
        <ele>41.599998474121</ele>
        <time>2016-01-04T20:03:28Z</time>
      </trkpt>
      <trkpt lat="48.86973" lon="2.2523">
        <ele>42</ele>
        <time>2016-01-04T20:03:31Z</time>
      </trkpt>
      <trkpt lat="48.86953" lon="2.25219">
        <ele>42.400001525879</ele>
        <time>2016-01-04T20:03:34Z</time>
      </trkpt>
      <trkpt lat="48.86933" lon="2.25208">
        <ele>42.400001525879</ele>
        <time>2016-01-04T20:03:37Z</time>
      </trkpt>
      <trkpt lat="48.86914" lon="2.252">
        <ele>42.20000076294</ele>
        <time>2016-01-04T20:03:40Z</time>
      </trkpt>
      <trkpt lat="48.86895" lon="2.25189">
        <ele>41.79999923706</ele>
        <time>2016-01-04T20:03:43Z</time>
      </trkpt>
      <trkpt lat="48.86875" lon="2.25178">
        <ele>41.400001525879</ele>
        <time>2016-01-04T20:03:46Z</time>
      </trkpt>
      <trkpt lat="48.86857" lon="2.25166">
        <ele>41</ele>
        <time>2016-01-04T20:03:49Z</time>
      </trkpt>
      <trkpt lat="48.86838" lon="2.25155">
        <ele>41.79999923706</ele>
        <time>2016-01-04T20:03:52Z</time>
      </trkpt>
      <trkpt lat="48.86821" lon="2.25142">
        <ele>42.599998474121</ele>
        <time>2016-01-04T20:03:55Z</time>
      </trkpt>
      <trkpt lat="48.86803" lon="2.25131">
        <ele>43.400001525879</ele>
        <time>2016-01-04T20:03:58Z</time>
      </trkpt>
      <trkpt lat="48.86784" lon="2.25119">
        <ele>44.20000076294</ele>
        <time>2016-01-04T20:04:02Z</time>
      </trkpt>
      <trkpt lat="48.86775" lon="2.25112">
        <ele>44.79999923706</ele>
        <time>2016-01-04T20:04:05Z</time>
      </trkpt>
      <trkpt lat="48.86771" lon="2.25107">
        <ele>45</ele>
        <time>2016-01-04T20:04:08Z</time>
      </trkpt>
      <trkpt lat="48.86766" lon="2.25083">
        <ele>46</ele>
        <time>2016-01-04T20:04:50Z</time>
      </trkpt>
      <trkpt lat="48.86746" lon="2.25069">
        <ele>46.400001525879</ele>
        <time>2016-01-04T20:04:55Z</time>
      </trkpt>
      <trkpt lat="48.86728" lon="2.25059">
        <ele>46.599998474121</ele>
        <time>2016-01-04T20:04:59Z</time>
      </trkpt>
      <trkpt lat="48.86721" lon="2.2505">
        <ele>46.599998474121</ele>
        <time>2016-01-04T20:05:15Z</time>
      </trkpt>
      <trkpt lat="48.8672" lon="2.25044">
        <ele>46.599998474121</ele>
        <time>2016-01-04T20:07:02Z</time>
      </trkpt>
      <trkpt lat="48.86706" lon="2.25045">
        <ele>46.79999923706</ele>
        <time>2016-01-04T20:07:46Z</time>
      </trkpt>
      <trkpt lat="48.86689" lon="2.25035">
        <ele>47</ele>
        <time>2016-01-04T20:07:51Z</time>
      </trkpt>
      <trkpt lat="48.86667" lon="2.25025">
        <ele>46.79999923706</ele>
        <time>2016-01-04T20:07:56Z</time>
      </trkpt>
      <trkpt lat="48.86648" lon="2.25013">
        <ele>46.599998474121</ele>
        <time>2016-01-04T20:08:00Z</time>
      </trkpt>
      <trkpt lat="48.86628" lon="2.25002">
        <ele>46.20000076294</ele>
        <time>2016-01-04T20:08:04Z</time>
      </trkpt>
      <trkpt lat="48.86606" lon="2.24988">
        <ele>45.79999923706</ele>
        <time>2016-01-04T20:08:08Z</time>
      </trkpt>
      <trkpt lat="48.86587" lon="2.24978">
        <ele>46</ele>
        <time>2016-01-04T20:08:11Z</time>
      </trkpt>
      <trkpt lat="48.86574" lon="2.24969">
        <ele>46.20000076294</ele>
        <time>2016-01-04T20:08:13Z</time>
      </trkpt>
      <trkpt lat="48.86555" lon="2.24954">
        <ele>46.20000076294</ele>
        <time>2016-01-04T20:08:16Z</time>
      </trkpt>
      <trkpt lat="48.86534" lon="2.2494">
        <ele>46.400001525879</ele>
        <time>2016-01-04T20:08:19Z</time>
      </trkpt>
      <trkpt lat="48.86515" lon="2.24925">
        <ele>46.599998474121</ele>
        <time>2016-01-04T20:08:22Z</time>
      </trkpt>
      <trkpt lat="48.86496" lon="2.24911">
        <ele>47.20000076294</ele>
        <time>2016-01-04T20:08:25Z</time>
      </trkpt>
      <trkpt lat="48.86477" lon="2.24897">
        <ele>47.599998474121</ele>
        <time>2016-01-04T20:08:28Z</time>
      </trkpt>
      <trkpt lat="48.86458" lon="2.24882">
        <ele>48</ele>
        <time>2016-01-04T20:08:31Z</time>
      </trkpt>
      <trkpt lat="48.86436" lon="2.24867">
        <ele>48.400001525879</ele>
        <time>2016-01-04T20:08:34Z</time>
      </trkpt>
      <trkpt lat="48.86415" lon="2.24852">
        <ele>48.20000076294</ele>
        <time>2016-01-04T20:08:37Z</time>
      </trkpt>
      <trkpt lat="48.86395" lon="2.24835">
        <ele>47.79999923706</ele>
        <time>2016-01-04T20:08:40Z</time>
      </trkpt>
      <trkpt lat="48.86374" lon="2.2482">
        <ele>47.599998474121</ele>
        <time>2016-01-04T20:08:43Z</time>
      </trkpt>
      <trkpt lat="48.86355" lon="2.24808">
        <ele>47.79999923706</ele>
        <time>2016-01-04T20:08:46Z</time>
      </trkpt>
      <trkpt lat="48.86336" lon="2.24796">
        <ele>48</ele>
        <time>2016-01-04T20:08:49Z</time>
      </trkpt>
      <trkpt lat="48.86318" lon="2.24784">
        <ele>48.400001525879</ele>
        <time>2016-01-04T20:08:52Z</time>
      </trkpt>
      <trkpt lat="48.86298" lon="2.24772">
        <ele>48.599998474121</ele>
        <time>2016-01-04T20:08:55Z</time>
      </trkpt>
      <trkpt lat="48.86279" lon="2.24759">
        <ele>49</ele>
        <time>2016-01-04T20:08:58Z</time>
      </trkpt>
      <trkpt lat="48.86261" lon="2.24747">
        <ele>48.79999923706</ele>
        <time>2016-01-04T20:09:01Z</time>
      </trkpt>
      <trkpt lat="48.86242" lon="2.24735">
        <ele>47.79999923706</ele>
        <time>2016-01-04T20:09:04Z</time>
      </trkpt>
      <trkpt lat="48.86224" lon="2.24723">
        <ele>47</ele>
        <time>2016-01-04T20:09:07Z</time>
      </trkpt>
      <trkpt lat="48.86206" lon="2.24712">
        <ele>46.20000076294</ele>
        <time>2016-01-04T20:09:10Z</time>
      </trkpt>
      <trkpt lat="48.86187" lon="2.24701">
        <ele>45.599998474121</ele>
        <time>2016-01-04T20:09:13Z</time>
      </trkpt>
      <trkpt lat="48.86167" lon="2.24689">
        <ele>46</ele>
        <time>2016-01-04T20:09:16Z</time>
      </trkpt>
      <trkpt lat="48.86149" lon="2.24677">
        <ele>46.400001525879</ele>
        <time>2016-01-04T20:09:19Z</time>
      </trkpt>
      <trkpt lat="48.86131" lon="2.24665">
        <ele>47</ele>
        <time>2016-01-04T20:09:22Z</time>
      </trkpt>
      <trkpt lat="48.86113" lon="2.24655">
        <ele>47.599998474121</ele>
        <time>2016-01-04T20:09:25Z</time>
      </trkpt>
      <trkpt lat="48.86094" lon="2.24642">
        <ele>47.79999923706</ele>
        <time>2016-01-04T20:09:28Z</time>
      </trkpt>
      <trkpt lat="48.86076" lon="2.2463">
        <ele>47.20000076294</ele>
        <time>2016-01-04T20:09:31Z</time>
      </trkpt>
      <trkpt lat="48.86059" lon="2.24619">
        <ele>46.79999923706</ele>
        <time>2016-01-04T20:09:34Z</time>
      </trkpt>
      <trkpt lat="48.86041" lon="2.24605">
        <ele>46.400001525879</ele>
        <time>2016-01-04T20:09:37Z</time>
      </trkpt>
      <trkpt lat="48.86021" lon="2.24593">
        <ele>46</ele>
        <time>2016-01-04T20:09:40Z</time>
      </trkpt>
      <trkpt lat="48.86" lon="2.24579">
        <ele>45.79999923706</ele>
        <time>2016-01-04T20:09:43Z</time>
      </trkpt>
      <trkpt lat="48.85979" lon="2.24564">
        <ele>45.599998474121</ele>
        <time>2016-01-04T20:09:46Z</time>
      </trkpt>
      <trkpt lat="48.8596" lon="2.24551">
        <ele>45.599998474121</ele>
        <time>2016-01-04T20:09:49Z</time>
      </trkpt>
      <trkpt lat="48.85943" lon="2.24539">
        <ele>45.599998474121</ele>
        <time>2016-01-04T20:09:52Z</time>
      </trkpt>
      <trkpt lat="48.85922" lon="2.24525">
        <ele>46.599998474121</ele>
        <time>2016-01-04T20:09:56Z</time>
      </trkpt>
      <trkpt lat="48.85904" lon="2.24515">
        <ele>47.79999923706</ele>
        <time>2016-01-04T20:10:00Z</time>
      </trkpt>
      <trkpt lat="48.85897" lon="2.24511">
        <ele>48.400001525879</ele>
        <time>2016-01-04T20:10:02Z</time>
      </trkpt>
      <trkpt lat="48.85888" lon="2.24506">
        <ele>49</ele>
        <time>2016-01-04T20:10:05Z</time>
      </trkpt>
      <trkpt lat="48.85875" lon="2.24494">
        <ele>49.79999923706</ele>
        <time>2016-01-04T20:10:11Z</time>
      </trkpt>
      <trkpt lat="48.85866" lon="2.24485">
        <ele>50.20000076294</ele>
        <time>2016-01-04T20:10:16Z</time>
      </trkpt>
      <trkpt lat="48.85864" lon="2.24479">
        <ele>50.20000076294</ele>
        <time>2016-01-04T20:11:54Z</time>
      </trkpt>
      <trkpt lat="48.85845" lon="2.24472">
        <ele>50.79999923706</ele>
        <time>2016-01-04T20:12:03Z</time>
      </trkpt>
      <trkpt lat="48.85827" lon="2.24461">
        <ele>50.599998474121</ele>
        <time>2016-01-04T20:12:08Z</time>
      </trkpt>
      <trkpt lat="48.85808" lon="2.24452">
        <ele>50.599998474121</ele>
        <time>2016-01-04T20:12:12Z</time>
      </trkpt>
      <trkpt lat="48.85788" lon="2.24444">
        <ele>50.599998474121</ele>
        <time>2016-01-04T20:12:16Z</time>
      </trkpt>
      <trkpt lat="48.85769" lon="2.24436">
        <ele>50.599998474121</ele>
        <time>2016-01-04T20:12:20Z</time>
      </trkpt>
      <trkpt lat="48.85749" lon="2.24429">
        <ele>51</ele>
        <time>2016-01-04T20:12:24Z</time>
      </trkpt>
      <trkpt lat="48.8573" lon="2.24416">
        <ele>51.20000076294</ele>
        <time>2016-01-04T20:12:28Z</time>
      </trkpt>
      <trkpt lat="48.85712" lon="2.24408">
        <ele>51.20000076294</ele>
        <time>2016-01-04T20:12:31Z</time>
      </trkpt>
      <trkpt lat="48.8569" lon="2.24395">
        <ele>51.400001525879</ele>
        <time>2016-01-04T20:12:35Z</time>
      </trkpt>
      <trkpt lat="48.85672" lon="2.24384">
        <ele>51</ele>
        <time>2016-01-04T20:12:38Z</time>
      </trkpt>
      <trkpt lat="48.85654" lon="2.24372">
        <ele>50.599998474121</ele>
        <time>2016-01-04T20:12:41Z</time>
      </trkpt>
      <trkpt lat="48.85637" lon="2.24357">
        <ele>50</ele>
        <time>2016-01-04T20:12:44Z</time>
      </trkpt>
      <trkpt lat="48.85619" lon="2.2434">
        <ele>49.400001525879</ele>
        <time>2016-01-04T20:12:47Z</time>
      </trkpt>
      <trkpt lat="48.85602" lon="2.24324">
        <ele>49</ele>
        <time>2016-01-04T20:12:50Z</time>
      </trkpt>
      <trkpt lat="48.85583" lon="2.2431">
        <ele>48.79999923706</ele>
        <time>2016-01-04T20:12:53Z</time>
      </trkpt>
      <trkpt lat="48.85564" lon="2.24296">
        <ele>48.400001525879</ele>
        <time>2016-01-04T20:12:56Z</time>
      </trkpt>
      <trkpt lat="48.85545" lon="2.24281">
        <ele>48.20000076294</ele>
        <time>2016-01-04T20:12:59Z</time>
      </trkpt>
      <trkpt lat="48.85539" lon="2.24276">
        <ele>48.20000076294</ele>
        <time>2016-01-04T20:13:00Z</time>
      </trkpt>
      <trkpt lat="48.85518" lon="2.24262">
        <ele>48.20000076294</ele>
        <time>2016-01-04T20:13:03Z</time>
      </trkpt>
      <trkpt lat="48.85498" lon="2.2425">
        <ele>48.599998474121</ele>
        <time>2016-01-04T20:13:06Z</time>
      </trkpt>
      <trkpt lat="48.85478" lon="2.24238">
        <ele>49</ele>
        <time>2016-01-04T20:13:09Z</time>
      </trkpt>
      <trkpt lat="48.85459" lon="2.24225">
        <ele>49.20000076294</ele>
        <time>2016-01-04T20:13:12Z</time>
      </trkpt>
      <trkpt lat="48.85439" lon="2.24214">
        <ele>49.599998474121</ele>
        <time>2016-01-04T20:13:15Z</time>
      </trkpt>
      <trkpt lat="48.8542" lon="2.24201">
        <ele>49.599998474121</ele>
        <time>2016-01-04T20:13:18Z</time>
      </trkpt>
      <trkpt lat="48.85401" lon="2.24187">
        <ele>49.79999923706</ele>
        <time>2016-01-04T20:13:21Z</time>
      </trkpt>
      <trkpt lat="48.85382" lon="2.24174">
        <ele>49.79999923706</ele>
        <time>2016-01-04T20:13:24Z</time>
      </trkpt>
      <trkpt lat="48.85364" lon="2.24159">
        <ele>49.79999923706</ele>
        <time>2016-01-04T20:13:27Z</time>
      </trkpt>
      <trkpt lat="48.85351" lon="2.24151">
        <ele>50</ele>
        <time>2016-01-04T20:13:29Z</time>
      </trkpt>
      <trkpt lat="48.85333" lon="2.24148">
        <ele>50.20000076294</ele>
        <time>2016-01-04T20:13:32Z</time>
      </trkpt>
      <trkpt lat="48.85326" lon="2.24149">
        <ele>50.20000076294</ele>
        <time>2016-01-04T20:13:33Z</time>
      </trkpt>
      <trkpt lat="48.85307" lon="2.24152">
        <ele>50.20000076294</ele>
        <time>2016-01-04T20:13:36Z</time>
      </trkpt>
      <trkpt lat="48.85288" lon="2.24155">
        <ele>50</ele>
        <time>2016-01-04T20:13:39Z</time>
      </trkpt>
      <trkpt lat="48.85269" lon="2.24157">
        <ele>50</ele>
        <time>2016-01-04T20:13:42Z</time>
      </trkpt>
      <trkpt lat="48.8525" lon="2.24159">
        <ele>50</ele>
        <time>2016-01-04T20:13:45Z</time>
      </trkpt>
      <trkpt lat="48.8523" lon="2.24163">
        <ele>50</ele>
        <time>2016-01-04T20:13:48Z</time>
      </trkpt>
      <trkpt lat="48.8521" lon="2.24165">
        <ele>50</ele>
        <time>2016-01-04T20:13:51Z</time>
      </trkpt>
      <trkpt lat="48.85188" lon="2.24168">
        <ele>50</ele>
        <time>2016-01-04T20:13:54Z</time>
      </trkpt>
      <trkpt lat="48.85166" lon="2.24171">
        <ele>49</ele>
        <time>2016-01-04T20:13:57Z</time>
      </trkpt>
      <trkpt lat="48.85145" lon="2.24174">
        <ele>47.79999923706</ele>
        <time>2016-01-04T20:14:00Z</time>
      </trkpt>
      <trkpt lat="48.85122" lon="2.24176">
        <ele>46.79999923706</ele>
        <time>2016-01-04T20:14:03Z</time>
      </trkpt>
      <trkpt lat="48.85099" lon="2.24178">
        <ele>46.20000076294</ele>
        <time>2016-01-04T20:14:06Z</time>
      </trkpt>
      <trkpt lat="48.85075" lon="2.2418">
        <ele>45.599998474121</ele>
        <time>2016-01-04T20:14:09Z</time>
      </trkpt>
      <trkpt lat="48.8505" lon="2.24183">
        <ele>45.20000076294</ele>
        <time>2016-01-04T20:14:12Z</time>
      </trkpt>
      <trkpt lat="48.85025" lon="2.24186">
        <ele>44.20000076294</ele>
        <time>2016-01-04T20:14:15Z</time>
      </trkpt>
      <trkpt lat="48.85001" lon="2.24188">
        <ele>43</ele>
        <time>2016-01-04T20:14:18Z</time>
      </trkpt>
      <trkpt lat="48.84976" lon="2.2419">
        <ele>41.79999923706</ele>
        <time>2016-01-04T20:14:21Z</time>
      </trkpt>
      <trkpt lat="48.84951" lon="2.24194">
        <ele>40.599998474121</ele>
        <time>2016-01-04T20:14:24Z</time>
      </trkpt>
      <trkpt lat="48.84927" lon="2.24194">
        <ele>39.400001525879</ele>
        <time>2016-01-04T20:14:27Z</time>
      </trkpt>
      <trkpt lat="48.84904" lon="2.24195">
        <ele>38.20000076294</ele>
        <time>2016-01-04T20:14:30Z</time>
      </trkpt>
      <trkpt lat="48.84882" lon="2.24199">
        <ele>37.599998474121</ele>
        <time>2016-01-04T20:14:33Z</time>
      </trkpt>
      <trkpt lat="48.84864" lon="2.24201">
        <ele>37.20000076294</ele>
        <time>2016-01-04T20:14:36Z</time>
      </trkpt>
      <trkpt lat="48.84852" lon="2.24203">
        <ele>37</ele>
        <time>2016-01-04T20:14:38Z</time>
      </trkpt>
      <trkpt lat="48.84834" lon="2.24192">
        <ele>37.20000076294</ele>
        <time>2016-01-04T20:14:42Z</time>
      </trkpt>
      <trkpt lat="48.8483" lon="2.24187">
        <ele>37.20000076294</ele>
        <time>2016-01-04T20:14:43Z</time>
      </trkpt>
      <trkpt lat="48.84816" lon="2.24173">
        <ele>37.20000076294</ele>
        <time>2016-01-04T20:14:47Z</time>
      </trkpt>
      <trkpt lat="48.84799" lon="2.2417">
        <ele>37.599998474121</ele>
        <time>2016-01-04T20:14:52Z</time>
      </trkpt>
      <trkpt lat="48.84789" lon="2.2417">
        <ele>37.79999923706</ele>
        <time>2016-01-04T20:14:58Z</time>
      </trkpt>
      <trkpt lat="48.84787" lon="2.24184">
        <ele>38</ele>
        <time>2016-01-04T20:15:58Z</time>
      </trkpt>
      <trkpt lat="48.84785" lon="2.24195">
        <ele>38.20000076294</ele>
        <time>2016-01-04T20:16:04Z</time>
      </trkpt>
      <trkpt lat="48.84777" lon="2.2422">
        <ele>38.599998474121</ele>
        <time>2016-01-04T20:16:30Z</time>
      </trkpt>
      <trkpt lat="48.84764" lon="2.2424">
        <ele>39</ele>
        <time>2016-01-04T20:16:36Z</time>
      </trkpt>
      <trkpt lat="48.84758" lon="2.24266">
        <ele>39.20000076294</ele>
        <time>2016-01-04T20:16:41Z</time>
      </trkpt>
      <trkpt lat="48.8475" lon="2.24298">
        <ele>39</ele>
        <time>2016-01-04T20:16:46Z</time>
      </trkpt>
      <trkpt lat="48.84743" lon="2.24327">
        <ele>38.79999923706</ele>
        <time>2016-01-04T20:16:51Z</time>
      </trkpt>
      <trkpt lat="48.84736" lon="2.24353">
        <ele>38.20000076294</ele>
        <time>2016-01-04T20:16:56Z</time>
      </trkpt>
      <trkpt lat="48.8473" lon="2.2438">
        <ele>37.79999923706</ele>
        <time>2016-01-04T20:17:01Z</time>
      </trkpt>
      <trkpt lat="48.84723" lon="2.24412">
        <ele>37.20000076294</ele>
        <time>2016-01-04T20:17:06Z</time>
      </trkpt>
      <trkpt lat="48.84715" lon="2.24443">
        <ele>37.79999923706</ele>
        <time>2016-01-04T20:17:10Z</time>
      </trkpt>
      <trkpt lat="48.84706" lon="2.24475">
        <ele>38.400001525879</ele>
        <time>2016-01-04T20:17:14Z</time>
      </trkpt>
      <trkpt lat="48.84702" lon="2.24491">
        <ele>38.599998474121</ele>
        <time>2016-01-04T20:17:16Z</time>
      </trkpt>
      <trkpt lat="48.84694" lon="2.2452">
        <ele>38.599998474121</ele>
        <time>2016-01-04T20:17:20Z</time>
      </trkpt>
      <trkpt lat="48.84687" lon="2.24547">
        <ele>38.400001525879</ele>
        <time>2016-01-04T20:17:24Z</time>
      </trkpt>
      <trkpt lat="48.84681" lon="2.24573">
        <ele>38.400001525879</ele>
        <time>2016-01-04T20:17:27Z</time>
      </trkpt>
      <trkpt lat="48.84673" lon="2.246">
        <ele>38.599998474121</ele>
        <time>2016-01-04T20:17:30Z</time>
      </trkpt>
      <trkpt lat="48.84666" lon="2.24627">
        <ele>38.599998474121</ele>
        <time>2016-01-04T20:17:32Z</time>
      </trkpt>
      <trkpt lat="48.84657" lon="2.2466">
        <ele>39.20000076294</ele>
        <time>2016-01-04T20:17:35Z</time>
      </trkpt>
      <trkpt lat="48.84655" lon="2.2467">
        <ele>39.400001525879</ele>
        <time>2016-01-04T20:17:36Z</time>
      </trkpt>
      <trkpt lat="48.84648" lon="2.24707">
        <ele>39.400001525879</ele>
        <time>2016-01-04T20:17:39Z</time>
      </trkpt>
      <trkpt lat="48.84639" lon="2.24744">
        <ele>40.20000076294</ele>
        <time>2016-01-04T20:17:42Z</time>
      </trkpt>
      <trkpt lat="48.8463" lon="2.2478">
        <ele>41.20000076294</ele>
        <time>2016-01-04T20:17:45Z</time>
      </trkpt>
      <trkpt lat="48.84622" lon="2.24815">
        <ele>41.20000076294</ele>
        <time>2016-01-04T20:17:48Z</time>
      </trkpt>
      <trkpt lat="48.84614" lon="2.24847">
        <ele>41</ele>
        <time>2016-01-04T20:17:51Z</time>
      </trkpt>
      <trkpt lat="48.84606" lon="2.24878">
        <ele>40.20000076294</ele>
        <time>2016-01-04T20:17:54Z</time>
      </trkpt>
      <trkpt lat="48.84597" lon="2.24912">
        <ele>39.20000076294</ele>
        <time>2016-01-04T20:17:57Z</time>
      </trkpt>
      <trkpt lat="48.84587" lon="2.24944">
        <ele>38.79999923706</ele>
        <time>2016-01-04T20:18:00Z</time>
      </trkpt>
      <trkpt lat="48.84578" lon="2.24975">
        <ele>38.599998474121</ele>
        <time>2016-01-04T20:18:03Z</time>
      </trkpt>
      <trkpt lat="48.8457" lon="2.25">
        <ele>38.400001525879</ele>
        <time>2016-01-04T20:18:06Z</time>
      </trkpt>
      <trkpt lat="48.84568" lon="2.25008">
        <ele>38.400001525879</ele>
        <time>2016-01-04T20:18:07Z</time>
      </trkpt>
      <trkpt lat="48.8456" lon="2.25039">
        <ele>38</ele>
        <time>2016-01-04T20:18:11Z</time>
      </trkpt>
      <trkpt lat="48.84553" lon="2.25063">
        <ele>37.79999923706</ele>
        <time>2016-01-04T20:18:16Z</time>
      </trkpt>
      <trkpt lat="48.84551" lon="2.25079">
        <ele>37.599998474121</ele>
        <time>2016-01-04T20:18:49Z</time>
      </trkpt>
      <trkpt lat="48.84551" lon="2.25112">
        <ele>38</ele>
        <time>2016-01-04T20:18:54Z</time>
      </trkpt>
      <trkpt lat="48.84552" lon="2.25144">
        <ele>38.400001525879</ele>
        <time>2016-01-04T20:18:59Z</time>
      </trkpt>
      <trkpt lat="48.84553" lon="2.25174">
        <ele>38.599998474121</ele>
        <time>2016-01-04T20:19:04Z</time>
      </trkpt>
      <trkpt lat="48.84553" lon="2.25208">
        <ele>38.599998474121</ele>
        <time>2016-01-04T20:19:09Z</time>
      </trkpt>
      <trkpt lat="48.84553" lon="2.25236">
        <ele>38.599998474121</ele>
        <time>2016-01-04T20:19:13Z</time>
      </trkpt>
      <trkpt lat="48.84552" lon="2.25258">
        <ele>38.20000076294</ele>
        <time>2016-01-04T20:19:16Z</time>
      </trkpt>
      <trkpt lat="48.84552" lon="2.25285">
        <ele>37.20000076294</ele>
        <time>2016-01-04T20:19:20Z</time>
      </trkpt>
      <trkpt lat="48.84551" lon="2.25301">
        <ele>36.400001525879</ele>
        <time>2016-01-04T20:19:22Z</time>
      </trkpt>
      <trkpt lat="48.84552" lon="2.2533">
        <ele>35</ele>
        <time>2016-01-04T20:19:26Z</time>
      </trkpt>
      <trkpt lat="48.84553" lon="2.25354">
        <ele>34.400001525879</ele>
        <time>2016-01-04T20:19:29Z</time>
      </trkpt>
      <trkpt lat="48.84551" lon="2.25386">
        <ele>34.400001525879</ele>
        <time>2016-01-04T20:19:33Z</time>
      </trkpt>
      <trkpt lat="48.84547" lon="2.25417">
        <ele>34.400001525879</ele>
        <time>2016-01-04T20:19:37Z</time>
      </trkpt>
      <trkpt lat="48.84544" lon="2.25445">
        <ele>34.79999923706</ele>
        <time>2016-01-04T20:19:41Z</time>
      </trkpt>
      <trkpt lat="48.84542" lon="2.25456">
        <ele>34.79999923706</ele>
        <time>2016-01-04T20:19:43Z</time>
      </trkpt>
      <trkpt lat="48.84535" lon="2.25469">
        <ele>34.79999923706</ele>
        <time>2016-01-04T20:19:47Z</time>
      </trkpt>
      <trkpt lat="48.84531" lon="2.25478">
        <ele>34.79999923706</ele>
        <time>2016-01-04T20:19:50Z</time>
      </trkpt>
      <trkpt lat="48.84528" lon="2.25489">
        <ele>35</ele>
        <time>2016-01-04T20:19:53Z</time>
      </trkpt>
      <trkpt lat="48.84526" lon="2.2551">
        <ele>35.400001525879</ele>
        <time>2016-01-04T20:19:58Z</time>
      </trkpt>
      <trkpt lat="48.84522" lon="2.25539">
        <ele>36</ele>
        <time>2016-01-04T20:20:05Z</time>
      </trkpt>
      <trkpt lat="48.84522" lon="2.25543">
        <ele>36.20000076294</ele>
        <time>2016-01-04T20:20:07Z</time>
      </trkpt>
      <trkpt lat="48.84526" lon="2.25558">
        <ele>36.599998474121</ele>
        <time>2016-01-04T20:20:11Z</time>
      </trkpt>
      <trkpt lat="48.84531" lon="2.25586">
        <ele>37.20000076294</ele>
        <time>2016-01-04T20:20:17Z</time>
      </trkpt>
      <trkpt lat="48.84535" lon="2.25613">
        <ele>38</ele>
        <time>2016-01-04T20:20:23Z</time>
      </trkpt>
      <trkpt lat="48.84535" lon="2.25643">
        <ele>39.20000076294</ele>
        <time>2016-01-04T20:20:28Z</time>
      </trkpt>
      <trkpt lat="48.84534" lon="2.25672">
        <ele>40</ele>
        <time>2016-01-04T20:20:33Z</time>
      </trkpt>
      <trkpt lat="48.84533" lon="2.25699">
        <ele>41</ele>
        <time>2016-01-04T20:20:39Z</time>
      </trkpt>
      <trkpt lat="48.84531" lon="2.25728">
        <ele>42</ele>
        <time>2016-01-04T20:20:48Z</time>
      </trkpt>
      <trkpt lat="48.8452" lon="2.2574">
        <ele>43</ele>
        <time>2016-01-04T20:21:28Z</time>
      </trkpt>
      <trkpt lat="48.84524" lon="2.2575">
        <ele>43.20000076294</ele>
        <time>2016-01-04T20:21:36Z</time>
      </trkpt>
      <trkpt lat="48.84528" lon="2.25752">
        <ele>43.20000076294</ele>
        <time>2016-01-04T20:21:41Z</time>
      </trkpt>
      <trkpt lat="48.84527" lon="2.25781">
        <ele>45</ele>
        <time>2016-01-04T20:21:51Z</time>
      </trkpt>
      <trkpt lat="48.84526" lon="2.25813">
        <ele>47</ele>
        <time>2016-01-04T20:21:57Z</time>
      </trkpt>
      <trkpt lat="48.8453" lon="2.25844">
        <ele>48</ele>
        <time>2016-01-04T20:22:03Z</time>
      </trkpt>
      <trkpt lat="48.8454" lon="2.25871">
        <ele>48.20000076294</ele>
        <time>2016-01-04T20:22:11Z</time>
      </trkpt>
      <trkpt lat="48.84556" lon="2.25888">
        <ele>48.599998474121</ele>
        <time>2016-01-04T20:22:18Z</time>
      </trkpt>
      <trkpt lat="48.84574" lon="2.259">
        <ele>49</ele>
        <time>2016-01-04T20:22:24Z</time>
      </trkpt>
      <trkpt lat="48.84589" lon="2.2592">
        <ele>49.400001525879</ele>
        <time>2016-01-04T20:22:30Z</time>
      </trkpt>
      <trkpt lat="48.84606" lon="2.25933">
        <ele>50.20000076294</ele>
        <time>2016-01-04T20:22:35Z</time>
      </trkpt>
      <trkpt lat="48.84626" lon="2.2594">
        <ele>49.79999923706</ele>
        <time>2016-01-04T20:22:40Z</time>
      </trkpt>
      <trkpt lat="48.84643" lon="2.25958">
        <ele>49.599998474121</ele>
        <time>2016-01-04T20:22:46Z</time>
      </trkpt>
      <trkpt lat="48.84659" lon="2.2597">
        <ele>49.400001525879</ele>
        <time>2016-01-04T20:22:51Z</time>
      </trkpt>
      <trkpt lat="48.84673" lon="2.25989">
        <ele>49.400001525879</ele>
        <time>2016-01-04T20:22:57Z</time>
      </trkpt>
      <trkpt lat="48.84677" lon="2.25989">
        <ele>49.20000076294</ele>
        <time>2016-01-04T20:22:58Z</time>
      </trkpt>
      <trkpt lat="48.84699" lon="2.25993">
        <ele>49.400001525879</ele>
        <time>2016-01-04T20:23:03Z</time>
      </trkpt>
      <trkpt lat="48.84718" lon="2.25994">
        <ele>50</ele>
        <time>2016-01-04T20:23:07Z</time>
      </trkpt>
      <trkpt lat="48.84739" lon="2.25997">
        <ele>50.79999923706</ele>
        <time>2016-01-04T20:23:12Z</time>
      </trkpt>
      <trkpt lat="48.84758" lon="2.26008">
        <ele>51.599998474121</ele>
        <time>2016-01-04T20:23:17Z</time>
      </trkpt>
      <trkpt lat="48.84772" lon="2.26014">
        <ele>52.20000076294</ele>
        <time>2016-01-04T20:23:23Z</time>
      </trkpt>
      <trkpt lat="48.84792" lon="2.26009">
        <ele>51.79999923706</ele>
        <time>2016-01-04T20:23:47Z</time>
      </trkpt>
      <trkpt lat="48.84799" lon="2.26004">
        <ele>51.400001525879</ele>
        <time>2016-01-04T20:23:53Z</time>
      </trkpt>
      <trkpt lat="48.84804" lon="2.2598">
        <ele>50.400001525879</ele>
        <time>2016-01-04T20:24:07Z</time>
      </trkpt>
      <trkpt lat="48.84815" lon="2.25976">
        <ele>50</ele>
        <time>2016-01-04T20:24:29Z</time>
      </trkpt>
      <trkpt lat="48.84822" lon="2.25974">
        <ele>49.79999923706</ele>
        <time>2016-01-04T20:24:34Z</time>
      </trkpt>
      <trkpt lat="48.84828" lon="2.25957">
        <ele>49.400001525879</ele>
        <time>2016-01-04T20:24:41Z</time>
      </trkpt>
      <trkpt lat="48.84829" lon="2.25952">
        <ele>49.400001525879</ele>
        <time>2016-01-04T20:24:44Z</time>
      </trkpt>
      <trkpt lat="48.84843" lon="2.25934">
        <ele>49.20000076294</ele>
        <time>2016-01-04T20:25:03Z</time>
      </trkpt>
      <trkpt lat="48.8484" lon="2.259">
        <ele>48</ele>
        <time>2016-01-04T20:25:15Z</time>
      </trkpt>
      <trkpt lat="48.84838" lon="2.25887">
        <ele>47.400001525879</ele>
        <time>2016-01-04T20:25:17Z</time>
      </trkpt>
      <trkpt lat="48.84833" lon="2.25874">
        <ele>47</ele>
        <time>2016-01-04T20:25:22Z</time>
      </trkpt>
      <trkpt lat="48.8483" lon="2.2587">
        <ele>46.599998474121</ele>
        <time>2016-01-04T20:25:25Z</time>
      </trkpt>
      <trkpt lat="48.8483" lon="2.25862">
        <ele>46.599998474121</ele>
        <time>2016-01-04T20:25:30Z</time>
      </trkpt>
      <trkpt lat="48.8483" lon="2.25858">
        <ele>46.599998474121</ele>
        <time>2016-01-04T20:25:32Z</time>
      </trkpt>
      <trkpt lat="48.84841" lon="2.25834">
        <ele>47</ele>
        <time>2016-01-04T20:25:39Z</time>
      </trkpt>
      <trkpt lat="48.84856" lon="2.25816">
        <ele>47.79999923706</ele>
        <time>2016-01-04T20:25:45Z</time>
      </trkpt>
      <trkpt lat="48.84873" lon="2.25798">
        <ele>48.400001525879</ele>
        <time>2016-01-04T20:25:51Z</time>
      </trkpt>
      <trkpt lat="48.84876" lon="2.25795">
        <ele>48.599998474121</ele>
        <time>2016-01-04T20:25:53Z</time>
      </trkpt>
      <trkpt lat="48.84886" lon="2.25791">
        <ele>49</ele>
        <time>2016-01-04T20:25:59Z</time>
      </trkpt>
      <trkpt lat="48.84892" lon="2.25794">
        <ele>49.400001525879</ele>
        <time>2016-01-04T20:26:04Z</time>
      </trkpt>
      <trkpt lat="48.849" lon="2.25796">
        <ele>49.79999923706</ele>
        <time>2016-01-04T20:26:10Z</time>
      </trkpt>
      <trkpt lat="48.84918" lon="2.25801">
        <ele>50.20000076294</ele>
        <time>2016-01-04T20:26:19Z</time>
      </trkpt>
      <trkpt lat="48.84937" lon="2.25805">
        <ele>50.20000076294</ele>
        <time>2016-01-04T20:26:27Z</time>
      </trkpt>
      <trkpt lat="48.84956" lon="2.25813">
        <ele>51.400001525879</ele>
        <time>2016-01-04T20:26:34Z</time>
      </trkpt>
      <trkpt lat="48.84973" lon="2.25823">
        <ele>52.79999923706</ele>
        <time>2016-01-04T20:26:40Z</time>
      </trkpt>
      <trkpt lat="48.84992" lon="2.25833">
        <ele>54</ele>
        <time>2016-01-04T20:26:46Z</time>
      </trkpt>
      <trkpt lat="48.85011" lon="2.25843">
        <ele>54.79999923706</ele>
        <time>2016-01-04T20:26:52Z</time>
      </trkpt>
      <trkpt lat="48.85031" lon="2.25855">
        <ele>55.400001525879</ele>
        <time>2016-01-04T20:26:58Z</time>
      </trkpt>
      <trkpt lat="48.85049" lon="2.25866">
        <ele>55.79999923706</ele>
        <time>2016-01-04T20:27:03Z</time>
      </trkpt>
      <trkpt lat="48.85068" lon="2.25879">
        <ele>56.20000076294</ele>
        <time>2016-01-04T20:27:08Z</time>
      </trkpt>
      <trkpt lat="48.85087" lon="2.25893">
        <ele>56.599998474121</ele>
        <time>2016-01-04T20:27:13Z</time>
      </trkpt>
      <trkpt lat="48.85106" lon="2.25907">
        <ele>57</ele>
        <time>2016-01-04T20:27:18Z</time>
      </trkpt>
      <trkpt lat="48.85123" lon="2.25916">
        <ele>57</ele>
        <time>2016-01-04T20:27:22Z</time>
      </trkpt>
      <trkpt lat="48.8514" lon="2.25926">
        <ele>57.20000076294</ele>
        <time>2016-01-04T20:27:26Z</time>
      </trkpt>
      <trkpt lat="48.85161" lon="2.25939">
        <ele>57.599998474121</ele>
        <time>2016-01-04T20:27:31Z</time>
      </trkpt>
      <trkpt lat="48.85178" lon="2.25949">
        <ele>57.79999923706</ele>
        <time>2016-01-04T20:27:35Z</time>
      </trkpt>
      <trkpt lat="48.85196" lon="2.2596">
        <ele>58</ele>
        <time>2016-01-04T20:27:39Z</time>
      </trkpt>
      <trkpt lat="48.852" lon="2.25963">
        <ele>57.79999923706</ele>
        <time>2016-01-04T20:27:40Z</time>
      </trkpt>
      <trkpt lat="48.85218" lon="2.25975">
        <ele>57.599998474121</ele>
        <time>2016-01-04T20:27:44Z</time>
      </trkpt>
      <trkpt lat="48.85238" lon="2.25988">
        <ele>57.20000076294</ele>
        <time>2016-01-04T20:27:48Z</time>
      </trkpt>
      <trkpt lat="48.85258" lon="2.26001">
        <ele>56.79999923706</ele>
        <time>2016-01-04T20:27:52Z</time>
      </trkpt>
      <trkpt lat="48.85278" lon="2.26014">
        <ele>56.400001525879</ele>
        <time>2016-01-04T20:27:56Z</time>
      </trkpt>
      <trkpt lat="48.853" lon="2.26026">
        <ele>56</ele>
        <time>2016-01-04T20:28:00Z</time>
      </trkpt>
      <trkpt lat="48.85309" lon="2.26032">
        <ele>56</ele>
        <time>2016-01-04T20:28:02Z</time>
      </trkpt>
      <trkpt lat="48.85323" lon="2.2604">
        <ele>56</ele>
        <time>2016-01-04T20:28:05Z</time>
      </trkpt>
      <trkpt lat="48.85337" lon="2.26048">
        <ele>56.20000076294</ele>
        <time>2016-01-04T20:28:08Z</time>
      </trkpt>
      <trkpt lat="48.85354" lon="2.2606">
        <ele>56.20000076294</ele>
        <time>2016-01-04T20:28:12Z</time>
      </trkpt>
      <trkpt lat="48.85372" lon="2.26072">
        <ele>55.400001525879</ele>
        <time>2016-01-04T20:28:16Z</time>
      </trkpt>
      <trkpt lat="48.85392" lon="2.26085">
        <ele>54.79999923706</ele>
        <time>2016-01-04T20:28:20Z</time>
      </trkpt>
      <trkpt lat="48.85411" lon="2.261">
        <ele>54.20000076294</ele>
        <time>2016-01-04T20:28:24Z</time>
      </trkpt>
      <trkpt lat="48.85431" lon="2.26111">
        <ele>53.599998474121</ele>
        <time>2016-01-04T20:28:28Z</time>
      </trkpt>
      <trkpt lat="48.8545" lon="2.26126">
        <ele>54</ele>
        <time>2016-01-04T20:28:32Z</time>
      </trkpt>
      <trkpt lat="48.85469" lon="2.2614">
        <ele>54.79999923706</ele>
        <time>2016-01-04T20:28:36Z</time>
      </trkpt>
      <trkpt lat="48.85488" lon="2.26152">
        <ele>55.599998474121</ele>
        <time>2016-01-04T20:28:40Z</time>
      </trkpt>
      <trkpt lat="48.85506" lon="2.26166">
        <ele>56.400001525879</ele>
        <time>2016-01-04T20:28:44Z</time>
      </trkpt>
      <trkpt lat="48.85526" lon="2.2618">
        <ele>56.599998474121</ele>
        <time>2016-01-04T20:28:48Z</time>
      </trkpt>
      <trkpt lat="48.85547" lon="2.26193">
        <ele>56.79999923706</ele>
        <time>2016-01-04T20:28:52Z</time>
      </trkpt>
      <trkpt lat="48.85569" lon="2.26207">
        <ele>57</ele>
        <time>2016-01-04T20:28:56Z</time>
      </trkpt>
      <trkpt lat="48.85574" lon="2.2621">
        <ele>57</ele>
        <time>2016-01-04T20:28:57Z</time>
      </trkpt>
      <trkpt lat="48.85592" lon="2.26223">
        <ele>56.79999923706</ele>
        <time>2016-01-04T20:29:01Z</time>
      </trkpt>
      <trkpt lat="48.8561" lon="2.26234">
        <ele>56.599998474121</ele>
        <time>2016-01-04T20:29:05Z</time>
      </trkpt>
      <trkpt lat="48.85628" lon="2.26245">
        <ele>56.20000076294</ele>
        <time>2016-01-04T20:29:09Z</time>
      </trkpt>
      <trkpt lat="48.85644" lon="2.26257">
        <ele>55.79999923706</ele>
        <time>2016-01-04T20:29:13Z</time>
      </trkpt>
      <trkpt lat="48.85648" lon="2.26259">
        <ele>55.599998474121</ele>
        <time>2016-01-04T20:29:14Z</time>
      </trkpt>
      <trkpt lat="48.85663" lon="2.26254">
        <ele>55</ele>
        <time>2016-01-04T20:29:18Z</time>
      </trkpt>
      <trkpt lat="48.85666" lon="2.26252">
        <ele>55</ele>
        <time>2016-01-04T20:29:19Z</time>
      </trkpt>
      <trkpt lat="48.85682" lon="2.26259">
        <ele>54.400001525879</ele>
        <time>2016-01-04T20:29:24Z</time>
      </trkpt>
      <trkpt lat="48.85686" lon="2.26259">
        <ele>54.20000076294</ele>
        <time>2016-01-04T20:29:25Z</time>
      </trkpt>
      <trkpt lat="48.85698" lon="2.26262">
        <ele>54</ele>
        <time>2016-01-04T20:29:28Z</time>
      </trkpt>
      <trkpt lat="48.85715" lon="2.26265">
        <ele>54</ele>
        <time>2016-01-04T20:29:32Z</time>
      </trkpt>
      <trkpt lat="48.85734" lon="2.2627">
        <ele>54.20000076294</ele>
        <time>2016-01-04T20:29:37Z</time>
      </trkpt>
      <trkpt lat="48.85753" lon="2.26281">
        <ele>54.400001525879</ele>
        <time>2016-01-04T20:29:42Z</time>
      </trkpt>
      <trkpt lat="48.85772" lon="2.26295">
        <ele>54.400001525879</ele>
        <time>2016-01-04T20:29:48Z</time>
      </trkpt>
      <trkpt lat="48.85773" lon="2.26297">
        <ele>54.400001525879</ele>
        <time>2016-01-04T20:29:49Z</time>
      </trkpt>
      <trkpt lat="48.85777" lon="2.26298">
        <ele>54.400001525879</ele>
        <time>2016-01-04T20:29:53Z</time>
      </trkpt>
      <trkpt lat="48.85792" lon="2.26306">
        <ele>54</ele>
        <time>2016-01-04T20:30:59Z</time>
      </trkpt>
      <trkpt lat="48.85809" lon="2.26318">
        <ele>53.79999923706</ele>
        <time>2016-01-04T20:31:05Z</time>
      </trkpt>
      <trkpt lat="48.85827" lon="2.26331">
        <ele>53.400001525879</ele>
        <time>2016-01-04T20:31:11Z</time>
      </trkpt>
      <trkpt lat="48.85845" lon="2.26343">
        <ele>54</ele>
        <time>2016-01-04T20:31:16Z</time>
      </trkpt>
      <trkpt lat="48.85862" lon="2.26354">
        <ele>54.400001525879</ele>
        <time>2016-01-04T20:31:20Z</time>
      </trkpt>
      <trkpt lat="48.85878" lon="2.26365">
        <ele>55.20000076294</ele>
        <time>2016-01-04T20:31:24Z</time>
      </trkpt>
      <trkpt lat="48.85897" lon="2.26376">
        <ele>55.79999923706</ele>
        <time>2016-01-04T20:31:29Z</time>
      </trkpt>
      <trkpt lat="48.85915" lon="2.26388">
        <ele>56.599998474121</ele>
        <time>2016-01-04T20:31:34Z</time>
      </trkpt>
      <trkpt lat="48.85935" lon="2.26399">
        <ele>57.400001525879</ele>
        <time>2016-01-04T20:31:39Z</time>
      </trkpt>
      <trkpt lat="48.85955" lon="2.2641">
        <ele>57</ele>
        <time>2016-01-04T20:31:44Z</time>
      </trkpt>
      <trkpt lat="48.85972" lon="2.26421">
        <ele>56.599998474121</ele>
        <time>2016-01-04T20:31:49Z</time>
      </trkpt>
      <trkpt lat="48.85989" lon="2.26431">
        <ele>56.20000076294</ele>
        <time>2016-01-04T20:31:54Z</time>
      </trkpt>
      <trkpt lat="48.86006" lon="2.2644">
        <ele>55.599998474121</ele>
        <time>2016-01-04T20:31:58Z</time>
      </trkpt>
      <trkpt lat="48.86024" lon="2.26451">
        <ele>55.20000076294</ele>
        <time>2016-01-04T20:32:02Z</time>
      </trkpt>
      <trkpt lat="48.86028" lon="2.26454">
        <ele>55.20000076294</ele>
        <time>2016-01-04T20:32:03Z</time>
      </trkpt>
      <trkpt lat="48.86047" lon="2.26467">
        <ele>54.599998474121</ele>
        <time>2016-01-04T20:32:07Z</time>
      </trkpt>
      <trkpt lat="48.86064" lon="2.26479">
        <ele>54</ele>
        <time>2016-01-04T20:32:11Z</time>
      </trkpt>
      <trkpt lat="48.86084" lon="2.26491">
        <ele>53.400001525879</ele>
        <time>2016-01-04T20:32:15Z</time>
      </trkpt>
      <trkpt lat="48.86102" lon="2.26503">
        <ele>52.599998474121</ele>
        <time>2016-01-04T20:32:19Z</time>
      </trkpt>
      <trkpt lat="48.86116" lon="2.2651">
        <ele>52.79999923706</ele>
        <time>2016-01-04T20:32:22Z</time>
      </trkpt>
      <trkpt lat="48.86134" lon="2.26515">
        <ele>52.400001525879</ele>
        <time>2016-01-04T20:32:26Z</time>
      </trkpt>
      <trkpt lat="48.86143" lon="2.26516">
        <ele>52</ele>
        <time>2016-01-04T20:32:28Z</time>
      </trkpt>
      <trkpt lat="48.86161" lon="2.26519">
        <ele>51.20000076294</ele>
        <time>2016-01-04T20:32:32Z</time>
      </trkpt>
      <trkpt lat="48.8618" lon="2.26518">
        <ele>50</ele>
        <time>2016-01-04T20:32:36Z</time>
      </trkpt>
      <trkpt lat="48.86194" lon="2.26516">
        <ele>49</ele>
        <time>2016-01-04T20:32:39Z</time>
      </trkpt>
      <trkpt lat="48.86214" lon="2.26513">
        <ele>48.400001525879</ele>
        <time>2016-01-04T20:32:43Z</time>
      </trkpt>
      <trkpt lat="48.86233" lon="2.26523">
        <ele>49.400001525879</ele>
        <time>2016-01-04T20:32:47Z</time>
      </trkpt>
      <trkpt lat="48.86245" lon="2.26533">
        <ele>50.20000076294</ele>
        <time>2016-01-04T20:32:50Z</time>
      </trkpt>
      <trkpt lat="48.86259" lon="2.26546">
        <ele>51</ele>
        <time>2016-01-04T20:32:55Z</time>
      </trkpt>
      <trkpt lat="48.86264" lon="2.26548">
        <ele>51.20000076294</ele>
        <time>2016-01-04T20:32:57Z</time>
      </trkpt>
      <trkpt lat="48.86269" lon="2.26553">
        <ele>51.599998474121</ele>
        <time>2016-01-04T20:33:00Z</time>
      </trkpt>
      <trkpt lat="48.86276" lon="2.26557">
        <ele>51.79999923706</ele>
        <time>2016-01-04T20:33:03Z</time>
      </trkpt>
      <trkpt lat="48.86295" lon="2.26563">
        <ele>51.20000076294</ele>
        <time>2016-01-04T20:33:10Z</time>
      </trkpt>
      <trkpt lat="48.86315" lon="2.26573">
        <ele>50.599998474121</ele>
        <time>2016-01-04T20:33:15Z</time>
      </trkpt>
      <trkpt lat="48.86335" lon="2.26589">
        <ele>50</ele>
        <time>2016-01-04T20:33:20Z</time>
      </trkpt>
      <trkpt lat="48.8635" lon="2.26605">
        <ele>49.20000076294</ele>
        <time>2016-01-04T20:33:24Z</time>
      </trkpt>
      <trkpt lat="48.86366" lon="2.26624">
        <ele>48.599998474121</ele>
        <time>2016-01-04T20:33:28Z</time>
      </trkpt>
      <trkpt lat="48.86381" lon="2.26648">
        <ele>48.20000076294</ele>
        <time>2016-01-04T20:33:32Z</time>
      </trkpt>
      <trkpt lat="48.86392" lon="2.26673">
        <ele>47.79999923706</ele>
        <time>2016-01-04T20:33:36Z</time>
      </trkpt>
      <trkpt lat="48.86398" lon="2.2669">
        <ele>47.79999923706</ele>
        <time>2016-01-04T20:33:39Z</time>
      </trkpt>
      <trkpt lat="48.86391" lon="2.26714">
        <ele>48.400001525879</ele>
        <time>2016-01-04T20:33:44Z</time>
      </trkpt>
      <trkpt lat="48.86388" lon="2.26717">
        <ele>48.599998474121</ele>
        <time>2016-01-04T20:33:45Z</time>
      </trkpt>
      <trkpt lat="48.86382" lon="2.26724">
        <ele>48.79999923706</ele>
        <time>2016-01-04T20:33:47Z</time>
      </trkpt>
      <trkpt lat="48.86379" lon="2.26731">
        <ele>49</ele>
        <time>2016-01-04T20:33:50Z</time>
      </trkpt>
      <trkpt lat="48.86388" lon="2.26741">
        <ele>48.79999923706</ele>
        <time>2016-01-04T20:34:10Z</time>
      </trkpt>
      <trkpt lat="48.86403" lon="2.26757">
        <ele>48.20000076294</ele>
        <time>2016-01-04T20:34:16Z</time>
      </trkpt>
      <trkpt lat="48.86421" lon="2.26771">
        <ele>47.400001525879</ele>
        <time>2016-01-04T20:34:22Z</time>
      </trkpt>
      <trkpt lat="48.86437" lon="2.26785">
        <ele>46.599998474121</ele>
        <time>2016-01-04T20:34:27Z</time>
      </trkpt>
      <trkpt lat="48.86454" lon="2.26799">
        <ele>45.79999923706</ele>
        <time>2016-01-04T20:34:32Z</time>
      </trkpt>
      <trkpt lat="48.86471" lon="2.26816">
        <ele>45</ele>
        <time>2016-01-04T20:34:37Z</time>
      </trkpt>
      <trkpt lat="48.8649" lon="2.26833">
        <ele>44.599998474121</ele>
        <time>2016-01-04T20:34:42Z</time>
      </trkpt>
      <trkpt lat="48.86507" lon="2.26848">
        <ele>45.20000076294</ele>
        <time>2016-01-04T20:34:46Z</time>
      </trkpt>
      <trkpt lat="48.86527" lon="2.2686">
        <ele>45.599998474121</ele>
        <time>2016-01-04T20:34:50Z</time>
      </trkpt>
      <trkpt lat="48.86546" lon="2.26874">
        <ele>47</ele>
        <time>2016-01-04T20:34:54Z</time>
      </trkpt>
      <trkpt lat="48.86567" lon="2.26888">
        <ele>48.400001525879</ele>
        <time>2016-01-04T20:34:58Z</time>
      </trkpt>
      <trkpt lat="48.86588" lon="2.26903">
        <ele>50</ele>
        <time>2016-01-04T20:35:02Z</time>
      </trkpt>
      <trkpt lat="48.86592" lon="2.26907">
        <ele>50.400001525879</ele>
        <time>2016-01-04T20:35:03Z</time>
      </trkpt>
      <trkpt lat="48.86612" lon="2.26922">
        <ele>51.400001525879</ele>
        <time>2016-01-04T20:35:07Z</time>
      </trkpt>
      <trkpt lat="48.86634" lon="2.26937">
        <ele>52</ele>
        <time>2016-01-04T20:35:11Z</time>
      </trkpt>
      <trkpt lat="48.8665" lon="2.26949">
        <ele>52.20000076294</ele>
        <time>2016-01-04T20:35:14Z</time>
      </trkpt>
      <trkpt lat="48.8667" lon="2.26966">
        <ele>53</ele>
        <time>2016-01-04T20:35:18Z</time>
      </trkpt>
      <trkpt lat="48.86691" lon="2.26982">
        <ele>53.400001525879</ele>
        <time>2016-01-04T20:35:22Z</time>
      </trkpt>
      <trkpt lat="48.86711" lon="2.26998">
        <ele>54</ele>
        <time>2016-01-04T20:35:26Z</time>
      </trkpt>
      <trkpt lat="48.86731" lon="2.27013">
        <ele>52.400001525879</ele>
        <time>2016-01-04T20:35:30Z</time>
      </trkpt>
      <trkpt lat="48.86749" lon="2.27029">
        <ele>51</ele>
        <time>2016-01-04T20:35:34Z</time>
      </trkpt>
      <trkpt lat="48.86769" lon="2.27044">
        <ele>49.400001525879</ele>
        <time>2016-01-04T20:35:38Z</time>
      </trkpt>
      <trkpt lat="48.86789" lon="2.27059">
        <ele>48.599998474121</ele>
        <time>2016-01-04T20:35:42Z</time>
      </trkpt>
      <trkpt lat="48.86793" lon="2.27064">
        <ele>48.400001525879</ele>
        <time>2016-01-04T20:35:43Z</time>
      </trkpt>
      <trkpt lat="48.86808" lon="2.27076">
        <ele>47.599998474121</ele>
        <time>2016-01-04T20:35:46Z</time>
      </trkpt>
      <trkpt lat="48.86829" lon="2.27094">
        <ele>48</ele>
        <time>2016-01-04T20:35:50Z</time>
      </trkpt>
      <trkpt lat="48.86849" lon="2.27112">
        <ele>48.599998474121</ele>
        <time>2016-01-04T20:35:54Z</time>
      </trkpt>
      <trkpt lat="48.8687" lon="2.27128">
        <ele>49.400001525879</ele>
        <time>2016-01-04T20:35:58Z</time>
      </trkpt>
      <trkpt lat="48.86888" lon="2.27146">
        <ele>50.599998474121</ele>
        <time>2016-01-04T20:36:02Z</time>
      </trkpt>
      <trkpt lat="48.86904" lon="2.27163">
        <ele>51.599998474121</ele>
        <time>2016-01-04T20:36:06Z</time>
      </trkpt>
      <trkpt lat="48.86922" lon="2.27178">
        <ele>52.79999923706</ele>
        <time>2016-01-04T20:36:10Z</time>
      </trkpt>
      <trkpt lat="48.8694" lon="2.27195">
        <ele>54.20000076294</ele>
        <time>2016-01-04T20:36:15Z</time>
      </trkpt>
      <trkpt lat="48.86945" lon="2.272">
        <ele>54</ele>
        <time>2016-01-04T20:36:17Z</time>
      </trkpt>
      <trkpt lat="48.86951" lon="2.27213">
        <ele>54.400001525879</ele>
        <time>2016-01-04T20:36:21Z</time>
      </trkpt>
      <trkpt lat="48.86953" lon="2.27216">
        <ele>54.400001525879</ele>
        <time>2016-01-04T20:36:22Z</time>
      </trkpt>
      <trkpt lat="48.86966" lon="2.27226">
        <ele>53.599998474121</ele>
        <time>2016-01-04T20:36:28Z</time>
      </trkpt>
      <trkpt lat="48.86968" lon="2.27227">
        <ele>53.599998474121</ele>
        <time>2016-01-04T20:36:29Z</time>
      </trkpt>
      <trkpt lat="48.86973" lon="2.2723">
        <ele>53.20000076294</ele>
        <time>2016-01-04T20:36:31Z</time>
      </trkpt>
      <trkpt lat="48.86983" lon="2.27235">
        <ele>52.599998474121</ele>
        <time>2016-01-04T20:36:34Z</time>
      </trkpt>
      <trkpt lat="48.87" lon="2.27253">
        <ele>51.400001525879</ele>
        <time>2016-01-04T20:36:39Z</time>
      </trkpt>
      <trkpt lat="48.87017" lon="2.27272">
        <ele>49.599998474121</ele>
        <time>2016-01-04T20:36:44Z</time>
      </trkpt>
      <trkpt lat="48.87027" lon="2.27284">
        <ele>49</ele>
        <time>2016-01-04T20:36:47Z</time>
      </trkpt>
      <trkpt lat="48.87034" lon="2.27292">
        <ele>48.79999923706</ele>
        <time>2016-01-04T20:36:49Z</time>
      </trkpt>
      <trkpt lat="48.87048" lon="2.27312">
        <ele>48.400001525879</ele>
        <time>2016-01-04T20:36:54Z</time>
      </trkpt>
      <trkpt lat="48.87062" lon="2.27332">
        <ele>48.20000076294</ele>
        <time>2016-01-04T20:36:59Z</time>
      </trkpt>
      <trkpt lat="48.87065" lon="2.27335">
        <ele>48.20000076294</ele>
        <time>2016-01-04T20:37:00Z</time>
      </trkpt>
      <trkpt lat="48.87075" lon="2.27356">
        <ele>48.599998474121</ele>
        <time>2016-01-04T20:37:05Z</time>
      </trkpt>
      <trkpt lat="48.8709" lon="2.2738">
        <ele>49.20000076294</ele>
        <time>2016-01-04T20:37:11Z</time>
      </trkpt>
      <trkpt lat="48.87105" lon="2.27401">
        <ele>49.599998474121</ele>
        <time>2016-01-04T20:37:17Z</time>
      </trkpt>
      <trkpt lat="48.87117" lon="2.27426">
        <ele>49.599998474121</ele>
        <time>2016-01-04T20:37:24Z</time>
      </trkpt>
      <trkpt lat="48.87109" lon="2.27453">
        <ele>49</ele>
        <time>2016-01-04T20:37:31Z</time>
      </trkpt>
      <trkpt lat="48.87101" lon="2.2748">
        <ele>48.400001525879</ele>
        <time>2016-01-04T20:37:37Z</time>
      </trkpt>
      <trkpt lat="48.87101" lon="2.2751">
        <ele>50.20000076294</ele>
        <time>2016-01-04T20:37:42Z</time>
      </trkpt>
      <trkpt lat="48.87109" lon="2.27538">
        <ele>52.599998474121</ele>
        <time>2016-01-04T20:37:47Z</time>
      </trkpt>
      <trkpt lat="48.87121" lon="2.27559">
        <ele>53.20000076294</ele>
        <time>2016-01-04T20:37:52Z</time>
      </trkpt>
      <trkpt lat="48.87132" lon="2.27581">
        <ele>54</ele>
        <time>2016-01-04T20:37:58Z</time>
      </trkpt>
      <trkpt lat="48.8715" lon="2.2759">
        <ele>51</ele>
        <time>2016-01-04T20:38:06Z</time>
      </trkpt>
      <trkpt lat="48.8716" lon="2.27594">
        <ele>49.400001525879</ele>
        <time>2016-01-04T20:38:13Z</time>
      </trkpt>
      <trkpt lat="48.87167" lon="2.27618">
        <ele>48.20000076294</ele>
        <time>2016-01-04T20:38:34Z</time>
      </trkpt>
      <trkpt lat="48.87163" lon="2.27642">
        <ele>48.599998474121</ele>
        <time>2016-01-04T20:38:45Z</time>
      </trkpt>
      <trkpt lat="48.87163" lon="2.2765">
        <ele>49</ele>
        <time>2016-01-04T20:38:49Z</time>
      </trkpt>
      <trkpt lat="48.87161" lon="2.27656">
        <ele>49.599998474121</ele>
        <time>2016-01-04T20:38:53Z</time>
      </trkpt>
      <trkpt lat="48.87151" lon="2.27681">
        <ele>52.400001525879</ele>
        <time>2016-01-04T20:39:08Z</time>
      </trkpt>
      <trkpt lat="48.87142" lon="2.27708">
        <ele>54.20000076294</ele>
        <time>2016-01-04T20:39:18Z</time>
      </trkpt>
      <trkpt lat="48.87139" lon="2.27735">
        <ele>54.20000076294</ele>
        <time>2016-01-04T20:39:29Z</time>
      </trkpt>
      <trkpt lat="48.87132" lon="2.27761">
        <ele>56</ele>
        <time>2016-01-04T20:39:41Z</time>
      </trkpt>
      <trkpt lat="48.87135" lon="2.27766">
        <ele>56</ele>
        <time>2016-01-04T20:39:50Z</time>
      </trkpt>
      <trkpt lat="48.87144" lon="2.27791">
        <ele>55.599998474121</ele>
        <time>2016-01-04T20:39:58Z</time>
      </trkpt>
      <trkpt lat="48.87149" lon="2.27817">
        <ele>54.79999923706</ele>
        <time>2016-01-04T20:40:03Z</time>
      </trkpt>
      <trkpt lat="48.87155" lon="2.27848">
        <ele>53.79999923706</ele>
        <time>2016-01-04T20:40:07Z</time>
      </trkpt>
      <trkpt lat="48.87157" lon="2.27876">
        <ele>53.400001525879</ele>
        <time>2016-01-04T20:40:10Z</time>
      </trkpt>
      <trkpt lat="48.87159" lon="2.27885">
        <ele>53.20000076294</ele>
        <time>2016-01-04T20:40:11Z</time>
      </trkpt>
      <trkpt lat="48.87164" lon="2.27915">
        <ele>52.599998474121</ele>
        <time>2016-01-04T20:40:14Z</time>
      </trkpt>
      <trkpt lat="48.87168" lon="2.27946">
        <ele>53.79999923706</ele>
        <time>2016-01-04T20:40:17Z</time>
      </trkpt>
      <trkpt lat="48.8717" lon="2.27968">
        <ele>54.79999923706</ele>
        <time>2016-01-04T20:40:19Z</time>
      </trkpt>
      <trkpt lat="48.87173" lon="2.28002">
        <ele>55.79999923706</ele>
        <time>2016-01-04T20:40:22Z</time>
      </trkpt>
      <trkpt lat="48.87177" lon="2.28034">
        <ele>56</ele>
        <time>2016-01-04T20:40:25Z</time>
      </trkpt>
      <trkpt lat="48.8718" lon="2.28066">
        <ele>56.20000076294</ele>
        <time>2016-01-04T20:40:28Z</time>
      </trkpt>
      <trkpt lat="48.87186" lon="2.28096">
        <ele>56.599998474121</ele>
        <time>2016-01-04T20:40:31Z</time>
      </trkpt>
      <trkpt lat="48.87191" lon="2.28126">
        <ele>57.599998474121</ele>
        <time>2016-01-04T20:40:34Z</time>
      </trkpt>
      <trkpt lat="48.87195" lon="2.28154">
        <ele>58.20000076294</ele>
        <time>2016-01-04T20:40:37Z</time>
      </trkpt>
      <trkpt lat="48.87199" lon="2.28174">
        <ele>58.599998474121</ele>
        <time>2016-01-04T20:40:39Z</time>
      </trkpt>
      <trkpt lat="48.87205" lon="2.28202">
        <ele>59</ele>
        <time>2016-01-04T20:40:42Z</time>
      </trkpt>
      <trkpt lat="48.87208" lon="2.28231">
        <ele>59.599998474121</ele>
        <time>2016-01-04T20:40:45Z</time>
      </trkpt>
      <trkpt lat="48.87209" lon="2.2826">
        <ele>58.79999923706</ele>
        <time>2016-01-04T20:40:48Z</time>
      </trkpt>
      <trkpt lat="48.87214" lon="2.2829">
        <ele>58.599998474121</ele>
        <time>2016-01-04T20:40:51Z</time>
      </trkpt>
      <trkpt lat="48.87217" lon="2.28321">
        <ele>59</ele>
        <time>2016-01-04T20:40:54Z</time>
      </trkpt>
      <trkpt lat="48.8722" lon="2.28351">
        <ele>58.400001525879</ele>
        <time>2016-01-04T20:40:57Z</time>
      </trkpt>
      <trkpt lat="48.87223" lon="2.28378">
        <ele>57.79999923706</ele>
        <time>2016-01-04T20:41:00Z</time>
      </trkpt>
      <trkpt lat="48.87226" lon="2.284">
        <ele>57.79999923706</ele>
        <time>2016-01-04T20:41:03Z</time>
      </trkpt>
      <trkpt lat="48.87227" lon="2.28416">
        <ele>58</ele>
        <time>2016-01-04T20:41:06Z</time>
      </trkpt>
      <trkpt lat="48.87227" lon="2.28447">
        <ele>59.599998474121</ele>
        <time>2016-01-04T20:41:13Z</time>
      </trkpt>
      <trkpt lat="48.87229" lon="2.28453">
        <ele>59.400001525879</ele>
        <time>2016-01-04T20:41:16Z</time>
      </trkpt>
      <trkpt lat="48.87221" lon="2.28463">
        <ele>60.20000076294</ele>
        <time>2016-01-04T20:42:16Z</time>
      </trkpt>
      <trkpt lat="48.8722" lon="2.28469">
        <ele>60.20000076294</ele>
        <time>2016-01-04T20:42:19Z</time>
      </trkpt>
      <trkpt lat="48.87226" lon="2.28483">
        <ele>59</ele>
        <time>2016-01-04T20:42:25Z</time>
      </trkpt>
      <trkpt lat="48.87227" lon="2.28486">
        <ele>58.79999923706</ele>
        <time>2016-01-04T20:42:28Z</time>
      </trkpt>
      <trkpt lat="48.87232" lon="2.28515">
        <ele>59.20000076294</ele>
        <time>2016-01-04T20:42:47Z</time>
      </trkpt>
      <trkpt lat="48.87237" lon="2.28543">
        <ele>60.599998474121</ele>
        <time>2016-01-04T20:42:52Z</time>
      </trkpt>
      <trkpt lat="48.8724" lon="2.28573">
        <ele>60</ele>
        <time>2016-01-04T20:42:57Z</time>
      </trkpt>
      <trkpt lat="48.87244" lon="2.28603">
        <ele>60.400001525879</ele>
        <time>2016-01-04T20:43:02Z</time>
      </trkpt>
      <trkpt lat="48.87248" lon="2.28634">
        <ele>60.79999923706</ele>
        <time>2016-01-04T20:43:07Z</time>
      </trkpt>
      <trkpt lat="48.87251" lon="2.28664">
        <ele>61</ele>
        <time>2016-01-04T20:43:11Z</time>
      </trkpt>
      <trkpt lat="48.87256" lon="2.28695">
        <ele>61.599998474121</ele>
        <time>2016-01-04T20:43:15Z</time>
      </trkpt>
      <trkpt lat="48.87258" lon="2.28728">
        <ele>62.20000076294</ele>
        <time>2016-01-04T20:43:19Z</time>
      </trkpt>
      <trkpt lat="48.8726" lon="2.28761">
        <ele>64</ele>
        <time>2016-01-04T20:43:23Z</time>
      </trkpt>
      <trkpt lat="48.87263" lon="2.28793">
        <ele>65.199996948242</ele>
        <time>2016-01-04T20:43:27Z</time>
      </trkpt>
      <trkpt lat="48.87266" lon="2.28817">
        <ele>66</ele>
        <time>2016-01-04T20:43:30Z</time>
      </trkpt>
      <trkpt lat="48.8727" lon="2.28846">
        <ele>66.400001525879</ele>
        <time>2016-01-04T20:43:34Z</time>
      </trkpt>
      <trkpt lat="48.87271" lon="2.28853">
        <ele>66.400001525879</ele>
        <time>2016-01-04T20:43:35Z</time>
      </trkpt>
      <trkpt lat="48.87276" lon="2.28881">
        <ele>66.400001525879</ele>
        <time>2016-01-04T20:43:39Z</time>
      </trkpt>
      <trkpt lat="48.87282" lon="2.28909">
        <ele>66.400001525879</ele>
        <time>2016-01-04T20:43:43Z</time>
      </trkpt>
      <trkpt lat="48.87284" lon="2.28937">
        <ele>65.800003051758</ele>
        <time>2016-01-04T20:43:47Z</time>
      </trkpt>
      <trkpt lat="48.87284" lon="2.28943">
        <ele>65.599998474121</ele>
        <time>2016-01-04T20:43:48Z</time>
      </trkpt>
      <trkpt lat="48.87286" lon="2.28973">
        <ele>64.800003051758</ele>
        <time>2016-01-04T20:43:52Z</time>
      </trkpt>
      <trkpt lat="48.87287" lon="2.2898">
        <ele>64.599998474121</ele>
        <time>2016-01-04T20:43:53Z</time>
      </trkpt>
      <trkpt lat="48.8729" lon="2.29011">
        <ele>65.599998474121</ele>
        <time>2016-01-04T20:43:57Z</time>
      </trkpt>
      <trkpt lat="48.87293" lon="2.29042">
        <ele>67.400001525879</ele>
        <time>2016-01-04T20:44:01Z</time>
      </trkpt>
      <trkpt lat="48.87295" lon="2.29056">
        <ele>68.400001525879</ele>
        <time>2016-01-04T20:44:03Z</time>
      </trkpt>
      <trkpt lat="48.87296" lon="2.2907">
        <ele>69.199996948242</ele>
        <time>2016-01-04T20:44:05Z</time>
      </trkpt>
      <trkpt lat="48.873" lon="2.29098">
        <ele>69.400001525879</ele>
        <time>2016-01-04T20:44:09Z</time>
      </trkpt>
      <trkpt lat="48.87301" lon="2.29104">
        <ele>69.400001525879</ele>
        <time>2016-01-04T20:44:10Z</time>
      </trkpt>
      <trkpt lat="48.87305" lon="2.29128">
        <ele>70.199996948242</ele>
        <time>2016-01-04T20:44:14Z</time>
      </trkpt>
      <trkpt lat="48.87308" lon="2.29139">
        <ele>70.599998474121</ele>
        <time>2016-01-04T20:44:16Z</time>
      </trkpt>
      <trkpt lat="48.87318" lon="2.29159">
        <ele>71</ele>
        <time>2016-01-04T20:44:20Z</time>
      </trkpt>
      <trkpt lat="48.87331" lon="2.29186">
        <ele>69.800003051758</ele>
        <time>2016-01-04T20:44:25Z</time>
      </trkpt>
      <trkpt lat="48.87337" lon="2.292">
        <ele>69.199996948242</ele>
        <time>2016-01-04T20:44:28Z</time>
      </trkpt>
      <trkpt lat="48.87345" lon="2.29226">
        <ele>68.199996948242</ele>
        <time>2016-01-04T20:44:34Z</time>
      </trkpt>
      <trkpt lat="48.87347" lon="2.29231">
        <ele>68</ele>
        <time>2016-01-04T20:44:35Z</time>
      </trkpt>
      <trkpt lat="48.87348" lon="2.29238">
        <ele>67.800003051758</ele>
        <time>2016-01-04T20:44:37Z</time>
      </trkpt>
      <trkpt lat="48.87356" lon="2.2926">
        <ele>66.599998474121</ele>
        <time>2016-01-04T20:44:58Z</time>
      </trkpt>
      <trkpt lat="48.87359" lon="2.2926">
        <ele>66.599998474121</ele>
        <time>2016-01-04T20:46:51Z</time>
      </trkpt>
      <trkpt lat="48.87356" lon="2.29279">
        <ele>66.199996948242</ele>
        <time>2016-01-04T20:48:32Z</time>
      </trkpt>
      <trkpt lat="48.87339" lon="2.29289">
        <ele>67.400001525879</ele>
        <time>2016-01-04T20:48:43Z</time>
      </trkpt>
      <trkpt lat="48.87322" lon="2.29304">
        <ele>68</ele>
        <time>2016-01-04T20:48:52Z</time>
      </trkpt>
      <trkpt lat="48.87305" lon="2.29318">
        <ele>67.199996948242</ele>
        <time>2016-01-04T20:49:00Z</time>
      </trkpt>
      <trkpt lat="48.87291" lon="2.29326">
        <ele>67</ele>
        <time>2016-01-04T20:49:31Z</time>
      </trkpt>
      <trkpt lat="48.87292" lon="2.29326">
        <ele>66.800003051758</ele>
        <time>2016-01-04T20:49:57Z</time>
      </trkpt>
      <trkpt lat="48.87305" lon="2.2932">
        <ele>67</ele>
        <time>2016-01-04T20:50:48Z</time>
      </trkpt>
      <trkpt lat="48.87291" lon="2.29333">
        <ele>66.599998474121</ele>
        <time>2016-01-04T20:51:33Z</time>
      </trkpt>
      <trkpt lat="48.87275" lon="2.29351">
        <ele>66.599998474121</ele>
        <time>2016-01-04T20:51:47Z</time>
      </trkpt>
      <trkpt lat="48.87259" lon="2.29368">
        <ele>66.199996948242</ele>
        <time>2016-01-04T20:51:54Z</time>
      </trkpt>
      <trkpt lat="48.87252" lon="2.29396">
        <ele>65.599998474121</ele>
        <time>2016-01-04T20:52:00Z</time>
      </trkpt>
      <trkpt lat="48.87247" lon="2.29426">
        <ele>65</ele>
        <time>2016-01-04T20:52:06Z</time>
      </trkpt>
      <trkpt lat="48.87241" lon="2.29455">
        <ele>64.400001525879</ele>
        <time>2016-01-04T20:52:13Z</time>
      </trkpt>
      <trkpt lat="48.87241" lon="2.29483">
        <ele>64.199996948242</ele>
        <time>2016-01-04T20:52:20Z</time>
      </trkpt>
      <trkpt lat="48.87238" lon="2.295">
        <ele>64.199996948242</ele>
        <time>2016-01-04T20:52:25Z</time>
      </trkpt>
      <trkpt lat="48.87232" lon="2.29516">
        <ele>64</ele>
        <time>2016-01-04T20:52:45Z</time>
      </trkpt>
      <trkpt lat="48.87232" lon="2.29544">
        <ele>63.400001525879</ele>
        <time>2016-01-04T20:52:52Z</time>
      </trkpt>
      <trkpt lat="48.87239" lon="2.29573">
        <ele>63</ele>
        <time>2016-01-04T20:53:00Z</time>
      </trkpt>
      <trkpt lat="48.8725" lon="2.29596">
        <ele>63.20000076294</ele>
        <time>2016-01-04T20:53:05Z</time>
      </trkpt>
      <trkpt lat="48.8726" lon="2.2962">
        <ele>63.79999923706</ele>
        <time>2016-01-04T20:53:11Z</time>
      </trkpt>
      <trkpt lat="48.87273" lon="2.2964">
        <ele>63.79999923706</ele>
        <time>2016-01-04T20:53:17Z</time>
      </trkpt>
      <trkpt lat="48.87284" lon="2.29662">
        <ele>64.599998474121</ele>
        <time>2016-01-04T20:53:22Z</time>
      </trkpt>
      <trkpt lat="48.87298" lon="2.2968">
        <ele>64.400001525879</ele>
        <time>2016-01-04T20:53:28Z</time>
      </trkpt>
      <trkpt lat="48.87303" lon="2.29687">
        <ele>64.199996948242</ele>
        <time>2016-01-04T20:53:32Z</time>
      </trkpt>
      <trkpt lat="48.87303" lon="2.29698">
        <ele>64.599998474121</ele>
        <time>2016-01-04T20:54:22Z</time>
      </trkpt>
      <trkpt lat="48.87302" lon="2.29695">
        <ele>64.400001525879</ele>
        <time>2016-01-04T20:55:52Z</time>
      </trkpt>
      <trkpt lat="48.87298" lon="2.29717">
        <ele>66.199996948242</ele>
        <time>2016-01-04T20:56:36Z</time>
      </trkpt>
      <trkpt lat="48.87287" lon="2.2974">
        <ele>68.400001525879</ele>
        <time>2016-01-04T20:56:44Z</time>
      </trkpt>
      <trkpt lat="48.87275" lon="2.29764">
        <ele>69.400001525879</ele>
        <time>2016-01-04T20:56:51Z</time>
      </trkpt>
      <trkpt lat="48.87264" lon="2.29786">
        <ele>68.599998474121</ele>
        <time>2016-01-04T20:56:58Z</time>
      </trkpt>
      <trkpt lat="48.87256" lon="2.29812">
        <ele>67.800003051758</ele>
        <time>2016-01-04T20:57:04Z</time>
      </trkpt>
      <trkpt lat="48.87249" lon="2.29838">
        <ele>67.400001525879</ele>
        <time>2016-01-04T20:57:09Z</time>
      </trkpt>
      <trkpt lat="48.8724" lon="2.29863">
        <ele>66.599998474121</ele>
        <time>2016-01-04T20:57:13Z</time>
      </trkpt>
      <trkpt lat="48.87233" lon="2.29888">
        <ele>65.400001525879</ele>
        <time>2016-01-04T20:57:17Z</time>
      </trkpt>
      <trkpt lat="48.87238" lon="2.29925">
        <ele>63.79999923706</ele>
        <time>2016-01-04T20:57:23Z</time>
      </trkpt>
      <trkpt lat="48.87226" lon="2.29951">
        <ele>63.599998474121</ele>
        <time>2016-01-04T20:57:29Z</time>
      </trkpt>
      <trkpt lat="48.8722" lon="2.29978">
        <ele>62.20000076294</ele>
        <time>2016-01-04T20:57:33Z</time>
      </trkpt>
      <trkpt lat="48.87214" lon="2.3001">
        <ele>61.79999923706</ele>
        <time>2016-01-04T20:57:38Z</time>
      </trkpt>
      <trkpt lat="48.87209" lon="2.30031">
        <ele>61.20000076294</ele>
        <time>2016-01-04T20:57:42Z</time>
      </trkpt>
      <trkpt lat="48.87208" lon="2.30059">
        <ele>59.79999923706</ele>
        <time>2016-01-04T20:57:47Z</time>
      </trkpt>
      <trkpt lat="48.87201" lon="2.30075">
        <ele>58.400001525879</ele>
        <time>2016-01-04T20:57:51Z</time>
      </trkpt>
      <trkpt lat="48.87188" lon="2.30101">
        <ele>56.599998474121</ele>
        <time>2016-01-04T20:57:56Z</time>
      </trkpt>
      <trkpt lat="48.87177" lon="2.30125">
        <ele>56.20000076294</ele>
        <time>2016-01-04T20:58:01Z</time>
      </trkpt>
      <trkpt lat="48.87167" lon="2.30155">
        <ele>55</ele>
        <time>2016-01-04T20:58:06Z</time>
      </trkpt>
      <trkpt lat="48.8716" lon="2.30185">
        <ele>54</ele>
        <time>2016-01-04T20:58:11Z</time>
      </trkpt>
      <trkpt lat="48.87152" lon="2.30212">
        <ele>53.599998474121</ele>
        <time>2016-01-04T20:58:15Z</time>
      </trkpt>
      <trkpt lat="48.87153" lon="2.30234">
        <ele>54</ele>
        <time>2016-01-04T20:58:21Z</time>
      </trkpt>
      <trkpt lat="48.8715" lon="2.30258">
        <ele>54.400001525879</ele>
        <time>2016-01-04T20:58:42Z</time>
      </trkpt>
      <trkpt lat="48.87143" lon="2.30288">
        <ele>54.79999923706</ele>
        <time>2016-01-04T20:58:48Z</time>
      </trkpt>
      <trkpt lat="48.87137" lon="2.3032">
        <ele>55.400001525879</ele>
        <time>2016-01-04T20:58:54Z</time>
      </trkpt>
      <trkpt lat="48.87127" lon="2.30337">
        <ele>55.599998474121</ele>
        <time>2016-01-04T20:58:58Z</time>
      </trkpt>
      <trkpt lat="48.87115" lon="2.30358">
        <ele>55.400001525879</ele>
        <time>2016-01-04T20:59:02Z</time>
      </trkpt>
      <trkpt lat="48.87111" lon="2.30389">
        <ele>55.20000076294</ele>
        <time>2016-01-04T20:59:06Z</time>
      </trkpt>
      <trkpt lat="48.87104" lon="2.30415">
        <ele>55</ele>
        <time>2016-01-04T20:59:10Z</time>
      </trkpt>
      <trkpt lat="48.87094" lon="2.30435">
        <ele>54.400001525879</ele>
        <time>2016-01-04T20:59:14Z</time>
      </trkpt>
      <trkpt lat="48.87088" lon="2.30446">
        <ele>54</ele>
        <time>2016-01-04T20:59:16Z</time>
      </trkpt>
      <trkpt lat="48.87081" lon="2.3046">
        <ele>53.599998474121</ele>
        <time>2016-01-04T20:59:19Z</time>
      </trkpt>
      <trkpt lat="48.87076" lon="2.30476">
        <ele>53</ele>
        <time>2016-01-04T20:59:22Z</time>
      </trkpt>
      <trkpt lat="48.8707" lon="2.30485">
        <ele>52.20000076294</ele>
        <time>2016-01-04T20:59:24Z</time>
      </trkpt>
      <trkpt lat="48.87068" lon="2.30514">
        <ele>51.400001525879</ele>
        <time>2016-01-04T20:59:28Z</time>
      </trkpt>
      <trkpt lat="48.87065" lon="2.30529">
        <ele>51.20000076294</ele>
        <time>2016-01-04T20:59:30Z</time>
      </trkpt>
      <trkpt lat="48.87058" lon="2.30559">
        <ele>49.599998474121</ele>
        <time>2016-01-04T20:59:35Z</time>
      </trkpt>
      <trkpt lat="48.87051" lon="2.30586">
        <ele>48.20000076294</ele>
        <time>2016-01-04T20:59:41Z</time>
      </trkpt>
      <trkpt lat="48.87049" lon="2.306">
        <ele>48</ele>
        <time>2016-01-04T20:59:46Z</time>
      </trkpt>
      <trkpt lat="48.87037" lon="2.30625">
        <ele>49</ele>
        <time>2016-01-04T20:59:54Z</time>
      </trkpt>
      <trkpt lat="48.87028" lon="2.30652">
        <ele>50.400001525879</ele>
        <time>2016-01-04T20:59:57Z</time>
      </trkpt>
      <trkpt lat="48.87023" lon="2.30661">
        <ele>50.79999923706</ele>
        <time>2016-01-04T20:59:59Z</time>
      </trkpt>
      <trkpt lat="48.87016" lon="2.30673">
        <ele>50.79999923706</ele>
        <time>2016-01-04T21:00:02Z</time>
      </trkpt>
      <trkpt lat="48.87001" lon="2.30691">
        <ele>50.400001525879</ele>
        <time>2016-01-04T21:00:08Z</time>
      </trkpt>
      <trkpt lat="48.86993" lon="2.30717">
        <ele>50</ele>
        <time>2016-01-04T21:00:13Z</time>
      </trkpt>
      <trkpt lat="48.86984" lon="2.30747">
        <ele>46.79999923706</ele>
        <time>2016-01-04T21:00:20Z</time>
      </trkpt>
      <trkpt lat="48.8698" lon="2.30773">
        <ele>44.400001525879</ele>
        <time>2016-01-04T21:00:26Z</time>
      </trkpt>
      <trkpt lat="48.86972" lon="2.308">
        <ele>43.400001525879</ele>
        <time>2016-01-04T21:00:31Z</time>
      </trkpt>
      <trkpt lat="48.86963" lon="2.30827">
        <ele>43.20000076294</ele>
        <time>2016-01-04T21:00:36Z</time>
      </trkpt>
      <trkpt lat="48.86955" lon="2.30852">
        <ele>43</ele>
        <time>2016-01-04T21:00:41Z</time>
      </trkpt>
      <trkpt lat="48.86943" lon="2.30858">
        <ele>43</ele>
        <time>2016-01-04T21:00:47Z</time>
      </trkpt>
      <trkpt lat="48.86931" lon="2.30866">
        <ele>43.20000076294</ele>
        <time>2016-01-04T21:02:02Z</time>
      </trkpt>
      <trkpt lat="48.86923" lon="2.30891">
        <ele>43.20000076294</ele>
        <time>2016-01-04T21:02:10Z</time>
      </trkpt>
      <trkpt lat="48.86932" lon="2.30902">
        <ele>43</ele>
        <time>2016-01-04T21:02:47Z</time>
      </trkpt>
      <trkpt lat="48.86932" lon="2.30904">
        <ele>43</ele>
        <time>2016-01-04T21:02:48Z</time>
      </trkpt>
      <trkpt lat="48.86943" lon="2.30926">
        <ele>43.20000076294</ele>
        <time>2016-01-04T21:02:55Z</time>
      </trkpt>
      <trkpt lat="48.86956" lon="2.30948">
        <ele>44</ele>
        <time>2016-01-04T21:03:02Z</time>
      </trkpt>
      <trkpt lat="48.86963" lon="2.30979">
        <ele>44.599998474121</ele>
        <time>2016-01-04T21:03:08Z</time>
      </trkpt>
      <trkpt lat="48.86965" lon="2.31007">
        <ele>45</ele>
        <time>2016-01-04T21:03:16Z</time>
      </trkpt>
      <trkpt lat="48.86961" lon="2.31037">
        <ele>45</ele>
        <time>2016-01-04T21:03:24Z</time>
      </trkpt>
      <trkpt lat="48.86954" lon="2.31066">
        <ele>44.599998474121</ele>
        <time>2016-01-04T21:03:30Z</time>
      </trkpt>
      <trkpt lat="48.86946" lon="2.31083">
        <ele>44.20000076294</ele>
        <time>2016-01-04T21:03:37Z</time>
      </trkpt>
      <trkpt lat="48.8695" lon="2.31099">
        <ele>43.79999923706</ele>
        <time>2016-01-04T21:03:56Z</time>
      </trkpt>
      <trkpt lat="48.8696" lon="2.31122">
        <ele>43.20000076294</ele>
        <time>2016-01-04T21:04:01Z</time>
      </trkpt>
      <trkpt lat="48.86975" lon="2.31148">
        <ele>42.79999923706</ele>
        <time>2016-01-04T21:04:06Z</time>
      </trkpt>
      <trkpt lat="48.86987" lon="2.31172">
        <ele>42.79999923706</ele>
        <time>2016-01-04T21:04:11Z</time>
      </trkpt>
      <trkpt lat="48.86999" lon="2.31194">
        <ele>43.20000076294</ele>
        <time>2016-01-04T21:04:15Z</time>
      </trkpt>
      <trkpt lat="48.87011" lon="2.31217">
        <ele>43.599998474121</ele>
        <time>2016-01-04T21:04:19Z</time>
      </trkpt>
      <trkpt lat="48.87021" lon="2.31243">
        <ele>44</ele>
        <time>2016-01-04T21:04:23Z</time>
      </trkpt>
      <trkpt lat="48.87035" lon="2.3127">
        <ele>43.79999923706</ele>
        <time>2016-01-04T21:04:27Z</time>
      </trkpt>
      <trkpt lat="48.87048" lon="2.31297">
        <ele>43.400001525879</ele>
        <time>2016-01-04T21:04:31Z</time>
      </trkpt>
      <trkpt lat="48.87065" lon="2.31322">
        <ele>43</ele>
        <time>2016-01-04T21:04:35Z</time>
      </trkpt>
      <trkpt lat="48.87083" lon="2.31342">
        <ele>42.79999923706</ele>
        <time>2016-01-04T21:04:39Z</time>
      </trkpt>
      <trkpt lat="48.87104" lon="2.31359">
        <ele>42.79999923706</ele>
        <time>2016-01-04T21:04:43Z</time>
      </trkpt>
      <trkpt lat="48.87123" lon="2.31377">
        <ele>42.79999923706</ele>
        <time>2016-01-04T21:04:47Z</time>
      </trkpt>
      <trkpt lat="48.87143" lon="2.31395">
        <ele>42.599998474121</ele>
        <time>2016-01-04T21:04:51Z</time>
      </trkpt>
      <trkpt lat="48.87151" lon="2.31405">
        <ele>42.79999923706</ele>
        <time>2016-01-04T21:04:53Z</time>
      </trkpt>
      <trkpt lat="48.87166" lon="2.31423">
        <ele>42.79999923706</ele>
        <time>2016-01-04T21:04:57Z</time>
      </trkpt>
      <trkpt lat="48.87184" lon="2.31437">
        <ele>43</ele>
        <time>2016-01-04T21:05:01Z</time>
      </trkpt>
      <trkpt lat="48.87203" lon="2.31449">
        <ele>43.20000076294</ele>
        <time>2016-01-04T21:05:05Z</time>
      </trkpt>
      <trkpt lat="48.87217" lon="2.31459">
        <ele>43.20000076294</ele>
        <time>2016-01-04T21:05:08Z</time>
      </trkpt>
      <trkpt lat="48.87235" lon="2.31471">
        <ele>43.599998474121</ele>
        <time>2016-01-04T21:05:12Z</time>
      </trkpt>
      <trkpt lat="48.87252" lon="2.31484">
        <ele>43.79999923706</ele>
        <time>2016-01-04T21:05:16Z</time>
      </trkpt>
      <trkpt lat="48.8727" lon="2.31494">
        <ele>44</ele>
        <time>2016-01-04T21:05:19Z</time>
      </trkpt>
      <trkpt lat="48.87271" lon="2.31501">
        <ele>44</ele>
        <time>2016-01-04T21:05:20Z</time>
      </trkpt>
      <trkpt lat="48.87282" lon="2.31527">
        <ele>44.599998474121</ele>
        <time>2016-01-04T21:05:24Z</time>
      </trkpt>
      <trkpt lat="48.87285" lon="2.31534">
        <ele>44.79999923706</ele>
        <time>2016-01-04T21:05:25Z</time>
      </trkpt>
      <trkpt lat="48.87294" lon="2.3156">
        <ele>45.20000076294</ele>
        <time>2016-01-04T21:05:29Z</time>
      </trkpt>
      <trkpt lat="48.87301" lon="2.31587">
        <ele>45.400001525879</ele>
        <time>2016-01-04T21:05:34Z</time>
      </trkpt>
      <trkpt lat="48.87303" lon="2.31591">
        <ele>45.20000076294</ele>
        <time>2016-01-04T21:05:35Z</time>
      </trkpt>
      <trkpt lat="48.87297" lon="2.31611">
        <ele>44.20000076294</ele>
        <time>2016-01-04T21:05:41Z</time>
      </trkpt>
      <trkpt lat="48.87302" lon="2.31638">
        <ele>43.599998474121</ele>
        <time>2016-01-04T21:05:46Z</time>
      </trkpt>
      <trkpt lat="48.87309" lon="2.31665">
        <ele>43</ele>
        <time>2016-01-04T21:05:50Z</time>
      </trkpt>
      <trkpt lat="48.87316" lon="2.31694">
        <ele>42.599998474121</ele>
        <time>2016-01-04T21:05:54Z</time>
      </trkpt>
      <trkpt lat="48.87325" lon="2.31722">
        <ele>42.400001525879</ele>
        <time>2016-01-04T21:05:58Z</time>
      </trkpt>
      <trkpt lat="48.87334" lon="2.31751">
        <ele>42.599998474121</ele>
        <time>2016-01-04T21:06:02Z</time>
      </trkpt>
      <trkpt lat="48.87344" lon="2.31778">
        <ele>43</ele>
        <time>2016-01-04T21:06:06Z</time>
      </trkpt>
      <trkpt lat="48.87348" lon="2.31807">
        <ele>43.599998474121</ele>
        <time>2016-01-04T21:06:10Z</time>
      </trkpt>
      <trkpt lat="48.87351" lon="2.31836">
        <ele>44.20000076294</ele>
        <time>2016-01-04T21:06:14Z</time>
      </trkpt>
      <trkpt lat="48.87349" lon="2.31851">
        <ele>44.599998474121</ele>
        <time>2016-01-04T21:06:16Z</time>
      </trkpt>
      <trkpt lat="48.8735" lon="2.31865">
        <ele>45</ele>
        <time>2016-01-04T21:06:18Z</time>
      </trkpt>
      <trkpt lat="48.8735" lon="2.31895">
        <ele>45.79999923706</ele>
        <time>2016-01-04T21:06:22Z</time>
      </trkpt>
      <trkpt lat="48.87353" lon="2.31922">
        <ele>45.79999923706</ele>
        <time>2016-01-04T21:06:26Z</time>
      </trkpt>
      <trkpt lat="48.87356" lon="2.31949">
        <ele>45.20000076294</ele>
        <time>2016-01-04T21:06:30Z</time>
      </trkpt>
      <trkpt lat="48.87357" lon="2.31983">
        <ele>44.400001525879</ele>
        <time>2016-01-04T21:06:35Z</time>
      </trkpt>
      <trkpt lat="48.87359" lon="2.31989">
        <ele>44.20000076294</ele>
        <time>2016-01-04T21:06:36Z</time>
      </trkpt>
      <trkpt lat="48.87363" lon="2.32018">
        <ele>44.400001525879</ele>
        <time>2016-01-04T21:06:40Z</time>
      </trkpt>
      <trkpt lat="48.87365" lon="2.32046">
        <ele>45</ele>
        <time>2016-01-04T21:06:44Z</time>
      </trkpt>
      <trkpt lat="48.87365" lon="2.3207">
        <ele>45.20000076294</ele>
        <time>2016-01-04T21:06:48Z</time>
      </trkpt>
      <trkpt lat="48.87362" lon="2.32099">
        <ele>45.400001525879</ele>
        <time>2016-01-04T21:06:53Z</time>
      </trkpt>
      <trkpt lat="48.87359" lon="2.32115">
        <ele>45.599998474121</ele>
        <time>2016-01-04T21:06:56Z</time>
      </trkpt>
      <trkpt lat="48.87354" lon="2.32142">
        <ele>45.79999923706</ele>
        <time>2016-01-04T21:07:01Z</time>
      </trkpt>
      <trkpt lat="48.87354" lon="2.32147">
        <ele>45.79999923706</ele>
        <time>2016-01-04T21:07:02Z</time>
      </trkpt>
      <trkpt lat="48.87354" lon="2.32159">
        <ele>46</ele>
        <time>2016-01-04T21:07:04Z</time>
      </trkpt>
      <trkpt lat="48.87351" lon="2.32193">
        <ele>45</ele>
        <time>2016-01-04T21:07:09Z</time>
      </trkpt>
      <trkpt lat="48.87348" lon="2.32224">
        <ele>44</ele>
        <time>2016-01-04T21:07:14Z</time>
      </trkpt>
      <trkpt lat="48.87347" lon="2.32227">
        <ele>43.79999923706</ele>
        <time>2016-01-04T21:07:15Z</time>
      </trkpt>
      <trkpt lat="48.87336" lon="2.32242">
        <ele>44</ele>
        <time>2016-01-04T21:07:19Z</time>
      </trkpt>
      <trkpt lat="48.87329" lon="2.32263">
        <ele>44.20000076294</ele>
        <time>2016-01-04T21:07:23Z</time>
      </trkpt>
      <trkpt lat="48.87322" lon="2.3229">
        <ele>44.599998474121</ele>
        <time>2016-01-04T21:07:27Z</time>
      </trkpt>
      <trkpt lat="48.87318" lon="2.32319">
        <ele>45.20000076294</ele>
        <time>2016-01-04T21:07:32Z</time>
      </trkpt>
      <trkpt lat="48.87317" lon="2.32327">
        <ele>45.400001525879</ele>
        <time>2016-01-04T21:07:34Z</time>
      </trkpt>
      <trkpt lat="48.87311" lon="2.3234">
        <ele>46</ele>
        <time>2016-01-04T21:07:37Z</time>
      </trkpt>
      <trkpt lat="48.87298" lon="2.32361">
        <ele>47</ele>
        <time>2016-01-04T21:07:42Z</time>
      </trkpt>
      <trkpt lat="48.87297" lon="2.3238">
        <ele>47.20000076294</ele>
        <time>2016-01-04T21:07:46Z</time>
      </trkpt>
      <trkpt lat="48.87301" lon="2.3241">
        <ele>47</ele>
        <time>2016-01-04T21:07:51Z</time>
      </trkpt>
      <trkpt lat="48.87297" lon="2.32443">
        <ele>47.79999923706</ele>
        <time>2016-01-04T21:07:57Z</time>
      </trkpt>
      <trkpt lat="48.87291" lon="2.32472">
        <ele>48.20000076294</ele>
        <time>2016-01-04T21:08:02Z</time>
      </trkpt>
      <trkpt lat="48.87291" lon="2.32506">
        <ele>49</ele>
        <time>2016-01-04T21:08:09Z</time>
      </trkpt>
      <trkpt lat="48.8732" lon="2.32536">
        <ele>49.20000076294</ele>
        <time>2016-01-04T21:08:31Z</time>
      </trkpt>
      <trkpt lat="48.87322" lon="2.32539">
        <ele>49.400001525879</ele>
        <time>2016-01-04T21:08:33Z</time>
      </trkpt>
      <trkpt lat="48.87336" lon="2.32552">
        <ele>49.400001525879</ele>
        <time>2016-01-04T21:09:06Z</time>
      </trkpt>
      <trkpt lat="48.87339" lon="2.3258">
        <ele>49.599998474121</ele>
        <time>2016-01-04T21:09:17Z</time>
      </trkpt>
      <trkpt lat="48.87333" lon="2.32605">
        <ele>48.79999923706</ele>
        <time>2016-01-04T21:09:24Z</time>
      </trkpt>
      <trkpt lat="48.87327" lon="2.32632">
        <ele>48</ele>
        <time>2016-01-04T21:09:30Z</time>
      </trkpt>
      <trkpt lat="48.87327" lon="2.32658">
        <ele>48.20000076294</ele>
        <time>2016-01-04T21:09:45Z</time>
      </trkpt>
      <trkpt lat="48.87325" lon="2.3269">
        <ele>48.400001525879</ele>
        <time>2016-01-04T21:09:56Z</time>
      </trkpt>
      <trkpt lat="48.87322" lon="2.32697">
        <ele>48.400001525879</ele>
        <time>2016-01-04T21:09:57Z</time>
      </trkpt>
      <trkpt lat="48.87315" lon="2.32717">
        <ele>48.79999923706</ele>
        <time>2016-01-04T21:10:01Z</time>
      </trkpt>
      <trkpt lat="48.87309" lon="2.32745">
        <ele>50.20000076294</ele>
        <time>2016-01-04T21:10:06Z</time>
      </trkpt>
      <trkpt lat="48.87303" lon="2.32777">
        <ele>50.599998474121</ele>
        <time>2016-01-04T21:10:11Z</time>
      </trkpt>
      <trkpt lat="48.87298" lon="2.32808">
        <ele>50</ele>
        <time>2016-01-04T21:10:16Z</time>
      </trkpt>
      <trkpt lat="48.87301" lon="2.32832">
        <ele>49.400001525879</ele>
        <time>2016-01-04T21:10:19Z</time>
      </trkpt>
      <trkpt lat="48.87299" lon="2.32852">
        <ele>49.79999923706</ele>
        <time>2016-01-04T21:10:22Z</time>
      </trkpt>
      <trkpt lat="48.87304" lon="2.32885">
        <ele>50</ele>
        <time>2016-01-04T21:10:26Z</time>
      </trkpt>
      <trkpt lat="48.87306" lon="2.329">
        <ele>50</ele>
        <time>2016-01-04T21:10:28Z</time>
      </trkpt>
      <trkpt lat="48.87307" lon="2.32923">
        <ele>49.599998474121</ele>
        <time>2016-01-04T21:10:31Z</time>
      </trkpt>
      <trkpt lat="48.87302" lon="2.3295">
        <ele>48.599998474121</ele>
        <time>2016-01-04T21:10:35Z</time>
      </trkpt>
      <trkpt lat="48.87292" lon="2.3298">
        <ele>47.599998474121</ele>
        <time>2016-01-04T21:10:40Z</time>
      </trkpt>
      <trkpt lat="48.87283" lon="2.33004">
        <ele>47</ele>
        <time>2016-01-04T21:10:44Z</time>
      </trkpt>
      <trkpt lat="48.87276" lon="2.33035">
        <ele>45.400001525879</ele>
        <time>2016-01-04T21:10:49Z</time>
      </trkpt>
      <trkpt lat="48.87275" lon="2.33063">
        <ele>43.79999923706</ele>
        <time>2016-01-04T21:10:53Z</time>
      </trkpt>
      <trkpt lat="48.87275" lon="2.33092">
        <ele>44</ele>
        <time>2016-01-04T21:10:59Z</time>
      </trkpt>
      <trkpt lat="48.87274" lon="2.33095">
        <ele>44.20000076294</ele>
        <time>2016-01-04T21:11:00Z</time>
      </trkpt>
      <trkpt lat="48.87294" lon="2.33117">
        <ele>46</ele>
        <time>2016-01-04T21:11:04Z</time>
      </trkpt>
      <trkpt lat="48.87295" lon="2.33121">
        <ele>46.400001525879</ele>
        <time>2016-01-04T21:11:05Z</time>
      </trkpt>
      <trkpt lat="48.87297" lon="2.33124">
        <ele>46.599998474121</ele>
        <time>2016-01-04T21:11:06Z</time>
      </trkpt>
      <trkpt lat="48.87308" lon="2.33141">
        <ele>48</ele>
        <time>2016-01-04T21:11:12Z</time>
      </trkpt>
      <trkpt lat="48.87326" lon="2.33134">
        <ele>47.599998474121</ele>
        <time>2016-01-04T21:11:19Z</time>
      </trkpt>
      <trkpt lat="48.87344" lon="2.33119">
        <ele>47.400001525879</ele>
        <time>2016-01-04T21:11:25Z</time>
      </trkpt>
      <trkpt lat="48.87362" lon="2.33116">
        <ele>47.79999923706</ele>
        <time>2016-01-04T21:11:34Z</time>
      </trkpt>
      <trkpt lat="48.8738" lon="2.33115">
        <ele>48.20000076294</ele>
        <time>2016-01-04T21:11:44Z</time>
      </trkpt>
      <trkpt lat="48.87403" lon="2.3313">
        <ele>49.400001525879</ele>
        <time>2016-01-04T21:11:48Z</time>
      </trkpt>
      <trkpt lat="48.87415" lon="2.33157">
        <ele>51</ele>
        <time>2016-01-04T21:11:52Z</time>
      </trkpt>
      <trkpt lat="48.87423" lon="2.33184">
        <ele>51.20000076294</ele>
        <time>2016-01-04T21:11:58Z</time>
      </trkpt>
      <trkpt lat="48.87431" lon="2.3321">
        <ele>50.599998474121</ele>
        <time>2016-01-04T21:12:04Z</time>
      </trkpt>
      <trkpt lat="48.87434" lon="2.33238">
        <ele>50</ele>
        <time>2016-01-04T21:12:08Z</time>
      </trkpt>
      <trkpt lat="48.87435" lon="2.33271">
        <ele>48.79999923706</ele>
        <time>2016-01-04T21:12:13Z</time>
      </trkpt>
      <trkpt lat="48.8744" lon="2.33277">
        <ele>48.599998474121</ele>
        <time>2016-01-04T21:12:14Z</time>
      </trkpt>
      <trkpt lat="48.87445" lon="2.33309">
        <ele>47.20000076294</ele>
        <time>2016-01-04T21:12:18Z</time>
      </trkpt>
      <trkpt lat="48.87448" lon="2.3334">
        <ele>46</ele>
        <time>2016-01-04T21:12:22Z</time>
      </trkpt>
      <trkpt lat="48.87445" lon="2.33369">
        <ele>46</ele>
        <time>2016-01-04T21:12:26Z</time>
      </trkpt>
      <trkpt lat="48.87441" lon="2.33401">
        <ele>46</ele>
        <time>2016-01-04T21:12:31Z</time>
      </trkpt>
      <trkpt lat="48.87443" lon="2.33408">
        <ele>46</ele>
        <time>2016-01-04T21:12:32Z</time>
      </trkpt>
      <trkpt lat="48.87438" lon="2.33438">
        <ele>46.20000076294</ele>
        <time>2016-01-04T21:12:36Z</time>
      </trkpt>
      <trkpt lat="48.87438" lon="2.33463">
        <ele>46.599998474121</ele>
        <time>2016-01-04T21:12:39Z</time>
      </trkpt>
      <trkpt lat="48.87438" lon="2.33492">
        <ele>47</ele>
        <time>2016-01-04T21:12:43Z</time>
      </trkpt>
      <trkpt lat="48.87436" lon="2.33498">
        <ele>47.20000076294</ele>
        <time>2016-01-04T21:12:44Z</time>
      </trkpt>
      <trkpt lat="48.87431" lon="2.33528">
        <ele>48.400001525879</ele>
        <time>2016-01-04T21:12:49Z</time>
      </trkpt>
      <trkpt lat="48.87434" lon="2.33537">
        <ele>48.599998474121</ele>
        <time>2016-01-04T21:12:50Z</time>
      </trkpt>
      <trkpt lat="48.87436" lon="2.33567">
        <ele>49.599998474121</ele>
        <time>2016-01-04T21:12:54Z</time>
      </trkpt>
      <trkpt lat="48.87435" lon="2.336">
        <ele>49.599998474121</ele>
        <time>2016-01-04T21:12:58Z</time>
      </trkpt>
      <trkpt lat="48.87435" lon="2.33633">
        <ele>48.400001525879</ele>
        <time>2016-01-04T21:13:02Z</time>
      </trkpt>
      <trkpt lat="48.87437" lon="2.33663">
        <ele>47.20000076294</ele>
        <time>2016-01-04T21:13:06Z</time>
      </trkpt>
      <trkpt lat="48.87434" lon="2.3369">
        <ele>46.79999923706</ele>
        <time>2016-01-04T21:13:10Z</time>
      </trkpt>
      <trkpt lat="48.87433" lon="2.33721">
        <ele>46.20000076294</ele>
        <time>2016-01-04T21:13:14Z</time>
      </trkpt>
      <trkpt lat="48.87432" lon="2.33728">
        <ele>46</ele>
        <time>2016-01-04T21:13:15Z</time>
      </trkpt>
      <trkpt lat="48.87434" lon="2.33755">
        <ele>45.599998474121</ele>
        <time>2016-01-04T21:13:19Z</time>
      </trkpt>
      <trkpt lat="48.87431" lon="2.33783">
        <ele>46</ele>
        <time>2016-01-04T21:13:25Z</time>
      </trkpt>
      <trkpt lat="48.87427" lon="2.33793">
        <ele>46.400001525879</ele>
        <time>2016-01-04T21:13:28Z</time>
      </trkpt>
      <trkpt lat="48.87425" lon="2.33806">
        <ele>46.79999923706</ele>
        <time>2016-01-04T21:13:31Z</time>
      </trkpt>
      <trkpt lat="48.87424" lon="2.33837">
        <ele>46.400001525879</ele>
        <time>2016-01-04T21:13:36Z</time>
      </trkpt>
      <trkpt lat="48.87423" lon="2.33849">
        <ele>46.599998474121</ele>
        <time>2016-01-04T21:13:38Z</time>
      </trkpt>
      <trkpt lat="48.87418" lon="2.33876">
        <ele>47</ele>
        <time>2016-01-04T21:13:43Z</time>
      </trkpt>
      <trkpt lat="48.87422" lon="2.33906">
        <ele>47.20000076294</ele>
        <time>2016-01-04T21:13:49Z</time>
      </trkpt>
      <trkpt lat="48.87422" lon="2.33924">
        <ele>47.20000076294</ele>
        <time>2016-01-04T21:13:52Z</time>
      </trkpt>
      <trkpt lat="48.87413" lon="2.33951">
        <ele>47.400001525879</ele>
        <time>2016-01-04T21:13:58Z</time>
      </trkpt>
      <trkpt lat="48.87421" lon="2.33979">
        <ele>47.20000076294</ele>
        <time>2016-01-04T21:14:02Z</time>
      </trkpt>
      <trkpt lat="48.87419" lon="2.33988">
        <ele>47</ele>
        <time>2016-01-04T21:14:04Z</time>
      </trkpt>
      <trkpt lat="48.87416" lon="2.34011">
        <ele>46.79999923706</ele>
        <time>2016-01-04T21:14:08Z</time>
      </trkpt>
      <trkpt lat="48.87411" lon="2.34018">
        <ele>46.599998474121</ele>
        <time>2016-01-04T21:14:10Z</time>
      </trkpt>
      <trkpt lat="48.87415" lon="2.34033">
        <ele>46.79999923706</ele>
        <time>2016-01-04T21:14:13Z</time>
      </trkpt>
      <trkpt lat="48.87418" lon="2.34067">
        <ele>46.79999923706</ele>
        <time>2016-01-04T21:14:17Z</time>
      </trkpt>
      <trkpt lat="48.87418" lon="2.341">
        <ele>46.79999923706</ele>
        <time>2016-01-04T21:14:21Z</time>
      </trkpt>
      <trkpt lat="48.87419" lon="2.34116">
        <ele>46.79999923706</ele>
        <time>2016-01-04T21:14:23Z</time>
      </trkpt>
      <trkpt lat="48.87416" lon="2.34149">
        <ele>46.79999923706</ele>
        <time>2016-01-04T21:14:27Z</time>
      </trkpt>
      <trkpt lat="48.87411" lon="2.34178">
        <ele>46.599998474121</ele>
        <time>2016-01-04T21:14:31Z</time>
      </trkpt>
      <trkpt lat="48.87412" lon="2.34187">
        <ele>46.400001525879</ele>
        <time>2016-01-04T21:14:32Z</time>
      </trkpt>
      <trkpt lat="48.87413" lon="2.34215">
        <ele>45.79999923706</ele>
        <time>2016-01-04T21:14:36Z</time>
      </trkpt>
      <trkpt lat="48.87421" lon="2.34244">
        <ele>45.400001525879</ele>
        <time>2016-01-04T21:14:40Z</time>
      </trkpt>
      <trkpt lat="48.87425" lon="2.34273">
        <ele>45.400001525879</ele>
        <time>2016-01-04T21:14:44Z</time>
      </trkpt>
      <trkpt lat="48.87426" lon="2.34295">
        <ele>45.400001525879</ele>
        <time>2016-01-04T21:14:47Z</time>
      </trkpt>
      <trkpt lat="48.87425" lon="2.34308">
        <ele>45.400001525879</ele>
        <time>2016-01-04T21:14:49Z</time>
      </trkpt>
      <trkpt lat="48.87425" lon="2.34324">
        <ele>45.20000076294</ele>
        <time>2016-01-04T21:14:51Z</time>
      </trkpt>
      <trkpt lat="48.87423" lon="2.34353">
        <ele>45.400001525879</ele>
        <time>2016-01-04T21:14:55Z</time>
      </trkpt>
      <trkpt lat="48.87421" lon="2.34369">
        <ele>45.599998474121</ele>
        <time>2016-01-04T21:14:57Z</time>
      </trkpt>
      <trkpt lat="48.87421" lon="2.34392">
        <ele>46</ele>
        <time>2016-01-04T21:15:00Z</time>
      </trkpt>
      <trkpt lat="48.8742" lon="2.34424">
        <ele>46.400001525879</ele>
        <time>2016-01-04T21:15:04Z</time>
      </trkpt>
      <trkpt lat="48.8742" lon="2.3446">
        <ele>46</ele>
        <time>2016-01-04T21:15:08Z</time>
      </trkpt>
      <trkpt lat="48.8742" lon="2.34485">
        <ele>45.599998474121</ele>
        <time>2016-01-04T21:15:11Z</time>
      </trkpt>
      <trkpt lat="48.87417" lon="2.34509">
        <ele>45.79999923706</ele>
        <time>2016-01-04T21:15:14Z</time>
      </trkpt>
      <trkpt lat="48.87417" lon="2.34532">
        <ele>46.400001525879</ele>
        <time>2016-01-04T21:15:17Z</time>
      </trkpt>
      <trkpt lat="48.87419" lon="2.34566">
        <ele>47</ele>
        <time>2016-01-04T21:15:21Z</time>
      </trkpt>
      <trkpt lat="48.8742" lon="2.34602">
        <ele>47.400001525879</ele>
        <time>2016-01-04T21:15:25Z</time>
      </trkpt>
      <trkpt lat="48.87418" lon="2.34639">
        <ele>48</ele>
        <time>2016-01-04T21:15:29Z</time>
      </trkpt>
      <trkpt lat="48.87417" lon="2.34675">
        <ele>48.599998474121</ele>
        <time>2016-01-04T21:15:33Z</time>
      </trkpt>
      <trkpt lat="48.87414" lon="2.34709">
        <ele>49.400001525879</ele>
        <time>2016-01-04T21:15:37Z</time>
      </trkpt>
      <trkpt lat="48.87414" lon="2.34742">
        <ele>49.599998474121</ele>
        <time>2016-01-04T21:15:41Z</time>
      </trkpt>
      <trkpt lat="48.87416" lon="2.34776">
        <ele>49.79999923706</ele>
        <time>2016-01-04T21:15:45Z</time>
      </trkpt>
      <trkpt lat="48.87414" lon="2.34808">
        <ele>49.599998474121</ele>
        <time>2016-01-04T21:15:49Z</time>
      </trkpt>
      <trkpt lat="48.87413" lon="2.3484">
        <ele>48.400001525879</ele>
        <time>2016-01-04T21:15:53Z</time>
      </trkpt>
      <trkpt lat="48.87412" lon="2.34874">
        <ele>46.400001525879</ele>
        <time>2016-01-04T21:15:58Z</time>
      </trkpt>
      <trkpt lat="48.8741" lon="2.34881">
        <ele>46</ele>
        <time>2016-01-04T21:15:59Z</time>
      </trkpt>
      <trkpt lat="48.87405" lon="2.34912">
        <ele>45</ele>
        <time>2016-01-04T21:16:04Z</time>
      </trkpt>
      <trkpt lat="48.87401" lon="2.34939">
        <ele>45.79999923706</ele>
        <time>2016-01-04T21:16:08Z</time>
      </trkpt>
      <trkpt lat="48.87397" lon="2.34969">
        <ele>46.79999923706</ele>
        <time>2016-01-04T21:16:12Z</time>
      </trkpt>
      <trkpt lat="48.87394" lon="2.34996">
        <ele>47.400001525879</ele>
        <time>2016-01-04T21:16:16Z</time>
      </trkpt>
      <trkpt lat="48.87394" lon="2.35003">
        <ele>47.400001525879</ele>
        <time>2016-01-04T21:16:17Z</time>
      </trkpt>
      <trkpt lat="48.87392" lon="2.3502">
        <ele>47.400001525879</ele>
        <time>2016-01-04T21:16:20Z</time>
      </trkpt>
      <trkpt lat="48.87389" lon="2.35044">
        <ele>47.79999923706</ele>
        <time>2016-01-04T21:16:25Z</time>
      </trkpt>
      <trkpt lat="48.87379" lon="2.3507">
        <ele>48.400001525879</ele>
        <time>2016-01-04T21:16:30Z</time>
      </trkpt>
      <trkpt lat="48.87369" lon="2.35094">
        <ele>48.400001525879</ele>
        <time>2016-01-04T21:16:34Z</time>
      </trkpt>
      <trkpt lat="48.87364" lon="2.35114">
        <ele>48.599998474121</ele>
        <time>2016-01-04T21:16:37Z</time>
      </trkpt>
      <trkpt lat="48.87358" lon="2.35143">
        <ele>49</ele>
        <time>2016-01-04T21:16:41Z</time>
      </trkpt>
      <trkpt lat="48.87348" lon="2.3517">
        <ele>49</ele>
        <time>2016-01-04T21:16:45Z</time>
      </trkpt>
      <trkpt lat="48.87347" lon="2.35177">
        <ele>48.79999923706</ele>
        <time>2016-01-04T21:16:46Z</time>
      </trkpt>
      <trkpt lat="48.87334" lon="2.35199">
        <ele>48.400001525879</ele>
        <time>2016-01-04T21:16:50Z</time>
      </trkpt>
      <trkpt lat="48.8733" lon="2.35204">
        <ele>48.400001525879</ele>
        <time>2016-01-04T21:16:51Z</time>
      </trkpt>
      <trkpt lat="48.8732" lon="2.35217">
        <ele>48</ele>
        <time>2016-01-04T21:16:54Z</time>
      </trkpt>
      <trkpt lat="48.87311" lon="2.35228">
        <ele>47.400001525879</ele>
        <time>2016-01-04T21:16:57Z</time>
      </trkpt>
      <trkpt lat="48.873" lon="2.35244">
        <ele>46.400001525879</ele>
        <time>2016-01-04T21:17:01Z</time>
      </trkpt>
      <trkpt lat="48.87286" lon="2.35271">
        <ele>46.20000076294</ele>
        <time>2016-01-04T21:17:06Z</time>
      </trkpt>
      <trkpt lat="48.87274" lon="2.35299">
        <ele>46.599998474121</ele>
        <time>2016-01-04T21:17:11Z</time>
      </trkpt>
      <trkpt lat="48.8727" lon="2.3531">
        <ele>46.79999923706</ele>
        <time>2016-01-04T21:17:13Z</time>
      </trkpt>
      <trkpt lat="48.87257" lon="2.35336">
        <ele>47.400001525879</ele>
        <time>2016-01-04T21:17:18Z</time>
      </trkpt>
      <trkpt lat="48.87252" lon="2.35347">
        <ele>47.400001525879</ele>
        <time>2016-01-04T21:17:20Z</time>
      </trkpt>
      <trkpt lat="48.87243" lon="2.35361">
        <ele>47.400001525879</ele>
        <time>2016-01-04T21:17:23Z</time>
      </trkpt>
      <trkpt lat="48.87231" lon="2.35379">
        <ele>47.20000076294</ele>
        <time>2016-01-04T21:17:29Z</time>
      </trkpt>
      <trkpt lat="48.87264" lon="2.35416">
        <ele>46</ele>
        <time>2016-01-04T21:17:43Z</time>
      </trkpt>
      <trkpt lat="48.87265" lon="2.35444">
        <ele>46</ele>
        <time>2016-01-04T21:17:49Z</time>
      </trkpt>
      <trkpt lat="48.87261" lon="2.35455">
        <ele>46</ele>
        <time>2016-01-04T21:17:51Z</time>
      </trkpt>
      <trkpt lat="48.87252" lon="2.35485">
        <ele>45.79999923706</ele>
        <time>2016-01-04T21:17:56Z</time>
      </trkpt>
      <trkpt lat="48.87237" lon="2.35508">
        <ele>45.400001525879</ele>
        <time>2016-01-04T21:18:00Z</time>
      </trkpt>
      <trkpt lat="48.87226" lon="2.35532">
        <ele>45</ele>
        <time>2016-01-04T21:18:04Z</time>
      </trkpt>
      <trkpt lat="48.87214" lon="2.35556">
        <ele>45.400001525879</ele>
        <time>2016-01-04T21:18:09Z</time>
      </trkpt>
      <trkpt lat="48.8721" lon="2.3556">
        <ele>45.400001525879</ele>
        <time>2016-01-04T21:18:10Z</time>
      </trkpt>
      <trkpt lat="48.87211" lon="2.35579">
        <ele>45.79999923706</ele>
        <time>2016-01-04T21:18:13Z</time>
      </trkpt>
      <trkpt lat="48.87211" lon="2.35592">
        <ele>46.20000076294</ele>
        <time>2016-01-04T21:18:15Z</time>
      </trkpt>
      <trkpt lat="48.87203" lon="2.35623">
        <ele>47</ele>
        <time>2016-01-04T21:18:20Z</time>
      </trkpt>
      <trkpt lat="48.87195" lon="2.35654">
        <ele>47.79999923706</ele>
        <time>2016-01-04T21:18:25Z</time>
      </trkpt>
      <trkpt lat="48.87182" lon="2.35677">
        <ele>48.20000076294</ele>
        <time>2016-01-04T21:18:30Z</time>
      </trkpt>
      <trkpt lat="48.87181" lon="2.35691">
        <ele>48.599998474121</ele>
        <time>2016-01-04T21:18:34Z</time>
      </trkpt>
      <trkpt lat="48.87189" lon="2.35704">
        <ele>49</ele>
        <time>2016-01-04T21:18:55Z</time>
      </trkpt>
      <trkpt lat="48.87184" lon="2.35724">
        <ele>49.400001525879</ele>
        <time>2016-01-04T21:19:08Z</time>
      </trkpt>
      <trkpt lat="48.87169" lon="2.35746">
        <ele>49</ele>
        <time>2016-01-04T21:19:13Z</time>
      </trkpt>
      <trkpt lat="48.87152" lon="2.35763">
        <ele>46.79999923706</ele>
        <time>2016-01-04T21:19:17Z</time>
      </trkpt>
      <trkpt lat="48.87146" lon="2.35796">
        <ele>44.599998474121</ele>
        <time>2016-01-04T21:19:23Z</time>
      </trkpt>
      <trkpt lat="48.8714" lon="2.3583">
        <ele>45.400001525879</ele>
        <time>2016-01-04T21:19:29Z</time>
      </trkpt>
      <trkpt lat="48.87128" lon="2.3585">
        <ele>45.599998474121</ele>
        <time>2016-01-04T21:19:34Z</time>
      </trkpt>
      <trkpt lat="48.8711" lon="2.35874">
        <ele>48</ele>
        <time>2016-01-04T21:19:39Z</time>
      </trkpt>
      <trkpt lat="48.87093" lon="2.35894">
        <ele>49</ele>
        <time>2016-01-04T21:19:43Z</time>
      </trkpt>
      <trkpt lat="48.87077" lon="2.35918">
        <ele>48.599998474121</ele>
        <time>2016-01-04T21:19:47Z</time>
      </trkpt>
      <trkpt lat="48.87073" lon="2.35922">
        <ele>48.400001525879</ele>
        <time>2016-01-04T21:19:48Z</time>
      </trkpt>
      <trkpt lat="48.87056" lon="2.35945">
        <ele>47.599998474121</ele>
        <time>2016-01-04T21:19:52Z</time>
      </trkpt>
      <trkpt lat="48.87041" lon="2.35961">
        <ele>47.20000076294</ele>
        <time>2016-01-04T21:19:55Z</time>
      </trkpt>
      <trkpt lat="48.87028" lon="2.35983">
        <ele>47</ele>
        <time>2016-01-04T21:19:58Z</time>
      </trkpt>
      <trkpt lat="48.87016" lon="2.36004">
        <ele>47.20000076294</ele>
        <time>2016-01-04T21:20:01Z</time>
      </trkpt>
      <trkpt lat="48.87" lon="2.36027">
        <ele>47.79999923706</ele>
        <time>2016-01-04T21:20:05Z</time>
      </trkpt>
      <trkpt lat="48.86986" lon="2.36051">
        <ele>48.599998474121</ele>
        <time>2016-01-04T21:20:09Z</time>
      </trkpt>
      <trkpt lat="48.86981" lon="2.36056">
        <ele>48.599998474121</ele>
        <time>2016-01-04T21:20:10Z</time>
      </trkpt>
      <trkpt lat="48.86965" lon="2.36077">
        <ele>49.400001525879</ele>
        <time>2016-01-04T21:20:14Z</time>
      </trkpt>
      <trkpt lat="48.86952" lon="2.361">
        <ele>49.599998474121</ele>
        <time>2016-01-04T21:20:18Z</time>
      </trkpt>
      <trkpt lat="48.86943" lon="2.36117">
        <ele>49.20000076294</ele>
        <time>2016-01-04T21:20:21Z</time>
      </trkpt>
      <trkpt lat="48.8693" lon="2.36139">
        <ele>48</ele>
        <time>2016-01-04T21:20:25Z</time>
      </trkpt>
      <trkpt lat="48.86917" lon="2.36162">
        <ele>47.599998474121</ele>
        <time>2016-01-04T21:20:29Z</time>
      </trkpt>
      <trkpt lat="48.86905" lon="2.36184">
        <ele>47.400001525879</ele>
        <time>2016-01-04T21:20:33Z</time>
      </trkpt>
      <trkpt lat="48.86894" lon="2.36207">
        <ele>47</ele>
        <time>2016-01-04T21:20:38Z</time>
      </trkpt>
      <trkpt lat="48.86888" lon="2.36219">
        <ele>46.79999923706</ele>
        <time>2016-01-04T21:20:41Z</time>
      </trkpt>
      <trkpt lat="48.86879" lon="2.36235">
        <ele>46.400001525879</ele>
        <time>2016-01-04T21:20:46Z</time>
      </trkpt>
      <trkpt lat="48.86861" lon="2.36252">
        <ele>46</ele>
        <time>2016-01-04T21:20:53Z</time>
      </trkpt>
      <trkpt lat="48.86845" lon="2.36251">
        <ele>46</ele>
        <time>2016-01-04T21:20:56Z</time>
      </trkpt>
      <trkpt lat="48.86843" lon="2.36264">
        <ele>45.20000076294</ele>
        <time>2016-01-04T21:21:00Z</time>
      </trkpt>
      <trkpt lat="48.86843" lon="2.36269">
        <ele>44.79999923706</ele>
        <time>2016-01-04T21:21:03Z</time>
      </trkpt>
      <trkpt lat="48.86844" lon="2.36271">
        <ele>44.79999923706</ele>
        <time>2016-01-04T21:21:05Z</time>
      </trkpt>
      <trkpt lat="48.86844" lon="2.36276">
        <ele>44.400001525879</ele>
        <time>2016-01-04T21:21:10Z</time>
      </trkpt>
      <trkpt lat="48.86842" lon="2.36287">
        <ele>43.79999923706</ele>
        <time>2016-01-04T21:21:29Z</time>
      </trkpt>
      <trkpt lat="48.86843" lon="2.3629">
        <ele>43.599998474121</ele>
        <time>2016-01-04T21:21:35Z</time>
      </trkpt>
      <trkpt lat="48.8685" lon="2.36302">
        <ele>42.79999923706</ele>
        <time>2016-01-04T21:21:45Z</time>
      </trkpt>
      <trkpt lat="48.86864" lon="2.36327">
        <ele>41.599998474121</ele>
        <time>2016-01-04T21:21:53Z</time>
      </trkpt>
      <trkpt lat="48.86877" lon="2.36349">
        <ele>42</ele>
        <time>2016-01-04T21:21:58Z</time>
      </trkpt>
      <trkpt lat="48.8689" lon="2.36372">
        <ele>42.79999923706</ele>
        <time>2016-01-04T21:22:02Z</time>
      </trkpt>
      <trkpt lat="48.86904" lon="2.3638">
        <ele>43.20000076294</ele>
        <time>2016-01-04T21:22:04Z</time>
      </trkpt>
      <trkpt lat="48.8692" lon="2.36402">
        <ele>44.20000076294</ele>
        <time>2016-01-04T21:22:08Z</time>
      </trkpt>
      <trkpt lat="48.86928" lon="2.36433">
        <ele>44.400001525879</ele>
        <time>2016-01-04T21:22:14Z</time>
      </trkpt>
      <trkpt lat="48.86935" lon="2.36462">
        <ele>44.20000076294</ele>
        <time>2016-01-04T21:22:19Z</time>
      </trkpt>
      <trkpt lat="48.86944" lon="2.3649">
        <ele>44.20000076294</ele>
        <time>2016-01-04T21:22:23Z</time>
      </trkpt>
      <trkpt lat="48.86953" lon="2.36519">
        <ele>44</ele>
        <time>2016-01-04T21:22:27Z</time>
      </trkpt>
      <trkpt lat="48.86963" lon="2.3655">
        <ele>44</ele>
        <time>2016-01-04T21:22:31Z</time>
      </trkpt>
      <trkpt lat="48.86975" lon="2.36578">
        <ele>43.79999923706</ele>
        <time>2016-01-04T21:22:35Z</time>
      </trkpt>
      <trkpt lat="48.86987" lon="2.36598">
        <ele>43.79999923706</ele>
        <time>2016-01-04T21:22:39Z</time>
      </trkpt>
      <trkpt lat="48.86989" lon="2.36608">
        <ele>43.599998474121</ele>
        <time>2016-01-04T21:22:43Z</time>
      </trkpt>
      <trkpt lat="48.86994" lon="2.36627">
        <ele>43.20000076294</ele>
        <time>2016-01-04T21:23:16Z</time>
      </trkpt>
      <trkpt lat="48.86989" lon="2.3663">
        <ele>43</ele>
        <time>2016-01-04T21:23:42Z</time>
      </trkpt>
      <trkpt lat="48.86988" lon="2.36632">
        <ele>43</ele>
        <time>2016-01-04T21:23:46Z</time>
      </trkpt>
      <trkpt lat="48.86981" lon="2.36628">
        <ele>43.20000076294</ele>
        <time>2016-01-04T21:24:52Z</time>
      </trkpt>
      <trkpt lat="48.86971" lon="2.36631">
        <ele>43.400001525879</ele>
        <time>2016-01-04T21:25:17Z</time>
      </trkpt>
      <trkpt lat="48.86952" lon="2.36632">
        <ele>44</ele>
        <time>2016-01-04T21:25:23Z</time>
      </trkpt>
      <trkpt lat="48.86937" lon="2.36649">
        <ele>44.79999923706</ele>
        <time>2016-01-04T21:25:31Z</time>
      </trkpt>
      <trkpt lat="48.86926" lon="2.36671">
        <ele>45.79999923706</ele>
        <time>2016-01-04T21:25:36Z</time>
      </trkpt>
      <trkpt lat="48.86911" lon="2.36687">
        <ele>46.79999923706</ele>
        <time>2016-01-04T21:25:41Z</time>
      </trkpt>
      <trkpt lat="48.86891" lon="2.36689">
        <ele>47.599998474121</ele>
        <time>2016-01-04T21:25:45Z</time>
      </trkpt>
      <trkpt lat="48.86871" lon="2.36704">
        <ele>47.400001525879</ele>
        <time>2016-01-04T21:25:51Z</time>
      </trkpt>
      <trkpt lat="48.86849" lon="2.36706">
        <ele>46.79999923706</ele>
        <time>2016-01-04T21:25:55Z</time>
      </trkpt>
      <trkpt lat="48.8683" lon="2.36703">
        <ele>46.400001525879</ele>
        <time>2016-01-04T21:25:58Z</time>
      </trkpt>
      <trkpt lat="48.86813" lon="2.36724">
        <ele>45.79999923706</ele>
        <time>2016-01-04T21:26:03Z</time>
      </trkpt>
      <trkpt lat="48.86792" lon="2.3673">
        <ele>45.400001525879</ele>
        <time>2016-01-04T21:26:07Z</time>
      </trkpt>
      <trkpt lat="48.86774" lon="2.36742">
        <ele>45</ele>
        <time>2016-01-04T21:26:11Z</time>
      </trkpt>
      <trkpt lat="48.86756" lon="2.36766">
        <ele>45</ele>
        <time>2016-01-04T21:26:16Z</time>
      </trkpt>
      <trkpt lat="48.86748" lon="2.36805">
        <ele>45</ele>
        <time>2016-01-04T21:26:21Z</time>
      </trkpt>
      <trkpt lat="48.86737" lon="2.36818">
        <ele>44.79999923706</ele>
        <time>2016-01-04T21:26:24Z</time>
      </trkpt>
      <trkpt lat="48.86717" lon="2.36826">
        <ele>44.400001525879</ele>
        <time>2016-01-04T21:26:28Z</time>
      </trkpt>
      <trkpt lat="48.86697" lon="2.36836">
        <ele>44.20000076294</ele>
        <time>2016-01-04T21:26:32Z</time>
      </trkpt>
      <trkpt lat="48.86681" lon="2.36847">
        <ele>44.599998474121</ele>
        <time>2016-01-04T21:26:36Z</time>
      </trkpt>
      <trkpt lat="48.86666" lon="2.36851">
        <ele>45.400001525879</ele>
        <time>2016-01-04T21:26:40Z</time>
      </trkpt>
      <trkpt lat="48.86662" lon="2.36857">
        <ele>45.599998474121</ele>
        <time>2016-01-04T21:26:42Z</time>
      </trkpt>
      <trkpt lat="48.8666" lon="2.36866">
        <ele>45.79999923706</ele>
        <time>2016-01-04T21:26:46Z</time>
      </trkpt>
      <trkpt lat="48.86657" lon="2.36852">
        <ele>45.79999923706</ele>
        <time>2016-01-04T21:27:13Z</time>
      </trkpt>
      <trkpt lat="48.86658" lon="2.36825">
        <ele>45.400001525879</ele>
        <time>2016-01-04T21:27:19Z</time>
      </trkpt>
      <trkpt lat="48.86651" lon="2.36795">
        <ele>45.400001525879</ele>
        <time>2016-01-04T21:27:25Z</time>
      </trkpt>
      <trkpt lat="48.86645" lon="2.36764">
        <ele>45.79999923706</ele>
        <time>2016-01-04T21:27:30Z</time>
      </trkpt>
      <trkpt lat="48.86637" lon="2.36734">
        <ele>46</ele>
        <time>2016-01-04T21:27:35Z</time>
      </trkpt>
      <trkpt lat="48.86628" lon="2.36707">
        <ele>46</ele>
        <time>2016-01-04T21:27:40Z</time>
      </trkpt>
      <trkpt lat="48.86624" lon="2.3668">
        <ele>45.79999923706</ele>
        <time>2016-01-04T21:27:45Z</time>
      </trkpt>
      <trkpt lat="48.86611" lon="2.36657">
        <ele>46</ele>
        <time>2016-01-04T21:27:51Z</time>
      </trkpt>
      <trkpt lat="48.86605" lon="2.36627">
        <ele>46.400001525879</ele>
        <time>2016-01-04T21:28:00Z</time>
      </trkpt>
      <trkpt lat="48.86589" lon="2.36615">
        <ele>46.599998474121</ele>
        <time>2016-01-04T21:28:08Z</time>
      </trkpt>
      <trkpt lat="48.86567" lon="2.3662">
        <ele>46.599998474121</ele>
        <time>2016-01-04T21:28:13Z</time>
      </trkpt>
      <trkpt lat="48.8655" lon="2.36629">
        <ele>46.20000076294</ele>
        <time>2016-01-04T21:28:20Z</time>
      </trkpt>
      <trkpt lat="48.86528" lon="2.36637">
        <ele>45.79999923706</ele>
        <time>2016-01-04T21:28:25Z</time>
      </trkpt>
      <trkpt lat="48.86508" lon="2.36646">
        <ele>45.400001525879</ele>
        <time>2016-01-04T21:28:30Z</time>
      </trkpt>
      <trkpt lat="48.86505" lon="2.36645">
        <ele>45.400001525879</ele>
        <time>2016-01-04T21:28:31Z</time>
      </trkpt>
      <trkpt lat="48.86494" lon="2.36618">
        <ele>46.20000076294</ele>
        <time>2016-01-04T21:28:37Z</time>
      </trkpt>
      <trkpt lat="48.86486" lon="2.36592">
        <ele>46.79999923706</ele>
        <time>2016-01-04T21:28:45Z</time>
      </trkpt>
      <trkpt lat="48.86482" lon="2.36586">
        <ele>46.79999923706</ele>
        <time>2016-01-04T21:28:49Z</time>
      </trkpt>
      <trkpt lat="48.86481" lon="2.36578">
        <ele>47</ele>
        <time>2016-01-04T21:28:53Z</time>
      </trkpt>
      <trkpt lat="48.86469" lon="2.36572">
        <ele>47.20000076294</ele>
        <time>2016-01-04T21:29:01Z</time>
      </trkpt>
      <trkpt lat="48.86451" lon="2.36561">
        <ele>47.20000076294</ele>
        <time>2016-01-04T21:29:09Z</time>
      </trkpt>
      <trkpt lat="48.86433" lon="2.36551">
        <ele>47</ele>
        <time>2016-01-04T21:29:15Z</time>
      </trkpt>
      <trkpt lat="48.86416" lon="2.36539">
        <ele>46.400001525879</ele>
        <time>2016-01-04T21:29:23Z</time>
      </trkpt>
      <trkpt lat="48.86398" lon="2.36514">
        <ele>45.79999923706</ele>
        <time>2016-01-04T21:29:30Z</time>
      </trkpt>
      <trkpt lat="48.86382" lon="2.36497">
        <ele>45.20000076294</ele>
        <time>2016-01-04T21:29:34Z</time>
      </trkpt>
      <trkpt lat="48.86365" lon="2.36491">
        <ele>44.400001525879</ele>
        <time>2016-01-04T21:29:41Z</time>
      </trkpt>
      <trkpt lat="48.86343" lon="2.36466">
        <ele>44.599998474121</ele>
        <time>2016-01-04T21:29:46Z</time>
      </trkpt>
      <trkpt lat="48.86326" lon="2.36446">
        <ele>45.400001525879</ele>
        <time>2016-01-04T21:29:51Z</time>
      </trkpt>
      <trkpt lat="48.86311" lon="2.36429">
        <ele>46.20000076294</ele>
        <time>2016-01-04T21:29:56Z</time>
      </trkpt>
      <trkpt lat="48.86293" lon="2.3641">
        <ele>47.20000076294</ele>
        <time>2016-01-04T21:30:01Z</time>
      </trkpt>
      <trkpt lat="48.86276" lon="2.36395">
        <ele>48.400001525879</ele>
        <time>2016-01-04T21:30:06Z</time>
      </trkpt>
      <trkpt lat="48.86264" lon="2.36367">
        <ele>49</ele>
        <time>2016-01-04T21:30:14Z</time>
      </trkpt>
      <trkpt lat="48.86247" lon="2.36352">
        <ele>49.20000076294</ele>
        <time>2016-01-04T21:30:21Z</time>
      </trkpt>
      <trkpt lat="48.86232" lon="2.36335">
        <ele>49.400001525879</ele>
        <time>2016-01-04T21:30:28Z</time>
      </trkpt>
      <trkpt lat="48.8622" lon="2.3631">
        <ele>49.400001525879</ele>
        <time>2016-01-04T21:30:34Z</time>
      </trkpt>
      <trkpt lat="48.86208" lon="2.3629">
        <ele>49.20000076294</ele>
        <time>2016-01-04T21:30:39Z</time>
      </trkpt>
      <trkpt lat="48.86194" lon="2.36268">
        <ele>49</ele>
        <time>2016-01-04T21:30:44Z</time>
      </trkpt>
      <trkpt lat="48.86182" lon="2.36246">
        <ele>48.79999923706</ele>
        <time>2016-01-04T21:30:49Z</time>
      </trkpt>
      <trkpt lat="48.86167" lon="2.36224">
        <ele>47.79999923706</ele>
        <time>2016-01-04T21:30:55Z</time>
      </trkpt>
      <trkpt lat="48.86149" lon="2.36206">
        <ele>47</ele>
        <time>2016-01-04T21:31:00Z</time>
      </trkpt>
      <trkpt lat="48.8613" lon="2.36193">
        <ele>46.20000076294</ele>
        <time>2016-01-04T21:31:04Z</time>
      </trkpt>
      <trkpt lat="48.86117" lon="2.36168">
        <ele>45.400001525879</ele>
        <time>2016-01-04T21:31:10Z</time>
      </trkpt>
      <trkpt lat="48.86096" lon="2.36161">
        <ele>44.599998474121</ele>
        <time>2016-01-04T21:31:15Z</time>
      </trkpt>
      <trkpt lat="48.86078" lon="2.3617">
        <ele>44</ele>
        <time>2016-01-04T21:31:20Z</time>
      </trkpt>
      <trkpt lat="48.8606" lon="2.3618">
        <ele>43.599998474121</ele>
        <time>2016-01-04T21:31:26Z</time>
      </trkpt>
      <trkpt lat="48.86057" lon="2.36176">
        <ele>43.400001525879</ele>
        <time>2016-01-04T21:31:27Z</time>
      </trkpt>
      <trkpt lat="48.86041" lon="2.36155">
        <ele>42.599998474121</ele>
        <time>2016-01-04T21:31:32Z</time>
      </trkpt>
      <trkpt lat="48.86026" lon="2.36128">
        <ele>41.599998474121</ele>
        <time>2016-01-04T21:31:37Z</time>
      </trkpt>
      <trkpt lat="48.86011" lon="2.36106">
        <ele>41.20000076294</ele>
        <time>2016-01-04T21:31:41Z</time>
      </trkpt>
      <trkpt lat="48.85999" lon="2.36083">
        <ele>41</ele>
        <time>2016-01-04T21:31:45Z</time>
      </trkpt>
      <trkpt lat="48.85987" lon="2.3606">
        <ele>41.599998474121</ele>
        <time>2016-01-04T21:31:49Z</time>
      </trkpt>
      <trkpt lat="48.85972" lon="2.36037">
        <ele>42</ele>
        <time>2016-01-04T21:31:53Z</time>
      </trkpt>
      <trkpt lat="48.85959" lon="2.36012">
        <ele>42.400001525879</ele>
        <time>2016-01-04T21:31:57Z</time>
      </trkpt>
      <trkpt lat="48.85945" lon="2.35989">
        <ele>42.79999923706</ele>
        <time>2016-01-04T21:32:01Z</time>
      </trkpt>
      <trkpt lat="48.85929" lon="2.35966">
        <ele>42.79999923706</ele>
        <time>2016-01-04T21:32:05Z</time>
      </trkpt>
      <trkpt lat="48.85912" lon="2.35947">
        <ele>42.599998474121</ele>
        <time>2016-01-04T21:32:09Z</time>
      </trkpt>
      <trkpt lat="48.85898" lon="2.35923">
        <ele>42.599998474121</ele>
        <time>2016-01-04T21:32:13Z</time>
      </trkpt>
      <trkpt lat="48.85887" lon="2.359">
        <ele>42.599998474121</ele>
        <time>2016-01-04T21:32:17Z</time>
      </trkpt>
      <trkpt lat="48.85882" lon="2.35886">
        <ele>42.599998474121</ele>
        <time>2016-01-04T21:32:20Z</time>
      </trkpt>
      <trkpt lat="48.85875" lon="2.35868">
        <ele>42.79999923706</ele>
        <time>2016-01-04T21:32:24Z</time>
      </trkpt>
      <trkpt lat="48.85857" lon="2.35852">
        <ele>42.79999923706</ele>
        <time>2016-01-04T21:32:29Z</time>
      </trkpt>
      <trkpt lat="48.85844" lon="2.35833">
        <ele>43.400001525879</ele>
        <time>2016-01-04T21:32:34Z</time>
      </trkpt>
      <trkpt lat="48.85854" lon="2.35809">
        <ele>43.599998474121</ele>
        <time>2016-01-04T21:32:39Z</time>
      </trkpt>
      <trkpt lat="48.85857" lon="2.35805">
        <ele>43.599998474121</ele>
        <time>2016-01-04T21:32:40Z</time>
      </trkpt>
      <trkpt lat="48.85861" lon="2.35792">
        <ele>43.79999923706</ele>
        <time>2016-01-04T21:32:43Z</time>
      </trkpt>
      <trkpt lat="48.8585" lon="2.35772">
        <ele>44.599998474121</ele>
        <time>2016-01-04T21:32:50Z</time>
      </trkpt>
      <trkpt lat="48.85848" lon="2.3577">
        <ele>44.599998474121</ele>
        <time>2016-01-04T21:32:51Z</time>
      </trkpt>
      <trkpt lat="48.85831" lon="2.35757">
        <ele>45.400001525879</ele>
        <time>2016-01-04T21:32:56Z</time>
      </trkpt>
      <trkpt lat="48.85817" lon="2.35733">
        <ele>45.599998474121</ele>
        <time>2016-01-04T21:33:04Z</time>
      </trkpt>
      <trkpt lat="48.85813" lon="2.35712">
        <ele>45.20000076294</ele>
        <time>2016-01-04T21:33:08Z</time>
      </trkpt>
      <trkpt lat="48.8581" lon="2.35684">
        <ele>45</ele>
        <time>2016-01-04T21:33:15Z</time>
      </trkpt>
      <trkpt lat="48.85801" lon="2.35662">
        <ele>45</ele>
        <time>2016-01-04T21:33:26Z</time>
      </trkpt>
      <trkpt lat="48.85784" lon="2.35652">
        <ele>45</ele>
        <time>2016-01-04T21:33:31Z</time>
      </trkpt>
      <trkpt lat="48.85766" lon="2.35641">
        <ele>45</ele>
        <time>2016-01-04T21:33:37Z</time>
      </trkpt>
      <trkpt lat="48.85749" lon="2.35627">
        <ele>45.20000076294</ele>
        <time>2016-01-04T21:33:43Z</time>
      </trkpt>
      <trkpt lat="48.85731" lon="2.35615">
        <ele>45.599998474121</ele>
        <time>2016-01-04T21:33:49Z</time>
      </trkpt>
      <trkpt lat="48.85716" lon="2.35594">
        <ele>45.599998474121</ele>
        <time>2016-01-04T21:33:55Z</time>
      </trkpt>
      <trkpt lat="48.85713" lon="2.35582">
        <ele>45.79999923706</ele>
        <time>2016-01-04T21:33:57Z</time>
      </trkpt>
      <trkpt lat="48.85718" lon="2.35552">
        <ele>46</ele>
        <time>2016-01-04T21:34:02Z</time>
      </trkpt>
      <trkpt lat="48.85729" lon="2.35528">
        <ele>46.20000076294</ele>
        <time>2016-01-04T21:34:08Z</time>
      </trkpt>
      <trkpt lat="48.85741" lon="2.35504">
        <ele>46.400001525879</ele>
        <time>2016-01-04T21:34:14Z</time>
      </trkpt>
      <trkpt lat="48.85752" lon="2.35478">
        <ele>45.79999923706</ele>
        <time>2016-01-04T21:34:20Z</time>
      </trkpt>
      <trkpt lat="48.85757" lon="2.35447">
        <ele>48</ele>
        <time>2016-01-04T21:34:27Z</time>
      </trkpt>
      <trkpt lat="48.8576" lon="2.35435">
        <ele>48.79999923706</ele>
        <time>2016-01-04T21:34:32Z</time>
      </trkpt>
      <trkpt lat="48.85769" lon="2.35408">
        <ele>51</ele>
        <time>2016-01-04T21:34:44Z</time>
      </trkpt>
      <trkpt lat="48.85772" lon="2.35401">
        <ele>51.20000076294</ele>
        <time>2016-01-04T21:34:46Z</time>
      </trkpt>
      <trkpt lat="48.85785" lon="2.35377">
        <ele>50.79999923706</ele>
        <time>2016-01-04T21:34:53Z</time>
      </trkpt>
      <trkpt lat="48.85795" lon="2.35354">
        <ele>50.400001525879</ele>
        <time>2016-01-04T21:34:59Z</time>
      </trkpt>
      <trkpt lat="48.85805" lon="2.3533">
        <ele>52</ele>
        <time>2016-01-04T21:35:05Z</time>
      </trkpt>
      <trkpt lat="48.85808" lon="2.35318">
        <ele>51</ele>
        <time>2016-01-04T21:35:09Z</time>
      </trkpt>
      <trkpt lat="48.85806" lon="2.3531">
        <ele>50.599998474121</ele>
        <time>2016-01-04T21:35:13Z</time>
      </trkpt>
      <trkpt lat="48.85819" lon="2.35291">
        <ele>49.20000076294</ele>
        <time>2016-01-04T21:35:22Z</time>
      </trkpt>
      <trkpt lat="48.85833" lon="2.35268">
        <ele>49.400001525879</ele>
        <time>2016-01-04T21:35:29Z</time>
      </trkpt>
      <trkpt lat="48.85846" lon="2.35249">
        <ele>49.599998474121</ele>
        <time>2016-01-04T21:35:34Z</time>
      </trkpt>
      <trkpt lat="48.85853" lon="2.35223">
        <ele>49.20000076294</ele>
        <time>2016-01-04T21:35:40Z</time>
      </trkpt>
      <trkpt lat="48.85862" lon="2.35197">
        <ele>48.599998474121</ele>
        <time>2016-01-04T21:35:46Z</time>
      </trkpt>
      <trkpt lat="48.85873" lon="2.35171">
        <ele>48.20000076294</ele>
        <time>2016-01-04T21:35:53Z</time>
      </trkpt>
      <trkpt lat="48.85885" lon="2.35148">
        <ele>49.20000076294</ele>
        <time>2016-01-04T21:35:59Z</time>
      </trkpt>
      <trkpt lat="48.85899" lon="2.35125">
        <ele>50</ele>
        <time>2016-01-04T21:36:06Z</time>
      </trkpt>
      <trkpt lat="48.85911" lon="2.35104">
        <ele>49.599998474121</ele>
        <time>2016-01-04T21:36:13Z</time>
      </trkpt>
      <trkpt lat="48.85912" lon="2.35096">
        <ele>49.400001525879</ele>
        <time>2016-01-04T21:36:16Z</time>
      </trkpt>
      <trkpt lat="48.85897" lon="2.35081">
        <ele>49</ele>
        <time>2016-01-04T21:36:31Z</time>
      </trkpt>
      <trkpt lat="48.85895" lon="2.35082">
        <ele>49</ele>
        <time>2016-01-04T21:36:32Z</time>
      </trkpt>
      <trkpt lat="48.85887" lon="2.3507">
        <ele>48.79999923706</ele>
        <time>2016-01-04T21:36:42Z</time>
      </trkpt>
      <trkpt lat="48.85867" lon="2.35059">
        <ele>48.400001525879</ele>
        <time>2016-01-04T21:36:54Z</time>
      </trkpt>
      <trkpt lat="48.85867" lon="2.35055">
        <ele>48.400001525879</ele>
        <time>2016-01-04T21:36:55Z</time>
      </trkpt>
      <trkpt lat="48.85871" lon="2.35024">
        <ele>47.599998474121</ele>
        <time>2016-01-04T21:37:03Z</time>
      </trkpt>
      <trkpt lat="48.85874" lon="2.34997">
        <ele>47</ele>
        <time>2016-01-04T21:37:13Z</time>
      </trkpt>
      <trkpt lat="48.85881" lon="2.3497">
        <ele>47.400001525879</ele>
        <time>2016-01-04T21:37:23Z</time>
      </trkpt>
      <trkpt lat="48.85881" lon="2.34942">
        <ele>47.599998474121</ele>
        <time>2016-01-04T21:37:30Z</time>
      </trkpt>
      <trkpt lat="48.85881" lon="2.34912">
        <ele>48</ele>
        <time>2016-01-04T21:37:37Z</time>
      </trkpt>
      <trkpt lat="48.85887" lon="2.34885">
        <ele>48</ele>
        <time>2016-01-04T21:37:42Z</time>
      </trkpt>
      <trkpt lat="48.85889" lon="2.34857">
        <ele>48</ele>
        <time>2016-01-04T21:37:48Z</time>
      </trkpt>
      <trkpt lat="48.85884" lon="2.34827">
        <ele>48</ele>
        <time>2016-01-04T21:37:55Z</time>
      </trkpt>
      <trkpt lat="48.85886" lon="2.348">
        <ele>47.599998474121</ele>
        <time>2016-01-04T21:38:01Z</time>
      </trkpt>
      <trkpt lat="48.85897" lon="2.34776">
        <ele>47</ele>
        <time>2016-01-04T21:38:07Z</time>
      </trkpt>
      <trkpt lat="48.85912" lon="2.34757">
        <ele>45.400001525879</ele>
        <time>2016-01-04T21:38:14Z</time>
      </trkpt>
      <trkpt lat="48.8593" lon="2.34744">
        <ele>44.400001525879</ele>
        <time>2016-01-04T21:38:20Z</time>
      </trkpt>
      <trkpt lat="48.85949" lon="2.34727">
        <ele>44.79999923706</ele>
        <time>2016-01-04T21:38:26Z</time>
      </trkpt>
      <trkpt lat="48.85967" lon="2.34729">
        <ele>45</ele>
        <time>2016-01-04T21:38:32Z</time>
      </trkpt>
      <trkpt lat="48.85976" lon="2.34749">
        <ele>44.400001525879</ele>
        <time>2016-01-04T21:38:42Z</time>
      </trkpt>
      <trkpt lat="48.85977" lon="2.34751">
        <ele>44.599998474121</ele>
        <time>2016-01-04T21:39:10Z</time>
      </trkpt>
    </trkseg>
  </trk>
</gpx>